[[{"header":{"parameterUnit":"m.s-1","parameterCategory":1,"la1":31.0,"la2":29.5877,"lo1":-88.7671,"lo2":-86.6584,"dy":0.0162,"dx":0.0185,"nx":115,"ny":88,"refTime":"2023-08-27T06:00:00:Z","depth":0,"parameterNumber":2,"parameterNumberName":"U-component_of_WINDS"},"data":[0.0,0.0,0.0,0.0,0.0,0.0,0.0,0.0,0.0,0.0,0.0,0.0,0.0,0.0,0.0,0.0,0.0,0.0,0.0,0.0,0.0,0.0,0.0,0.0,0.0,0.0,0.0,0.0,0.0,0.0,0.0,0.0,0.0,0.0,0.0,0.0,0.0,0.0,0.0,0.0,0.0,0.0,0.0,0.0,0.0,0.0,0.0,0.0,0.0,0.0,0.0,0.0,0.0,0.0,0.0,0.0,0.0,0.0,0.0,0.0,0.0,0.0,0.0,0.0,0.0,0.0,0.0,0.0,0.0,0.0,0.0,0.0,0.0,0.0,0.0,0.0,0.0,0.0,0.0,0.0,0.0,0.0,0.0,0.0,0.0,0.0,0.0,0.0,0.0,0.0,0.0,0.0,0.0,0.0,0.0,0.0,0.0,0.0,0.0,0.0,0.0,0.0,0.0,0.0,0.0,0.0,0.0,0.0,0.0,0.0,0.0,0.0,0.0,0.0,0.0,0.0,0.0,0.0,0.0,0.0,0.0,0.0,0.0,0.0,0.0,0.0,0.0,0.0,0.0,0.0,0.0,0.0,0.0,0.0,0.0,0.0,0.0,0.0,0.0,0.0,0.0,0.0,0.0,0.0,0.0,0.0,0.0,0.0,0.0,0.0,0.0,0.0,0.0,0.0,0.0,0.0,0.0,0.0,0.0,0.0,0.0,0.0,0.0,0.0,0.0,0.0,0.0,0.0,0.0,0.0,0.0,0.0,0.0,0.0,0.0,0.0,0.0,0.0,0.0,0.0,0.0,0.0,0.0,0.0,0.0,0.0,0.0,0.0,0.0,0.0,0.0,0.0,0.0,0.0,0.0,0.0,0.0,0.0,0.0,0.0,0.0,0.0,0.0,0.0,0.0,0.0,0.0,0.0,0.0,0.0,0.0,0.0,0.0,0.0,0.0,0.0,0.0,0.0,0.0,0.0,0.0,0.0,0.0,0.0,0.0,0.0,0.0,0.0,0.0,0.0,0.0,0.0,0.0,0.0,0.0,0.0,0.0,0.0,0.0,0.0,0.0,0.0,0.0,0.0,0.0,0.0,0.0,0.0,0.0,0.0,0.0,0.0,0.0,0.0,0.0,0.0,0.0,0.0,0.0,0.0,0.0,0.0,0.0,0.0,0.0,0.0,0.0,0.0,0.0,0.0,0.0,0.0,0.0,0.0,0.0,0.0,0.0,0.0,0.0,0.0,0.0,0.0,0.0,0.0,0.0,0.0,0.0,0.0,0.0,0.0,0.0,0.0,0.0,0.0,0.0,0.0,0.0,0.0,0.0,0.0,0.0,0.0,0.0,0.0,0.0,0.0,0.0,0.0,0.0,0.0,0.0,0.0,0.0,0.0,0.0,0.0,0.0,0.0,0.0,0.0,0.0,0.0,0.0,0.0,0.0,0.0,0.0,0.0,0.0,0.0,0.0,0.0,0.0,0.0,0.0,0.0,0.0,0.0,0.0,0.0,0.0,0.0,0.0,0.0,0.0,0.0,0.0,0.0,0.0,0.0,0.0,0.0,0.0,0.0,0.0,0.0,0.0,0.0,0.0,0.0,0.0,0.0,0.0,0.0,0.0,0.0,0.0,0.0,0.0,0.0,0.0,0.0,0.0,0.0,0.0,0.0,0.0,0.0,0.0,0.0,0.0,0.0,0.0,0.0,0.0,0.0,0.0,0.0,0.0,0.0,0.0,0.0,0.0,0.0,0.0,0.0,0.0,0.0,0.0,0.0,0.0,0.0,0.0,0.0,0.0,0.0,0.0,0.0,0.0,0.0,0.0,0.0,0.0,0.0,0.0,0.0,0.0,0.0,0.0,0.0,0.0,0.0,0.0,0.0,0.0,0.0,0.0,0.0,0.0,0.0,0.0,0.0,0.0,0.0,0.0,0.0,0.0,0.0,0.0,0.0,0.0,0.0,0.0,0.0,0.0,0.0,0.0,0.0,0.0,0.0,0.0,0.0,0.0,0.0,0.0,0.0,0.0,0.0,0.0,0.0,0.0,0.0,0.0,0.0,0.0,0.0,0.0,0.0,0.0,0.0,0.0,0.0,0.0,0.0,0.0,0.0,0.0,0.0,0.0,0.0,0.0,0.0,0.0,0.0,0.0,0.0,0.0,0.0,0.0,0.0,0.0,0.0,0.0,0.0,0.0,0.0,0.0,0.0,0.0,0.0,0.0,0.0,0.0,0.0,0.0,0.0,0.0,0.0,0.0,0.0,0.0,0.0,0.0,0.0,0.0,0.0,0.0,0.0,0.0,0.0,0.0,0.0,0.0,0.0,0.0,0.0,0.0,0.0,0.0,0.0,0.0,0.0,0.0,0.0,0.0,0.0,0.0,0.0,0.0,0.0,0.0,0.0,0.0,0.0,0.0,0.0,0.0,0.0,0.0,0.0,0.0,0.0,0.0,0.0,0.0,0.0,0.0,0.0,0.0,0.0,0.0,0.0,0.0,0.0,0.0,0.0,0.0,0.0,0.0,0.0,0.0,0.0,0.0,0.0,0.0,0.0,0.0,0.0,0.0,0.0,0.0,0.0,0.0,0.0,0.0,0.0,0.0,0.0,0.0,0.0,0.0,0.0,0.0,0.0,0.0,0.0,0.0,0.0,0.0,0.0,0.0,0.0,0.0,0.0,0.0,0.0,0.0,0.0,0.0,0.0,0.0,0.0,0.0,0.0,0.0,0.0,0.0,0.0,0.0,0.0,0.0,0.0,0.0,0.0,0.0,0.0,0.0,0.0,0.0,0.0,0.0,0.0,0.0,0.0,0.0,0.0,0.0,0.0,0.0,0.0,0.0,0.0,0.0,0.0,0.0,0.0,0.0,0.0,0.0,0.0,0.0,0.0,0.0,0.0,0.0,0.0,0.0,0.0,0.0,0.0,0.0,0.0,0.0,0.0,0.0,0.0,0.0,0.0,0.0,0.0,0.0,0.0,0.0,0.0,0.0,0.0,0.0,0.0,0.0,0.0,0.0,0.0,0.0,0.0,0.0,0.0,0.0,0.0,0.0,0.0,0.0,0.0,0.0,0.0,0.0,0.0,0.0,0.0,0.0,0.0,0.0,0.0,0.0,0.0,0.0,0.0,0.0,0.0,0.0,0.0,0.0,0.0,0.0,0.0,0.0,0.0,0.0,0.0,0.0,0.0,0.0,0.0,0.0,0.0,0.0,0.0,0.0,0.0,0.0,0.0,0.0,0.0,0.0,0.0,0.0,0.0,0.0,0.0,0.0,0.0,0.0,0.0,0.0,0.0,0.0,0.0,0.0,0.0,0.0,0.0,0.0,0.0,0.0,0.0,0.0,0.0,0.0,0.0,0.0,0.0,0.0,0.0,0.0,0.0,0.0,0.0,0.0,0.0,0.0,0.0,0.0,0.0,0.0,0.0,0.0,0.0,0.0,0.0,0.0,0.0,0.0,0.0,0.0,0.0,0.0,0.0,0.0,0.0,0.0,0.0,0.0,0.0,0.0,0.0,0.0,0.0,0.0,0.0,0.0,0.0,0.0,0.0,0.0,0.0,0.0,0.0,0.0,0.0,0.0,0.0,0.0,0.0,0.0,0.0,0.0,0.0,0.0,0.0,0.0,0.0,0.0,0.0,0.0,0.0,0.0,0.0,0.0,0.0,0.0,0.0,0.0,0.0,0.0,0.0,0.0,0.0,0.0,0.0,0.0,0.0,0.0,0.0,0.0,0.0,0.0,0.0,0.0,0.0,0.0,0.0,0.0,0.0,0.0,0.0,0.0,0.0,0.0,0.0,0.0,0.0,0.0,0.0,0.0,0.0,0.0,0.0,0.0,0.0,0.0,0.0,0.0,0.0,0.0,0.0,0.0,0.0,0.0,0.0,0.0,0.0,0.0,0.0,0.0,0.0,0.0,0.0,0.0,0.0,0.0,0.0,0.0,0.0,0.0,0.0,0.0,0.0,0.0,0.0,0.0,0.0,0.0,0.0,0.0,0.0,0.0,0.0,0.0,0.0,0.0,0.0,0.0,0.0,0.0,0.0,0.0,0.0,0.0,0.0,0.0,0.0,0.0,0.0,0.0,0.0,0.0,0.0,0.0,0.0,0.0,0.0,0.0,0.0,0.0,0.0,0.0,0.0,0.0,0.0,0.0,0.0,0.0,0.0,0.0,0.0,0.0,0.0,0.0,0.0,0.0,0.0,0.0,0.0,0.0,0.0,0.0,0.0,0.0,0.0,0.0,0.0,0.0,0.0,0.0,0.0,0.0,0.0,3.4364,0.0,0.0,0.0,0.0,0.0,0.0,0.0,0.0,0.0,0.0,0.0,0.0,0.0,0.0,0.0,0.0,0.0,0.0,0.0,0.0,0.0,0.0,0.0,0.0,0.0,0.0,0.0,0.0,0.0,0.0,0.0,0.0,0.0,0.0,0.0,0.0,0.0,0.0,0.0,0.0,0.0,0.0,0.0,0.0,0.0,0.0,0.0,0.0,0.0,0.0,0.0,0.0,0.0,0.0,0.0,0.0,0.0,0.0,0.0,0.0,0.0,0.0,0.0,0.0,0.0,0.0,0.0,0.0,0.0,0.0,0.0,0.0,0.0,0.0,0.0,0.0,0.0,0.0,0.0,0.0,0.0,0.0,0.0,0.0,0.0,0.0,0.0,0.0,0.0,0.0,0.0,0.0,0.0,0.0,0.0,0.0,0.0,0.0,0.0,0.0,0.0,0.0,0.0,0.0,0.0,0.0,0.0,0.0,0.0,0.0,3.6519,3.6147,3.533,3.4699,3.4253,0.0,0.0,0.0,0.0,0.0,0.0,0.0,0.0,0.0,0.0,0.0,0.0,0.0,0.0,0.0,0.0,0.0,0.0,0.0,0.0,0.0,0.0,0.0,0.0,0.0,0.0,0.0,0.0,0.0,0.0,0.0,0.0,0.0,0.0,0.0,0.0,0.0,0.0,0.0,0.0,0.0,0.0,0.0,0.0,0.0,0.0,0.0,0.0,0.0,0.0,0.0,0.0,0.0,0.0,0.0,0.0,0.0,0.0,0.0,0.0,0.0,0.0,0.0,0.0,0.0,0.0,0.0,0.0,0.0,0.0,0.0,0.0,0.0,0.0,0.0,0.0,0.0,0.0,0.0,0.0,0.0,0.0,0.0,0.0,0.0,0.0,0.0,0.0,0.0,0.0,0.0,0.0,0.0,0.0,0.0,0.0,0.0,0.0,0.0,0.0,0.0,0.0,0.0,0.0,0.0,0.0,0.0,0.0,0.0,0.0,0.0,0.0,3.6259,3.5813,3.5367,0.0,0.0,0.0,0.0,0.0,0.0,0.0,0.0,0.0,0.0,0.0,0.0,0.0,0.0,0.0,0.0,0.0,0.0,0.0,0.0,0.0,0.0,0.0,0.0,0.0,0.0,0.0,0.0,0.0,0.0,0.0,0.0,0.0,0.0,0.0,0.0,0.0,0.0,0.0,0.0,0.0,0.0,0.0,0.0,0.0,0.0,0.0,0.0,0.0,0.0,0.0,0.0,0.0,0.0,0.0,0.0,0.0,0.0,0.0,0.0,0.0,0.0,0.0,0.0,0.0,0.0,0.0,0.0,0.0,0.0,0.0,0.0,0.0,0.0,0.0,0.0,0.0,0.0,0.0,0.0,0.0,0.0,0.0,0.0,0.0,0.0,0.0,0.0,0.0,0.0,0.0,0.0,0.0,0.0,0.0,0.0,0.0,0.0,0.0,0.0,0.0,0.0,0.0,0.0,0.0,0.0,0.0,0.0,0.0,0.0,3.6731,3.6719,3.7326,0.0,3.8562,0.0,0.0,0.0,0.0,0.0,0.0,0.0,0.0,0.0,0.0,0.0,0.0,0.0,0.0,0.0,0.0,0.0,0.0,0.0,0.0,0.0,0.0,0.0,0.0,0.0,0.0,0.0,0.0,0.0,0.0,0.0,0.0,0.0,0.0,0.0,0.0,0.0,0.0,0.0,0.0,0.0,0.0,0.0,0.0,0.0,0.0,0.0,0.0,0.0,0.0,0.0,0.0,0.0,0.0,0.0,0.0,0.0,0.0,0.0,0.0,0.0,0.0,0.0,0.0,0.0,0.0,0.0,0.0,0.0,0.0,0.0,0.0,0.0,0.0,0.0,0.0,0.0,0.0,0.0,0.0,0.0,0.0,0.0,0.0,0.0,0.0,0.0,0.0,0.0,0.0,0.0,0.0,0.0,0.0,0.0,0.0,0.0,0.0,0.0,0.0,0.0,0.0,0.0,0.0,0.0,0.0,0.0,0.0,0.0,0.0,3.7607,3.8099,3.7533,3.7559,0.0,0.0,0.0,0.0,0.0,0.0,0.0,0.0,0.0,0.0,0.0,0.0,0.0,0.0,0.0,0.0,0.0,0.0,0.0,0.0,0.0,0.0,0.0,0.0,0.0,0.0,0.0,0.0,0.0,0.0,0.0,0.0,0.0,0.0,0.0,0.0,0.0,0.0,0.0,0.0,0.0,0.0,0.0,0.0,0.0,0.0,0.0,0.0,0.0,0.0,0.0,0.0,0.0,0.0,0.0,0.0,0.0,0.0,0.0,0.0,0.0,0.0,0.0,0.0,0.0,0.0,0.0,0.0,0.0,0.0,0.0,0.0,0.0,0.0,0.0,0.0,0.0,0.0,0.0,0.0,0.0,0.0,0.0,0.0,0.0,0.0,0.0,0.0,0.0,0.0,0.0,0.0,0.0,0.0,0.0,0.0,0.0,0.0,0.0,0.0,0.0,0.0,0.0,0.0,0.0,0.0,0.0,0.0,0.0,0.0,3.8414,3.8275,3.8998,3.757,3.7188,3.8191,0.0,0.0,0.0,0.0,0.0,0.0,0.0,0.0,0.0,0.0,0.0,0.0,0.0,0.0,0.0,0.0,0.0,0.0,0.0,0.0,0.0,0.0,0.0,0.0,0.0,0.0,0.0,0.0,0.0,0.0,0.0,0.0,0.0,0.0,0.0,0.0,0.0,0.0,0.0,0.0,0.0,0.0,0.0,0.0,0.0,0.0,0.0,0.0,0.0,0.0,0.0,0.0,0.0,0.0,0.0,0.0,0.0,0.0,0.0,0.0,0.0,0.0,0.0,0.0,0.0,0.0,0.0,0.0,0.0,0.0,0.0,0.0,0.0,0.0,0.0,0.0,0.0,0.0,0.0,0.0,0.0,0.0,0.0,0.0,0.0,0.0,0.0,0.0,0.0,0.0,0.0,0.0,0.0,0.0,0.0,0.0,0.0,0.0,0.0,0.0,0.0,0.0,0.0,0.0,0.0,0.0,0.0,0.0,4.0198,3.8765,3.8302,3.9045,3.7522,3.7411,0.0,0.0,0.0,0.0,0.0,0.0,0.0,0.0,0.0,0.0,0.0,0.0,0.0,0.0,0.0,0.0,0.0,0.0,0.0,0.0,0.0,0.0,0.0,0.0,0.0,0.0,0.0,0.0,0.0,0.0,0.0,0.0,0.0,0.0,0.0,0.0,0.0,0.0,0.0,0.0,0.0,0.0,0.0,0.0,0.0,0.0,0.0,0.0,0.0,0.0,0.0,0.0,0.0,0.0,0.0,0.0,0.0,0.0,0.0,0.0,0.0,0.0,0.0,0.0,0.0,0.0,0.0,0.0,0.0,0.0,0.0,0.0,0.0,0.0,0.0,0.0,0.0,0.0,0.0,0.0,0.0,0.0,0.0,0.0,0.0,0.0,0.0,0.0,0.0,0.0,0.0,0.0,0.0,0.0,0.0,0.0,0.0,0.0,0.0,0.0,0.0,0.0,0.0,0.0,0.0,0.0,0.0,0.0,0.0,3.8795,3.9249,3.9361,3.9082,3.8042,3.7745,0.0,0.0,0.0,0.0,0.0,0.0,0.0,0.0,0.0,0.0,0.0,0.0,0.0,0.0,0.0,0.0,0.0,0.0,0.0,0.0,0.0,0.0,0.0,0.0,0.0,0.0,0.0,0.0,0.0,0.0,0.0,0.0,0.0,0.0,0.0,0.0,0.0,0.0,0.0,0.0,0.0,0.0,0.0,0.0,0.0,0.0,0.0,0.0,0.0,0.0,0.0,0.0,0.0,0.0,0.0,0.0,0.0,0.0,0.0,0.0,0.0,0.0,0.0,0.0,0.0,0.0,0.0,0.0,0.0,0.0,0.0,0.0,0.0,0.0,0.0,0.0,0.0,0.0,0.0,0.0,0.0,0.0,0.0,0.0,0.0,0.0,0.0,0.0,0.0,0.0,0.0,0.0,0.0,0.0,0.0,0.0,0.0,0.0,0.0,0.0,0.0,0.0,0.0,0.0,0.0,0.0,0.0,0.0,0.0,3.7923,0.0,3.9296,3.8711,3.7931,3.7522,0.0,0.0,0.0,0.0,0.0,0.0,0.0,0.0,0.0,0.0,0.0,0.0,0.0,0.0,0.0,0.0,0.0,0.0,0.0,0.0,0.0,0.0,0.0,0.0,0.0,0.0,0.0,0.0,0.0,0.0,0.0,0.0,0.0,0.0,0.0,0.0,0.0,0.0,0.0,0.0,0.0,0.0,0.0,0.0,0.0,0.0,0.0,0.0,0.0,0.0,0.0,0.0,0.0,0.0,0.0,0.0,0.0,0.0,0.0,0.0,0.0,0.0,0.0,0.0,0.0,0.0,0.0,0.0,0.0,0.0,0.0,0.0,0.0,0.0,0.0,0.0,0.0,0.0,0.0,0.0,0.0,0.0,0.0,0.0,0.0,0.0,0.0,0.0,0.0,0.0,0.0,0.0,0.0,0.0,0.0,0.0,0.0,0.0,0.0,0.0,0.0,0.0,0.0,0.0,0.0,0.0,0.0,0.0,3.7931,3.7894,3.7988,3.8136,3.7968,3.7225,3.6742,0.0,0.0,0.0,0.0,0.0,0.0,0.0,0.0,0.0,0.0,0.0,0.0,0.0,0.0,0.0,0.0,0.0,0.0,0.0,0.0,0.0,0.0,0.0,0.0,0.0,0.0,0.0,0.0,0.0,0.0,0.0,0.0,0.0,0.0,0.0,0.0,0.0,0.0,0.0,0.0,0.0,0.0,0.0,0.0,0.0,0.0,0.0,0.0,0.0,0.0,0.0,0.0,0.0,0.0,0.0,0.0,0.0,0.0,0.0,0.0,0.0,0.0,0.0,0.0,0.0,0.0,0.0,0.0,0.0,0.0,0.0,0.0,0.0,0.0,0.0,0.0,0.0,0.0,0.0,0.0,0.0,0.0,0.0,0.0,0.0,0.0,0.0,0.0,0.0,0.0,0.0,0.0,0.0,0.0,0.0,0.0,0.0,0.0,0.0,0.0,0.0,0.0,0.0,0.0,0.0,0.0,0.0,0.0,0.0,3.7931,3.9036,4.0151,4.1126,3.8302,3.7485,0.0,0.0,0.0,0.0,0.0,0.0,0.0,0.0,0.0,0.0,0.0,0.0,0.0,0.0,0.0,0.0,0.0,0.0,0.0,0.0,0.0,0.0,0.0,0.0,0.0,0.0,0.0,0.0,0.0,0.0,0.0,0.0,0.0,0.0,0.0,0.0,0.0,0.0,0.0,0.0,0.0,0.0,0.0,0.0,0.0,0.0,0.0,0.0,0.0,0.0,0.0,0.0,0.0,0.0,0.0,0.0,0.0,0.0,0.0,0.0,0.0,0.0,0.0,0.0,0.0,0.0,0.0,0.0,0.0,0.0,0.0,0.0,0.0,0.0,0.0,0.0,0.0,0.0,0.0,0.0,0.0,0.0,0.0,0.0,0.0,0.0,0.0,0.0,0.0,0.0,0.0,0.0,0.0,0.0,0.0,0.0,0.0,0.0,0.0,0.0,0.0,0.0,0.0,0.0,0.0,0.0,0.0,0.0,0.0,4.0643,4.0791,4.1311,4.2352,3.9565,3.8488,3.938,0.0,0.0,0.0,0.0,0.0,0.0,0.0,0.0,0.0,0.0,0.0,0.0,0.0,0.0,0.0,0.0,0.0,0.0,0.0,0.0,0.0,0.0,0.0,0.0,0.0,0.0,0.0,0.0,0.0,0.0,0.0,0.0,0.0,0.0,0.0,0.0,0.0,0.0,0.0,0.0,0.0,0.0,0.0,0.0,0.0,0.0,0.0,0.0,0.0,0.0,0.0,0.0,0.0,0.0,0.0,0.0,0.0,0.0,0.0,0.0,0.0,0.0,0.0,0.0,0.0,0.0,0.0,0.0,0.0,0.0,0.0,0.0,0.0,0.0,0.0,0.0,0.0,0.0,0.0,0.0,0.0,0.0,0.0,0.0,0.0,0.0,0.0,0.0,0.0,0.0,0.0,0.0,0.0,0.0,0.0,0.0,0.0,0.0,0.0,0.0,0.0,0.0,0.0,0.0,0.0,0.0,0.0,0.0,4.5472,4.3352,4.2316,4.2277,4.1163,3.9788,0.0,0.0,0.0,0.0,0.0,0.0,0.0,0.0,0.0,0.0,0.0,0.0,0.0,0.0,0.0,0.0,0.0,0.0,0.0,0.0,0.0,0.0,0.0,0.0,0.0,0.0,0.0,0.0,0.0,0.0,0.0,0.0,0.0,0.0,0.0,0.0,0.0,0.0,0.0,0.0,0.0,0.0,0.0,0.0,0.0,0.0,0.0,0.0,0.0,0.0,0.0,0.0,0.0,0.0,0.0,0.0,0.0,0.0,0.0,0.0,0.0,0.0,0.0,0.0,0.0,0.0,0.0,0.0,0.0,0.0,0.0,0.0,0.0,0.0,0.0,0.0,0.0,0.0,0.0,0.0,0.0,0.0,0.0,0.0,0.0,0.0,0.0,0.0,0.0,0.0,0.0,0.0,0.0,0.0,0.0,0.0,0.0,0.0,0.0,0.0,0.0,0.0,0.0,0.0,0.0,0.0,0.0,0.0,0.0,4.785,4.9077,4.9444,4.8744,4.4506,4.224,0.0,0.0,0.0,0.0,0.0,0.0,0.0,0.0,0.0,0.0,0.0,0.0,0.0,0.0,0.0,0.0,0.0,0.0,0.0,0.0,0.0,0.0,0.0,0.0,0.0,0.0,0.0,0.0,0.0,0.0,0.0,0.0,0.0,0.0,0.0,0.0,0.0,0.0,0.0,0.0,0.0,0.0,0.0,0.0,0.0,0.0,0.0,0.0,0.0,0.0,0.0,0.0,0.0,0.0,0.0,0.0,0.0,0.0,0.0,0.0,0.0,0.0,0.0,0.0,0.0,0.0,0.0,0.0,0.0,0.0,0.0,0.0,0.0,0.0,0.0,0.0,0.0,0.0,0.0,0.0,0.0,0.0,0.0,0.0,0.0,0.0,0.0,0.0,0.0,0.0,0.0,0.0,0.0,0.0,0.0,0.0,0.0,0.0,0.0,0.0,0.0,0.0,0.0,0.0,0.0,0.0,0.0,0.0,4.7174,5.0413,5.323,5.4589,5.45,4.9893,4.6327,0.0,0.0,0.0,0.0,0.0,0.0,0.0,0.0,0.0,0.0,0.0,0.0,0.0,0.0,0.0,0.0,0.0,0.0,0.0,0.0,0.0,0.0,0.0,0.0,0.0,0.0,0.0,0.0,0.0,0.0,0.0,0.0,0.0,0.0,0.0,0.0,0.0,0.0,0.0,0.0,0.0,0.0,0.0,0.0,0.0,0.0,0.0,0.0,0.0,0.0,0.0,0.0,0.0,0.0,0.0,0.0,0.0,0.0,0.0,0.0,0.0,0.0,0.0,0.0,0.0,0.0,0.0,0.0,0.0,0.0,0.0,0.0,0.0,0.0,0.0,0.0,0.0,0.0,0.0,0.0,0.0,0.0,0.0,0.0,0.0,0.0,0.0,0.0,0.0,0.0,0.0,0.0,0.0,0.0,0.0,0.0,0.0,0.0,0.0,0.0,0.0,0.0,0.0,0.0,0.0,0.0,0.0,0.0,4.9533,5.2791,5.6245,5.8312,5.8805,5.5466,5.0636,0.0,0.0,0.0,0.0,0.0,0.0,0.0,0.0,0.0,0.0,0.0,0.0,0.0,0.0,0.0,0.0,0.0,0.0,0.0,0.0,0.0,0.0,0.0,0.0,0.0,0.0,0.0,0.0,0.0,0.0,0.0,0.0,0.0,0.0,0.0,0.0,0.0,0.0,0.0,0.0,0.0,0.0,0.0,0.0,0.0,0.0,0.0,0.0,0.0,0.0,0.0,0.0,0.0,0.0,0.0,0.0,0.0,0.0,0.0,0.0,0.0,0.0,0.0,0.0,0.0,0.0,0.0,0.0,0.0,0.0,0.0,0.0,0.0,0.0,0.0,0.0,0.0,0.0,0.0,0.0,0.0,0.0,0.0,0.0,0.0,0.0,0.0,0.0,0.0,0.0,0.0,0.0,0.0,0.0,0.0,0.0,0.0,0.0,0.0,0.0,0.0,0.0,0.0,0.0,0.0,0.0,0.0,0.0,5.1157,5.4463,5.8974,6.1122,6.0667,5.4983,5.0042,0.0,0.0,0.0,0.0,0.0,0.0,0.0,0.0,0.0,0.0,0.0,0.0,0.0,0.0,0.0,0.0,0.0,0.0,0.0,0.0,0.0,0.0,0.0,0.0,0.0,0.0,0.0,0.0,0.0,0.0,0.0,0.0,0.0,0.0,0.0,0.0,0.0,0.0,0.0,0.0,0.0,0.0,0.0,0.0,0.0,0.0,0.0,0.0,4.1569,0.0,0.0,0.0,0.0,0.0,0.0,0.0,0.0,0.0,0.0,0.0,0.0,0.0,0.0,0.0,0.0,0.0,0.0,0.0,0.0,0.0,0.0,0.0,0.0,0.0,0.0,0.0,0.0,0.0,0.0,0.0,0.0,0.0,0.0,0.0,0.0,0.0,0.0,0.0,0.0,0.0,0.0,0.0,0.0,0.0,0.0,0.0,0.0,0.0,0.0,0.0,0.0,0.0,0.0,0.0,0.0,0.0,0.0,0.0,5.2465,5.6137,6.0246,6.2027,6.1076,5.632,5.1788,0.0,0.0,0.0,0.0,0.0,0.0,0.0,0.0,0.0,0.0,0.0,0.0,0.0,0.0,0.0,0.0,0.0,0.0,0.0,0.0,0.0,0.0,0.0,0.0,0.0,0.0,0.0,0.0,0.0,0.0,0.0,0.0,0.0,0.0,0.0,0.0,0.0,0.0,0.0,0.0,0.0,0.0,0.0,0.0,0.0,0.0,0.0,0.0,0.0,0.0,0.0,0.0,0.0,0.0,0.0,0.0,0.0,0.0,0.0,0.0,0.0,0.0,0.0,0.0,0.0,0.0,0.0,0.0,0.0,0.0,0.0,0.0,0.0,0.0,0.0,0.0,0.0,0.0,0.0,0.0,0.0,0.0,0.0,0.0,0.0,0.0,0.0,0.0,0.0,0.0,0.0,0.0,0.0,0.0,0.0,0.0,0.0,0.0,0.0,0.0,0.0,0.0,0.0,0.0,0.0,0.0,0.0,4.9596,5.3559,5.7587,6.0921,6.2175,6.1373,5.8326,5.4351,4.9522,0.0,0.0,0.0,0.0,0.0,0.0,0.0,0.0,0.0,0.0,0.0,0.0,0.0,0.0,0.0,0.0,0.0,0.0,0.0,0.0,0.0,0.0,0.0,0.0,0.0,0.0,0.0,0.0,0.0,0.0,0.0,0.0,0.0,0.0,0.0,0.0,0.0,0.0,3.9372,3.9483,0.0,0.0,0.0,0.0,0.0,0.0,0.0,0.0,4.1674,0.0,0.0,0.0,0.0,0.0,0.0,0.0,0.0,0.0,0.0,0.0,0.0,0.0,0.0,0.0,0.0,0.0,0.0,0.0,0.0,0.0,0.0,0.0,0.0,0.0,0.0,0.0,0.0,0.0,0.0,0.0,0.0,0.0,0.0,0.0,0.0,0.0,0.0,0.0,0.0,0.0,0.0,0.0,0.0,0.0,0.0,0.0,0.0,0.0,0.0,0.0,0.0,0.0,0.0,0.0,0.0,4.7273,5.068,5.4391,5.8401,6.1744,6.3,6.219,5.9664,5.6023,5.1193,0.0,0.0,0.0,0.0,0.0,0.0,0.0,0.0,0.0,0.0,0.0,0.0,0.0,0.0,0.0,0.0,0.0,0.0,0.0,0.0,0.0,0.0,0.0,0.0,0.0,0.0,0.0,0.0,0.0,0.0,0.0,0.0,0.0,0.0,0.0,0.0,0.0,0.0,0.0,4.0281,4.0931,0.0,0.0,0.0,0.0,0.0,0.0,0.0,0.0,4.1815,0.0,0.0,0.0,0.0,0.0,0.0,0.0,0.0,0.0,0.0,0.0,0.0,0.0,0.0,0.0,0.0,0.0,0.0,0.0,0.0,0.0,0.0,0.0,0.0,0.0,0.0,0.0,0.0,0.0,0.0,0.0,0.0,0.0,0.0,0.0,0.0,0.0,0.0,0.0,0.0,0.0,0.0,0.0,0.0,0.0,0.0,0.0,0.0,0.0,0.0,0.0,0.0,0.0,0.0,0.0,4.8776,5.1765,5.5435,5.9832,6.2369,6.3007,6.1781,5.8995,5.554,0.0,0.0,0.0,0.0,0.0,0.0,0.0,0.0,0.0,0.0,0.0,0.0,0.0,0.0,0.0,0.0,0.0,0.0,0.0,0.0,0.0,0.0,0.0,0.0,0.0,0.0,0.0,0.0,0.0,0.0,0.0,0.0,0.0,0.0,0.0,0.0,0.0,0.0,0.0,0.0,4.1622,4.2079,4.1648,0.0,0.0,0.0,0.0,0.0,0.0,4.2131,4.199,0.0,0.0,0.0,0.0,0.0,0.0,0.0,0.0,0.0,0.0,0.0,0.0,0.0,0.0,0.0,0.0,0.0,0.0,0.0,0.0,0.0,0.0,0.0,0.0,0.0,0.0,0.0,0.0,0.0,0.0,0.0,0.0,0.0,0.0,0.0,0.0,0.0,0.0,0.0,0.0,0.0,0.0,0.0,0.0,0.0,0.0,0.0,0.0,0.0,0.0,0.0,0.0,0.0,0.0,0.0,4.9935,5.2698,5.6362,6.1003,6.2769,6.2933,6.1447,5.8252,5.502,0.0,0.0,0.0,0.0,0.0,0.0,0.0,0.0,0.0,0.0,0.0,0.0,0.0,0.0,0.0,0.0,0.0,0.0,0.0,0.0,0.0,0.0,0.0,0.0,0.0,0.0,0.0,0.0,0.0,0.0,0.0,0.0,0.0,0.0,0.0,0.0,0.0,0.0,0.0,0.0,0.0,4.327,4.2035,4.3149,0.0,0.0,0.0,0.0,4.3184,4.3254,0.0,0.0,0.0,0.0,0.0,0.0,0.0,0.0,0.0,0.0,0.0,0.0,0.0,0.0,0.0,0.0,0.0,0.0,0.0,0.0,0.0,0.0,0.0,0.0,0.0,0.0,0.0,0.0,0.0,0.0,0.0,0.0,0.0,0.0,0.0,0.0,0.0,0.0,0.0,0.0,0.0,0.0,0.0,0.0,0.0,0.0,0.0,0.0,0.0,0.0,0.0,0.0,0.0,0.0,0.0,0.0,4.9973,5.3256,5.6925,6.1003,6.2769,6.3193,6.2264,5.9069,5.5837,0.0,0.0,0.0,0.0,0.0,0.0,0.0,0.0,0.0,0.0,0.0,0.0,0.0,0.0,0.0,0.0,0.0,0.0,0.0,0.0,0.0,0.0,0.0,0.0,0.0,0.0,0.0,0.0,0.0,0.0,0.0,0.0,0.0,0.0,0.0,0.0,0.0,0.0,0.0,0.0,0.0,4.4355,4.2868,4.3992,4.4624,0.0,0.0,4.4729,4.4834,4.7046,0.0,0.0,0.0,0.0,0.0,0.0,0.0,0.0,0.0,0.0,0.0,0.0,0.0,0.0,0.0,0.0,0.0,0.0,0.0,0.0,0.0,0.0,0.0,0.0,0.0,0.0,0.0,0.0,0.0,0.0,0.0,0.0,0.0,0.0,0.0,0.0,0.0,0.0,0.0,0.0,0.0,0.0,0.0,0.0,0.0,0.0,0.0,0.0,0.0,0.0,0.0,0.0,0.0,0.0,0.0,4.5923,5.0723,5.315,5.629,6.0307,6.2101,6.2294,6.1038,5.7806,5.476,0.0,0.0,0.0,0.0,0.0,0.0,0.0,0.0,0.0,0.0,0.0,0.0,0.0,0.0,0.0,0.0,0.0,0.0,0.0,0.0,0.0,0.0,0.0,0.0,0.0,0.0,0.0,0.0,0.0,0.0,0.0,0.0,0.0,0.0,0.0,0.0,0.0,0.0,0.0,0.0,0.0,0.0,4.316,4.4869,0.0,0.0,0.0,4.6168,4.7503,0.0,0.0,0.0,0.0,0.0,0.0,0.0,0.0,0.0,0.0,0.0,0.0,0.0,0.0,0.0,0.0,0.0,0.0,0.0,0.0,0.0,0.0,0.0,0.0,0.0,0.0,0.0,0.0,0.0,0.0,0.0,0.0,0.0,0.0,0.0,0.0,0.0,0.0,0.0,0.0,0.0,0.0,0.0,0.0,0.0,0.0,0.0,0.0,0.0,0.0,0.0,0.0,0.0,0.0,0.0,0.0,0.0,5.1307,5.342,5.6325,6.0098,6.1879,6.1916,6.0258,5.684,0.0,0.0,0.0,0.0,0.0,0.0,0.0,0.0,0.0,0.0,0.0,0.0,0.0,0.0,0.0,0.0,0.0,0.0,0.0,0.0,0.0,0.0,0.0,0.0,0.0,0.0,0.0,4.042,0.0,0.0,0.0,0.0,0.0,0.0,0.0,0.0,0.0,0.0,0.0,0.0,0.0,0.0,4.6979,4.3827,4.6204,4.7854,0.0,0.0,4.8205,4.975,4.9855,4.9539,0.0,0.0,0.0,0.0,0.0,0.0,0.0,0.0,0.0,0.0,0.0,0.0,0.0,0.0,0.0,0.0,0.0,0.0,0.0,0.0,0.0,0.0,0.0,0.0,0.0,0.0,0.0,0.0,0.0,0.0,0.0,0.0,0.0,0.0,0.0,0.0,0.0,0.0,0.0,0.0,0.0,0.0,0.0,0.0,0.0,0.0,0.0,0.0,0.0,0.0,0.0,0.0,0.0,0.0,4.7271,5.1312,5.4503,5.7691,6.1001,6.271,6.2747,6.1113,5.7138,5.3868,0.0,0.0,0.0,0.0,0.0,0.0,0.0,0.0,0.0,0.0,0.0,0.0,0.0,0.0,0.0,0.0,0.0,0.0,0.0,0.0,0.0,0.0,0.0,0.0,0.0,0.0,0.0,0.0,0.0,0.0,0.0,0.0,0.0,0.0,0.0,0.0,0.0,0.0,0.0,0.0,0.0,4.7694,4.5256,4.8205,5.0627,0.0,5.1154,5.147,5.0908,5.3717,5.4068,4.8486,0.0,0.0,0.0,0.0,0.0,0.0,0.0,0.0,0.0,0.0,0.0,0.0,0.0,0.0,0.0,0.0,0.0,0.0,0.0,0.0,0.0,0.0,0.0,0.0,0.0,0.0,0.0,0.0,0.0,0.0,0.0,0.0,0.0,0.0,0.0,0.0,0.0,0.0,0.0,0.0,0.0,0.0,0.0,0.0,0.0,0.0,0.0,0.0,0.0,0.0,0.0,0.0,0.0,4.7537,5.0567,5.3349,5.6381,5.9509,6.024,6.0518,6.0407,5.6432,5.3348,0.0,0.0,0.0,0.0,0.0,0.0,0.0,0.0,0.0,0.0,0.0,0.0,0.0,0.0,0.0,0.0,0.0,0.0,0.0,0.0,0.0,0.0,0.0,0.0,0.0,0.0,0.0,0.0,4.1311,4.146,4.224,0.0,0.0,0.0,0.0,0.0,0.0,0.0,0.0,0.0,0.0,4.8766,4.7397,5.0136,0.0,0.0,5.2242,5.298,5.3647,5.4173,5.3682,5.1329,5.0101,0.0,0.0,0.0,0.0,0.0,0.0,0.0,0.0,0.0,0.0,0.0,0.0,0.0,0.0,0.0,0.0,0.0,0.0,0.0,0.0,0.0,0.0,0.0,0.0,0.0,0.0,0.0,0.0,0.0,0.0,0.0,0.0,0.0,0.0,0.0,0.0,0.0,0.0,0.0,0.0,0.0,0.0,0.0,0.0,0.0,0.0,0.0,0.0,0.0,0.0,0.0,0.0,4.7835,5.0455,5.2679,5.5377,5.8615,5.8683,5.9107,5.9775,5.5949,5.3162,0.0,0.0,0.0,0.0,0.0,0.0,0.0,0.0,0.0,0.0,0.0,0.0,0.0,0.0,0.0,0.0,0.0,0.0,0.0,0.0,0.0,0.0,0.0,0.0,0.0,0.0,0.0,0.0,4.2314,4.2426,4.276,0.0,0.0,0.0,0.0,0.0,0.0,0.0,0.0,0.0,0.0,4.9398,4.8661,5.1189,5.305,5.2734,5.298,5.3717,5.5262,5.4208,5.2944,5.2242,0.0,0.0,0.0,0.0,0.0,0.0,0.0,0.0,0.0,0.0,0.0,0.0,0.0,0.0,0.0,0.0,0.0,0.0,0.0,0.0,0.0,0.0,0.0,0.0,0.0,0.0,0.0,4.1777,0.0,0.0,4.1854,0.0,0.0,0.0,0.0,0.0,0.0,0.0,0.0,0.0,0.0,0.0,0.0,0.0,0.0,0.0,0.0,0.0,0.0,0.0,0.0,0.0,0.0,4.8096,5.1345,5.2976,5.5391,5.8545,5.8698,5.9107,5.9738,5.5949,5.3423,5.2531,0.0,0.0,0.0,0.0,0.0,0.0,0.0,0.0,0.0,0.0,0.0,0.0,0.0,0.0,0.0,0.0,0.0,0.0,0.0,0.0,0.0,0.0,0.0,0.0,0.0,0.0,4.3912,4.3949,4.3615,0.0,0.0,0.0,0.0,0.0,0.0,0.0,0.0,0.0,4.4413,4.7519,4.9434,4.8696,5.1224,5.3471,5.4138,5.3647,5.3752,5.5262,5.4208,5.2418,0.0,0.0,0.0,0.0,0.0,0.0,0.0,0.0,0.0,0.0,0.0,0.0,0.0,0.0,0.0,0.0,0.0,0.0,0.0,0.0,0.0,0.0,0.0,0.0,0.0,0.0,0.0,4.2872,4.2431,0.0,0.0,0.0,0.0,0.0,0.0,0.0,0.0,0.0,0.0,0.0,4.3123,4.4045,0.0,0.0,0.0,0.0,0.0,0.0,0.0,0.0,0.0,0.0,0.0,0.0,4.8356,5.0534,5.32,5.5691,5.785,5.8401,5.8846,5.9069,5.6648,5.3862,5.0824,0.0,0.0,0.0,0.0,0.0,0.0,0.0,0.0,0.0,0.0,0.0,0.0,0.0,0.0,0.0,0.0,0.0,0.0,0.0,0.0,0.0,0.0,0.0,0.0,0.0,4.4023,0.0,0.0,0.0,0.0,0.0,0.0,0.0,0.0,0.0,0.0,4.3384,4.405,4.5446,4.8448,5.0382,5.0136,5.2734,5.463,0.0,0.0,0.0,0.0,0.0,0.0,0.0,0.0,0.0,0.0,0.0,0.0,0.0,0.0,4.9886,4.7554,4.7238,4.7489,4.8003,0.0,0.0,0.0,0.0,0.0,0.0,0.0,0.0,0.0,0.0,0.0,0.0,0.0,0.0,4.3945,4.4233,4.3655,0.0,0.0,0.0,0.0,0.0,0.0,0.0,0.0,4.4712,4.5255,4.5829,4.7027,4.761,0.0,4.6792,4.5616,0.0,0.0,0.0,0.0,0.0,0.0,0.0,0.0,4.8627,5.0592,5.32,5.5652,5.7813,5.8141,5.8396,5.8661,5.65,5.3635,5.0151,4.8237,4.6763,0.0,0.0,0.0,0.0,0.0,0.0,0.0,0.0,0.0,0.0,0.0,0.0,0.0,0.0,0.0,0.0,0.0,0.0,0.0,0.0,0.0,0.0,0.0,4.3758,0.0,0.0,0.0,0.0,0.0,0.0,0.0,0.0,0.0,4.4003,4.441,4.5369,4.7187,4.9434,5.1084,5.161,0.0,0.0,0.0,0.0,0.0,0.0,0.0,5.4816,5.5051,5.5109,5.5319,5.5992,5.5449,5.47,5.3917,0.0,0.0,4.9746,4.9424,4.9718,5.0255,5.0818,5.1363,5.2067,5.234,5.2581,0.0,0.0,0.0,0.0,0.0,0.0,0.0,0.0,4.388,4.5142,0.0,4.5589,0.0,0.0,0.0,0.0,4.518,4.425,0.0,0.0,4.7639,4.8667,5.0152,5.1024,5.1439,5.1416,5.0523,4.9668,4.8742,4.4989,0.0,0.0,0.0,0.0,0.0,0.0,4.9006,5.1489,5.3235,5.554,5.8586,5.7942,5.7905,5.8619,5.5538,5.2819,5.068,4.9679,4.774,4.4748,4.5993,0.0,0.0,0.0,0.0,0.0,0.0,0.0,0.0,0.0,0.0,0.0,0.0,0.0,0.0,0.0,0.0,0.0,0.0,0.0,0.0,4.3461,0.0,0.0,0.0,0.0,0.0,0.0,0.0,0.0,0.0,4.5645,4.546,4.593,4.7187,4.9398,0.0,0.0,0.0,0.0,5.3822,5.5332,5.4946,5.5262,5.7438,5.6599,5.5918,5.6656,0.0,0.0,5.7036,5.6642,5.6199,5.5602,5.5122,5.4494,5.3831,5.3866,5.4015,5.4082,5.4722,5.5289,5.4816,5.4727,5.4973,5.1413,0.0,0.0,0.0,0.0,4.8188,4.8445,4.8536,4.9175,4.9138,4.8649,4.7597,0.0,0.0,0.0,0.0,0.0,0.0,4.8485,4.9534,5.0867,5.1593,5.1899,5.2716,5.3089,5.3088,5.2264,5.1488,5.0636,4.889,4.7256,4.5807,0.0,0.0,0.0,0.0,5.0934,5.3903,5.6169,5.8025,5.9542,6.0432,6.0388,5.9368,5.5698,5.3193,5.19,5.1151,4.981,4.7809,4.8051,0.0,0.0,0.0,0.0,0.0,0.0,0.0,0.0,0.0,0.0,0.0,0.0,0.0,0.0,0.0,0.0,0.0,0.0,0.0,4.4679,4.4711,4.4781,0.0,0.0,0.0,0.0,0.0,0.0,0.0,0.0,0.0,4.9044,4.8925,4.9153,0.0,0.0,5.2664,5.312,5.4138,5.5191,5.6139,5.7052,0.0,5.779,5.8386,5.887,5.9081,5.9733,6.0138,5.9763,5.9228,5.9042,5.9305,5.888,5.8634,5.9325,5.6867,5.4886,5.482,5.5571,5.6505,5.6808,5.7444,5.8142,5.7928,5.4988,5.1764,5.0581,5.0802,5.1292,5.1625,5.185,5.2373,5.2373,5.1999,5.0852,5.0123,4.9663,4.8332,0.0,0.0,0.0,5.1174,5.2335,5.368,5.4727,5.5503,5.6362,5.6695,5.6692,5.5549,5.4773,5.4277,5.3125,5.1825,5.0302,0.0,4.7627,4.941,5.0859,5.2902,5.5463,5.7955,5.9738,6.0846,6.1204,6.0818,5.9575,5.6059,5.377,5.3063,5.1801,5.0424,4.9117,4.8783,4.7978,0.0,0.0,0.0,0.0,0.0,0.0,0.0,0.0,0.0,0.0,0.0,4.3526,4.3726,0.0,0.0,0.0,4.398,4.4419,4.4967,4.495,0.0,0.0,0.0,0.0,0.0,0.0,0.0,4.7406,4.8267,4.9538,5.1533,5.1934,5.2067,5.2207,5.305,5.3857,5.4454,0.0,5.642,5.779,5.8808,5.9475,5.9615,6.0375,6.1049,6.1119,6.1912,6.2146,6.1402,6.124,6.1317,6.1434,6.1417,6.1567,6.2215,5.9858,5.8027,5.7935,5.8807,5.9633,5.9873,6.0678,6.1498,6.4766,6.2928,5.7024,5.4585,5.4645,5.472,5.4652,5.45,5.4574,5.528,5.636,5.487,5.46,5.5134,5.3225,0.0,5.2169,5.2244,5.3418,5.5429,5.6283,5.7881,5.9998,6.0795,6.1204,6.115,5.9641,5.8863,5.8698,5.7286,5.658,5.6357,5.1936,5.0042,5.0859,5.3014,5.4946,5.6692,5.8916,6.0853,6.2383,6.0848,5.9854,5.9456,5.6571,5.4626,5.379,5.1943,5.0298,4.918,4.8684,4.7882,4.6669,0.0,0.0,0.0,0.0,0.0,0.0,0.0,0.0,0.0,0.0,0.0,0.0,0.0,0.0,4.4002,4.4348,0.0,4.4721,4.4714,0.0,0.0,0.0,4.5852,4.6906,4.7109,4.7856,4.9657,0.0,0.0,5.3101,5.4629,5.5332,5.4595,5.4524,5.5086,5.649,5.6806,5.7684,5.9791,6.0282,6.0879,6.2038,6.2357,6.2405,6.2432,6.3274,6.3227,6.2392,6.2542,6.2848,6.2547,6.2908,6.3239,6.2775,6.2769,6.293,6.2588,6.3196,6.3676,6.3291,6.3885,6.4468,6.7868,6.7831,6.5121,6.1917,5.8635,5.9268,5.9859,6.0407,6.1001,6.011,5.8103,5.7705,5.6317,5.4174,5.3646,5.4093,5.5247,5.5843,5.7069,5.8735,5.9627,6.037,6.089,6.1119,6.1193,6.1187,6.0789,6.027,5.9627,5.9255,5.8735,5.8103,5.6952,5.6172,5.58,5.624,5.7608,5.9869,6.0966,6.1994,6.2919,6.1997,6.054,5.8592,5.793,5.5886,5.2377,5.2748,5.19,4.9469,4.9537,4.9012,4.7488,4.7411,0.0,0.0,0.0,0.0,0.0,0.0,0.0,0.0,0.0,4.398,4.4307,0.0,4.506,0.0,4.4723,4.523,4.5894,4.6175,0.0,0.0,4.7793,4.8402,4.8988,4.952,5.0346,5.1363,5.2164,5.3028,5.3882,5.5389,5.628,5.6069,5.6596,5.7122,5.7509,5.8562,5.965,6.0844,6.1932,6.288,6.3231,6.3415,6.3159,6.2266,6.2798,6.3168,6.3033,6.313,6.3344,6.379,6.3968,6.4167,6.4057,6.4597,6.4831,6.4629,6.4557,6.4488,6.4926,6.5615,6.6112,7.04,7.0698,6.9434,6.7131,6.427,6.4048,6.3973,6.4085,6.4531,6.349,6.1336,6.0295,5.8597,5.6551,5.6529,5.7026,5.7918,5.8364,5.9292,6.0481,6.1001,6.1596,6.2264,6.2264,6.2264,6.2264,6.225,6.2027,6.1596,6.1558,6.1336,6.089,6.089,6.0624,6.0098,5.9393,5.9684,6.0974,6.2059,6.2825,6.311,6.1382,5.9894,5.8759,5.6879,5.4878,5.2666,5.2161,5.1419,5.0353,4.9986,4.9373,4.8486,4.8078,4.7272,0.0,0.0,0.0,0.0,0.0,0.0,0.0,0.0,0.0,0.0,0.0,4.5301,4.5315,4.5822,4.6436,4.7096,4.7772,4.8338,4.8749,4.9493,5.0169,5.0681,5.1119,5.179,5.2927,5.345,5.394,5.4758,5.6185,5.6982,5.6666,5.786,5.8702,5.8527,5.965,6.0914,6.1687,6.2494,6.3231,6.355,6.3729,6.3549,6.3087,6.3247,6.3533,6.3378,6.3363,6.3606,6.3913,6.4153,6.4162,6.412,6.4556,6.4964,6.4957,6.4966,6.5258,6.589,6.6333,6.6586,7.2458,7.2458,7.1589,7.0698,6.9769,6.8357,6.7243,6.6425,6.6425,6.5942,6.4967,6.2673,6.1322,6.07,6.0469,6.0481,6.0704,6.0481,6.089,6.1819,6.1819,6.2599,6.3899,6.3788,6.375,6.3788,6.375,6.3713,6.3602,6.3825,6.3862,6.3788,6.3705,6.3622,6.3345,6.2101,6.1352,6.1254,6.254,6.3073,6.2962,6.0316,5.8891,5.8794,5.5266,5.3261,5.3204,5.0895,4.9977,5.0769,4.9767,4.9101,4.9045,4.8383,4.7531,0.0,4.6374,0.0,0.0,0.0,0.0,0.0,0.0,0.0,0.0,4.4951,4.5527,4.6709,4.7222,4.7738,4.8235,4.9129,4.975,4.9995,5.0697,5.147,5.2207,5.2383,5.2966,5.431,5.4442,5.4735,5.5437,5.6842,5.7509,5.7087,5.8632,5.9721,5.9405,6.0458,6.1652,6.2319,6.2494,6.2848,6.317,6.3551,6.3844,6.3869,6.3902,6.3986,6.3657,6.3617,6.3621,6.3785,6.3975,6.3919,6.3432,6.3994,6.453,6.4717,6.523,6.589,6.6396,6.6554,6.6586,7.3573,7.4071,7.3275,7.2072,7.066,7.0363,6.9397,6.806,6.806,6.7603,6.6701,6.4893,6.4427,6.477,6.3498,6.3639,6.4828,6.3527,6.3713,6.5199,6.5162,6.5348,6.5608,6.4874,6.4576,6.4605,6.4559,6.4225,6.3639,6.4976,6.5274,6.4605,6.4476,6.4049,6.3242,0.0,0.0,0.0,6.2118,6.1934,6.1863,6.0846,5.9095,5.677,5.6021,0.0,5.059,4.9791,4.9019,4.8222,4.7825,0.0,0.0,0.0,0.0,0.0,0.0,0.0,0.0,0.0,0.0,0.0,4.8447,4.7865,4.6514,4.7272,4.808,4.8624,4.8467,4.8607,4.9344,4.9609,5.0206,5.1435,5.2277,5.305,5.3787,5.4419,5.4981,5.525,5.5262,5.5332,5.5613,5.6842,5.7719,5.7684,5.9018,5.9966,5.9931,6.116,6.2178,6.2389,6.281,6.2918,6.2121,6.309,6.3631,6.3415,6.3382,6.3843,6.463,6.4087,6.385,6.4309,6.4598,6.4574,6.4114,6.4996,6.5708,6.5387,6.5901,6.6459,6.6586,6.6586,6.6586,7.4205,7.4517,7.3759,7.2666,0.0,7.1552,7.0846,6.9657,6.884,6.7814,6.6642,6.5821,6.545,6.5413,6.4559,6.4679,6.5422,6.4605,6.4642,6.5459,6.5496,6.5682,6.6091,6.5645,6.5422,6.5459,6.545,6.5227,6.4902,6.5588,6.5737,6.5282,6.5197,6.4916,6.4353,6.4304,6.3849,6.3039,6.2535,6.2169,6.1843,6.0408,5.8959,5.7352,5.5284,0.0,0.0,0.0,0.0,0.0,0.0,0.0,0.0,4.8686,0.0,4.7397,4.7397,4.7597,4.7974,4.8021,4.8283,4.882,4.921,4.8962,4.7745,4.8166,4.8644,4.8855,4.9346,4.9855,5.0241,5.1294,5.2277,5.3085,5.3857,5.4489,5.4875,5.5262,5.5507,5.5507,5.5507,5.5589,5.6019,5.7026,5.793,5.8386,5.9369,6.0247,6.0668,6.1336,6.1862,6.1862,6.1841,6.1879,6.1599,6.1899,6.2662,6.2838,6.3484,6.4001,6.4374,6.4112,6.3784,6.402,6.4159,6.4156,6.4058,6.4975,6.5948,6.5712,6.6091,6.6586,6.6586,6.6586,6.6586,7.48,7.4755,7.3945,7.3038,7.2184,7.2184,7.1701,7.0846,6.9509,0.0,0.0,6.6935,6.6505,6.5878,6.5588,6.5534,6.5645,6.5385,6.5348,6.5459,6.5459,6.5831,6.65,6.6378,6.6304,6.6314,6.6304,6.6229,6.6128,6.6171,6.616,6.6049,6.6001,6.5817,6.5455,6.5353,6.4742,6.3615,6.3283,6.2842,6.2023,6.0125,5.8804,5.8245,5.4695,5.2493,5.1794,4.943,4.8474,4.9151,4.8714,4.8679,4.9443,4.9649,4.9325,4.8417,4.8452,4.8574,4.8731,4.8766,4.8837,4.8942,4.9644,4.9679,4.8766,4.8942,4.9083,4.892,5.0414,5.1294,5.1329,5.3085,5.4384,5.4524,5.5121,5.5507,5.5507,5.5507,5.5507,5.5507,5.5507,5.5694,5.6274,5.7202,5.8035,5.8702,5.951,6.0282,6.0949,6.1195,6.1371,6.1371,6.1177,6.0837,6.1113,6.1452,6.1637,6.2662,6.3367,6.3738,6.3711,6.3492,6.332,6.3324,6.3444,6.3647,6.3594,6.4776,6.5628,6.5607,6.6091,6.6586,6.6586,6.6586,6.6586,7.5633,7.5552,7.4725,7.3558,7.2184,7.2184,7.1701,7.092,7.066,7.045,7.0213,7.0264,7.0127,6.9979,6.8568,6.8357,6.8914,6.7577,6.7317,6.7986,6.7986,6.806,6.8134,6.7465,6.7168,6.7131,6.7168,6.6797,6.6314,6.7455,6.774,6.7012,6.6803,6.627,6.5426,6.5301,6.5191,6.4985,6.4301,6.3277,6.1987,6.1078,5.9359,5.6902,5.5702,5.3839,5.1302,5.0276,4.9114,4.8052,4.7872,4.7962,4.8286,4.8411,4.8411,4.8483,4.8483,4.8818,4.9504,4.9539,4.982,5.0522,5.1259,5.1103,4.9696,5.0751,5.1294,5.0714,5.1961,5.2874,5.2944,5.3752,5.463,5.5227,5.5437,5.5507,5.5507,5.5507,5.5507,5.5507,5.5507,5.5578,5.5904,5.7017,5.7895,5.8211,5.9334,6.0142,6.0388,6.0879,6.1265,6.13,6.1235,6.12,6.1278,6.205,6.2259,6.2745,6.2266,6.2497,6.3269,6.2631,6.2265,6.3004,6.3662,6.3956,6.372,6.5082,6.5944,6.5764,6.6228,6.6586,6.6586,6.6586,6.6586,7.5527,7.506,7.4264,7.3521,7.2815,7.2815,7.2629,7.2258,7.2258,7.1478,7.0252,7.0252,7.0226,7.0124,6.9051,6.8951,6.9657,6.8468,6.8171,6.8506,6.8543,6.8543,6.8506,6.8134,6.7986,6.7948,6.7948,6.7763,6.754,6.8025,6.8037,6.7654,6.7451,6.7332,6.7353,6.73,6.7085,6.6644,6.5034,6.3673,6.2651,6.1541,5.9974,5.7886,5.6833,5.546,5.3632,5.2459,5.1701,5.1425,5.0161,4.9756,5.0263,4.9617,4.9292,4.9403,4.9472,4.9687,5.0095,5.048,5.0809,5.1249,5.1926,5.2109,5.1489,5.2157,5.2446,5.2056,5.3077,5.3795,5.3707,5.4431,5.5086,5.5472,5.5507,5.5507,5.5507,5.5507,5.5507,5.5507,5.5507,5.5823,5.6666,5.7368,5.8211,5.8878,5.9756,6.0072,6.0072,6.0388,6.0633,6.0569,6.0175,6.0147,6.0632,6.0455,6.0628,6.1144,6.1513,6.1792,6.2307,6.1944,6.2365,6.268,6.3399,6.3963,6.3917,6.506,6.5817,6.6291,6.6322,6.6586,6.6586,6.6586,6.6586,7.5601,7.4821,7.4004,7.3558,7.3372,7.3372,7.3372,7.3372,7.3372,7.2206,7.0448,7.0424,7.0522,7.0457,6.9719,6.9583,6.9843,6.9323,6.8951,6.8803,6.8766,6.8803,6.8803,6.8766,6.8766,6.8803,6.8951,6.9014,6.8927,6.8777,6.8624,6.8572,6.8345,6.8622,6.9319,6.9026,6.864,6.8,6.5731,6.4137,6.3369,6.2013,6.0705,5.9288,5.7978,5.6771,5.5667,5.4667,5.4184,5.4149,5.2587,5.1894,5.2405,5.1228,5.0439,5.048,5.0597,5.0702,5.0954,5.1476,5.179,5.179,5.2521,5.3021,5.3112,5.3401,5.3404,5.3082,5.3871,5.4384,5.415,5.4839,5.5389,5.5389,5.5413,5.5448,5.5448,5.5448,5.5472,5.5472,5.5448,5.5974,5.7132,5.7658,5.8324,5.9685,6.0072,6.0072,6.0072,6.0107,6.0043,6.0124,5.9527,5.9357,6.0082,5.9625,5.9525,6.0237,6.0935,6.1433,6.162,6.2395,6.265,6.2513,6.3015,6.3584,6.4254,6.4974,6.5701,6.6133,6.6385,6.6586,6.6586,6.6586,6.6586,7.6489,7.5612,7.48,7.4041,7.3484,7.341,7.341,7.341,7.3372,7.2875,7.2006,7.2778,7.2941,7.2968,7.2086,7.1366,7.0809,7.0735,7.0289,6.9657,6.962,6.962,6.9583,6.962,6.9583,6.9669,7.0252,7.0448,7.0346,7.0383,7.0302,7.0126,6.9908,6.9889,6.9926,6.9302,6.888,6.8733,6.662,6.4828,6.3506,6.2614,6.15,6.0116,5.9254,5.7805,5.5874,5.6184,5.5563,5.3736,5.3383,5.3255,5.3358,5.2033,5.1292,5.1373,5.1381,5.1726,5.2392,5.2555,5.2532,5.266,5.3227,5.3669,5.3742,5.4349,5.4266,5.3498,5.4313,5.4644,5.4017,5.46,5.5053,5.5113,5.5174,5.5199,5.5259,5.5354,5.5472,5.5238,5.5319,5.5584,5.6528,5.7262,5.8367,5.9896,6.0072,6.0072,6.0107,6.0048,6.0294,6.0819,6.0595,6.0117,6.0041,6.0265,6.0378,6.0886,6.0902,6.1213,6.1845,6.1918,6.1656,6.2513,6.3015,6.3558,6.3943,6.464,6.5638,6.6007,6.6291,6.6586,6.6586,6.6586,6.6586,7.6287,7.5128,7.5246,7.5118,7.4784,7.4301,7.4115,7.4078,7.3595,7.3224,7.2949,7.3261,7.3112,7.2643,7.1812,7.1478,7.1626,7.1143,7.0735,7.0437,7.0437,7.04,7.0437,7.0437,7.04,7.0289,7.0634,7.0702,7.0618,7.0491,7.0347,7.0184,7.0165,7.033,7.0734,7.0513,6.9921,6.8995,6.7715,6.6128,6.4253,6.2986,6.2186,6.1496,6.0358,5.9116,5.7805,5.7564,5.6805,5.5529,5.4977,5.4765,5.4787,5.3766,5.3028,5.2691,5.2175,5.208,5.2399,5.2848,5.3125,5.3125,5.3783,5.4295,5.4356,5.4695,5.4634,5.424,5.4717,5.4849,5.446,5.4757,5.4992,5.4992,5.5053,5.5113,5.5079,5.5174,5.5199,5.5214,5.5609,5.6012,5.6613,5.7653,5.8794,5.9832,6.0043,5.9978,6.0078,6.0329,6.0683,6.1169,6.1431,6.1392,6.0887,6.0203,6.0406,6.0705,6.067,6.0927,6.1663,6.2172,6.213,6.2414,6.2983,6.3626,6.4116,6.4799,6.5701,6.6007,6.6291,6.6586,6.6586,6.6586,6.6586,7.6436,7.5432,7.5639,7.5787,7.575,7.5193,7.4784,7.4524,7.3967,7.3595,7.3372,7.3372,7.3112,7.2503,7.1886,7.1849,7.2072,7.1775,7.1441,7.1292,7.1255,7.1255,7.1255,7.1204,7.113,7.1056,7.1235,7.1246,7.1103,7.0974,7.0882,7.0734,7.077,7.1064,7.1541,7.1468,7.0683,6.9419,6.8523,6.7065,6.5053,6.3703,6.2906,6.2427,6.1185,6.0151,5.9392,5.8633,5.7874,5.7116,5.615,5.5606,5.5549,5.4707,5.3929,5.3445,5.29,5.2632,5.2839,5.3391,5.3701,5.3736,5.4218,5.4563,5.4695,5.473,5.473,5.473,5.4799,5.4828,5.4752,5.4807,5.4938,5.5112,5.5181,5.5243,5.5278,5.5243,5.5262,5.5199,5.5733,5.6516,5.7086,5.8223,5.9424,5.9809,6.0089,6.0194,6.0399,6.0893,6.1453,6.1765,6.2266,6.2075,6.151,6.0939,6.0482,6.0623,6.0799,6.1218,6.1692,6.2228,6.2414,6.2477,6.2951,6.3558,6.4202,6.495,6.5669,6.6301,6.6586,6.6586,6.6586,6.6586,6.6586,7.7087,7.6884,7.6159,7.5861,7.5824,7.5713,7.5304,7.4673,7.4487,7.4078,7.341,7.341,7.3372,7.3298,7.3187,7.2852,7.2369,7.2927,7.2815,7.2184,7.2184,7.2146,7.2146,7.1917,7.1895,7.1835,7.2405,7.2632,7.2483,7.2369,7.2386,7.2349,7.2275,7.2349,7.2312,7.1668,7.0914,7.0025,6.8714,6.7234,6.579,6.4966,6.3885,6.2668,6.1703,6.0909,6.0151,5.9357,5.8599,5.7874,5.6495,5.5713,5.5485,5.4326,5.3601,5.345,5.3397,5.3632,5.4218,5.4356,5.4425,5.446,5.4563,5.4563,5.4632,5.4632,5.4598,5.4529,5.4529,5.4529,5.4529,5.4557,5.4868,5.5455,5.5721,5.5785,5.5785,5.5911,5.5653,5.5235,5.5668,5.668,5.7898,5.8959,5.9408,5.9788,6.0377,6.0862,6.0998,6.1562,6.2331,6.2855,6.2892,6.2393,6.0964,6.105,6.1435,6.1342,6.1559,6.2045,6.2491,6.2808,6.2513,6.2477,6.2699,6.3236,6.4121,6.4848,6.548,6.6048,6.6491,6.6586,6.6586,6.6586,6.6586,7.7868,7.783,7.6976,7.6902,7.7236,7.627,7.5601,7.5267,7.4227,7.367,7.3521,7.3907,7.387,7.341,7.3945,7.3722,7.3075,7.3781,7.3707,7.3149,7.4004,7.3914,7.2918,7.3236,7.3108,7.2519,7.2669,7.2723,7.261,7.2496,7.2532,7.2532,7.2532,7.2532,7.2365,7.1756,7.098,7.0113,6.879,6.7575,6.6415,6.5302,6.4403,6.3876,6.2703,6.1703,6.0909,5.9737,5.8702,5.7943,5.7357,5.684,5.6353,5.5361,5.481,5.4799,5.4356,5.4218,5.446,5.4494,5.4736,5.515,5.5219,5.5248,5.5208,5.5173,5.5035,5.4632,5.4529,5.4494,5.4494,5.4494,5.4805,5.546,5.5697,5.5766,5.58,5.6176,5.6304,5.5785,5.6249,5.7426,5.8487,5.8938,5.9108,5.9652,6.0346,6.0901,6.1278,6.2051,6.2892,6.324,6.3379,6.3142,6.1877,6.1883,6.2108,6.1898,6.2002,6.2045,6.2358,6.258,6.2446,6.2635,6.273,6.3331,6.4444,6.5385,6.589,6.6175,6.6586,6.6586,6.6586,6.6586,6.6586,7.8276,7.8202,7.7719,7.7756,7.8128,7.7087,7.6456,7.6121,7.5044,7.4413,7.4264,7.4502,7.4279,7.3892,7.4354,7.4316,7.3818,7.4115,7.4041,7.3892,7.4879,7.4863,7.4199,7.4423,7.4219,7.3554,7.346,7.3324,7.3303,7.3266,7.3303,7.3303,7.3046,7.2746,7.2436,7.1755,7.0905,6.9911,6.8929,6.801,6.6945,6.6014,6.5331,6.4945,6.3841,6.2841,6.2048,6.0599,5.9599,5.9012,5.853,5.804,5.7492,5.6293,5.5854,5.6136,5.5144,5.477,5.515,5.5012,5.5219,5.5908,5.6012,5.6008,5.5968,5.5756,5.545,5.5283,5.4982,5.4948,5.5219,5.5288,5.546,5.5943,5.6219,5.6357,5.6391,5.684,5.694,5.6764,5.7084,5.8048,5.9078,5.9183,5.9492,5.9966,6.0837,6.1532,6.1911,6.2717,6.3519,6.3833,6.4106,6.4071,6.3497,6.3399,6.2454,6.2026,6.2482,6.246,6.2193,6.2351,6.2572,6.2762,6.3236,6.3937,6.4792,6.5796,6.6301,6.6554,6.6586,6.6586,6.6586,6.6586,6.6586,7.8276,7.8276,7.8276,7.8239,7.8276,7.8016,7.7682,7.7013,7.6827,7.6159,7.5453,7.5044,7.4784,7.4635,7.4821,7.471,7.4524,7.4041,7.4078,7.4598,7.4789,7.5051,7.5384,7.5215,7.5105,7.4866,7.4896,7.4808,7.4698,7.4661,7.4698,7.4661,7.4001,7.33,7.2608,7.1829,7.0721,6.9547,6.9136,6.843,6.7221,6.6848,6.6445,6.5911,6.5048,6.4289,6.36,6.2082,6.1185,6.1013,5.984,5.9042,5.8701,5.7057,5.6413,5.7278,5.587,5.5495,5.6529,5.6184,5.6219,5.6909,5.6943,5.7047,5.7078,5.6452,5.6245,5.6633,5.6228,5.6022,5.6601,5.6771,5.6771,5.684,5.7288,5.7598,5.7736,5.784,5.7874,5.784,5.7946,5.8187,5.9012,5.9702,6.022,6.0704,6.1779,6.2684,6.2788,6.3519,6.4352,6.4763,6.4893,6.4904,6.4971,6.4855,6.3317,6.2267,6.2906,6.3196,6.2516,6.2446,6.2762,6.3015,6.3773,6.4475,6.5109,6.5985,6.6396,6.6586,6.6586,6.6586,6.6586,6.6586,6.6586,7.8276,7.8276,7.8276,7.8276,7.8202,7.7719,7.731,7.7013,7.6493,7.6047,7.5861,7.6175,7.5989,7.5639,7.6027,7.5989,7.5416,7.5156,7.5193,7.5601,7.6366,7.6347,7.5773,7.5974,7.5806,7.5232,7.5,7.4918,7.4955,7.4955,7.4918,7.4845,7.4661,7.3824,7.2653,7.2341,7.1366,6.9489,6.9238,6.8767,6.7842,6.7271,6.6892,6.6635,6.5911,6.5393,6.5083,6.322,6.2186,6.2117,6.1151,6.0359,5.97,5.8634,5.8152,5.8495,5.8047,5.7736,5.8185,5.8116,5.8219,5.8909,5.9116,5.915,5.915,5.8838,5.8528,5.8393,5.8118,5.7947,5.7704,5.8047,5.8081,5.7598,5.7771,5.7943,5.7978,5.7943,5.8116,5.8564,5.8634,5.9013,5.9633,6.0289,6.0704,6.1259,6.2196,6.2891,6.3135,6.3933,6.4728,6.5001,6.5302,6.5662,6.5801,6.5561,6.4453,6.3214,6.3258,6.326,6.271,6.2509,6.2825,6.352,6.4247,6.4942,6.5574,6.6017,6.6428,6.6586,6.6586,6.6586,6.6586,6.6586,6.6586,7.8276,7.8276,7.8276,7.8276,7.8239,7.7719,7.7533,7.7459,7.6976,7.6716,7.6827,7.6993,7.6844,7.6456,7.6882,7.6807,7.6344,7.6567,7.6716,7.6753,7.7144,7.7088,7.6533,7.6749,7.6707,7.6184,7.5896,7.5799,7.5799,7.5799,7.5799,7.5739,7.5226,7.417,7.2731,7.2299,7.1087,6.92,6.9122,6.8898,6.8152,6.766,6.7419,6.7325,6.6669,6.6324,6.6152,6.4634,6.36,6.322,6.232,6.1668,6.1325,6.0237,5.9643,6.0078,5.9495,5.9185,5.9702,5.9564,5.9771,6.0427,6.0599,6.0563,6.0563,6.0392,6.0012,5.9974,5.9282,5.901,5.8875,5.9116,5.9185,5.8806,5.8495,5.8357,5.8357,5.8599,5.8943,5.9392,5.9702,6.0117,6.0427,6.1008,6.1321,6.202,6.2645,6.313,6.3481,6.3927,6.4512,6.5095,6.5572,6.5989,6.6485,6.6185,6.5612,6.4548,6.3703,6.326,6.2612,6.2477,6.2699,6.3963,6.4879,6.5606,6.6207,6.6333,6.6586,6.6586,6.6586,6.6586,6.6586,6.6586,6.6586,7.8276,7.8276,7.8276,7.8276,7.8276,7.8239,7.8202,7.8239,7.8202,7.8128,7.8053,7.7515,7.7218,7.7199,7.7255,7.7218,7.7273,7.7756,7.8016,7.7868,7.7571,7.7273,7.7661,7.7562,7.7422,7.74,7.7218,7.7194,7.7047,7.7047,7.7341,7.6986,7.5762,7.4276,7.3046,7.2074,7.0706,6.8808,6.906,6.9036,6.8152,6.8049,6.8049,6.8014,6.7394,6.7049,6.6911,6.6152,6.5393,6.4634,6.3353,6.294,6.3043,6.1508,6.116,6.2174,6.0425,6.0427,6.0978,6.0944,6.084,6.1461,6.1565,6.139,6.1456,6.1146,6.1008,6.1318,6.0316,5.9698,6.0184,6.0254,6.022,6.0151,5.9633,5.9288,5.9254,5.9771,6.0116,6.0359,6.0843,6.1294,6.1291,6.2044,6.2461,6.2813,6.33,6.3577,6.382,6.4092,6.4571,6.5186,6.5945,6.6661,6.7273,6.6622,6.6085,6.5901,6.4708,6.3548,6.2932,6.2861,6.3173,6.4437,6.5416,6.6143,6.6554,6.6586,6.6586,6.6586,6.6586,6.6586,6.6586,6.6586,6.6586,7.8276,7.8276,7.8276,7.8276,7.8276,7.8276,7.8276,7.8276,7.8276,7.8276,7.8239,7.809,7.7942,7.7979,7.7979,7.8016,7.8016,7.8165,7.8276,7.8276,7.809,7.7849,7.7863,7.7783,7.7703,7.7584,7.7402,7.7341,7.7341,7.7341,7.7341,7.7243,7.6316,7.5105,7.369,7.3235,7.1717,6.952,6.9692,6.944,6.829,6.8083,6.8083,6.8049,6.7876,6.7773,6.7738,6.7083,6.6048,6.4807,6.4364,6.3915,6.36,6.2935,6.2724,6.2975,6.2733,6.2461,6.2772,6.2772,6.2772,6.2944,6.2944,6.2979,6.3013,6.2802,6.2768,6.2875,6.2117,6.1599,6.1737,6.1392,6.1116,6.1013,6.0978,6.0771,6.0634,6.0875,6.1013,6.1049,6.1258,6.1636,6.2079,6.2419,6.2798,6.3259,6.3501,6.3673,6.3811,6.4537,6.5117,6.5876,6.6635,6.7394,6.7708,6.7059,6.6762,6.6997,6.5846,6.4207,6.3741,6.3494,6.4152,6.5227,6.5796,6.6491,6.6586,6.6586,6.6586,6.6586,6.6586,6.6586,6.6586,6.6586,6.6586,7.8276,7.8276,7.8276,7.8276,7.8276,7.8276,7.8276,7.8276,7.8276,7.8276,7.8276,7.8276,7.8276,7.8276,7.8276,7.8276,7.8276,7.8276,7.8276,7.8276,7.8276,7.8165,7.8051,7.79,7.7762,7.7643,7.7402,7.7341,7.7341,7.7341,7.7341,7.7082,7.627,7.5046,7.394,7.3456,7.2163,7.0256,7.0187,6.9739,6.868,6.83,6.8083,6.8083,6.8083,6.8083,6.8014,6.7669,6.6738,6.5538,6.4887,6.4512,6.4053,6.3703,6.36,6.36,6.36,6.3669,6.4014,6.4083,6.422,6.4393,6.4324,6.4289,6.4358,6.4329,6.4088,6.4427,6.388,6.3462,6.3324,6.2979,6.2944,6.3289,6.322,6.2703,6.153,6.1599,6.1809,6.1878,6.2119,6.2427,6.2901,6.2935,6.3181,6.3462,6.3531,6.36,6.3703,6.4772,6.5669,6.6255,6.6876,6.7497,6.8152,6.7809,6.7248,6.7404,6.709,6.5292,6.4642,6.4366,6.4753,6.5574,6.6207,6.6586,6.6586,6.6586,6.6586,6.6586,6.6586,6.6586,6.6586,6.6586,6.6586,7.8276,7.8276,7.8276,7.8276,7.8276,7.8276,7.8276,7.8276,7.8276,7.8276,7.8276,7.8276,7.8276,7.8276,7.8276,7.8276,7.8276,7.8276,7.8276,7.8276,7.8221,7.8221,7.8165,7.79,7.7762,7.7666,7.7389,7.7121,7.7047,7.7121,7.7157,7.6773,7.5682,7.4834,7.4041,7.3238,7.1926,7.0843,7.0554,7.0234,6.9381,6.8749,6.8463,6.8646,6.8394,6.8256,6.8152,6.7945,6.7428,6.6186,6.5371,6.5066,6.4858,6.4196,6.3945,6.3979,6.4083,6.4289,6.4669,6.4841,6.5083,6.5462,6.5117,6.5117,6.5428,6.5124,6.5095,6.5531,6.5138,6.4621,6.4531,6.46,6.4876,6.5221,6.56,6.4427,6.2737,6.2393,6.2845,6.2816,6.347,6.3639,6.3669,6.3634,6.36,6.3565,6.3738,6.3979,6.4289,6.5117,6.5807,6.6221,6.6842,6.7497,6.8118,6.859,6.8049,6.7774,6.7681,6.6719,6.5994,6.567,6.5536,6.589,6.6365,6.6586,6.6586,6.6586,6.6617,6.6586,6.6586,6.6586,6.6586,6.6586,6.6586,7.8276,7.8276,7.8276,7.8276,7.8276,7.8276,7.8276,7.8276,7.8276,7.8276,7.8276,7.8276,7.8276,7.8276,7.8276,7.8276,7.8276,7.8276,7.8221,7.8071,7.8071,7.8071,7.8014,7.7805,7.7629,7.7303,7.6704,7.6387,7.6387,7.635,7.635,7.6141,7.543,7.4903,7.4467,7.3263,7.2242,7.14,7.1263,7.089,7.0198,6.944,6.9256,6.9647,6.9302,6.867,6.8187,6.8083,6.7911,6.7532,6.6867,6.6194,6.5729,6.5441,6.5255,6.5255,6.529,6.5393,6.56,6.5635,6.5704,6.5911,6.5842,6.5704,6.5807,6.5814,6.5745,6.5765,6.5147,6.4941,6.5007,6.5359,6.5773,6.6014,6.6014,6.5738,6.5083,6.4945,6.4957,6.4932,6.4689,6.4512,6.4403,6.395,6.3772,6.3703,6.3979,6.4393,6.4945,6.5566,6.6048,6.6497,6.7152,6.7807,6.8221,6.8877,6.9026,6.8705,6.8627,6.8486,6.764,6.6679,6.6593,6.6425,6.6491,6.6617,6.6818,6.6617,6.6617,6.6617,6.6617,6.6586,6.6586,6.6586,6.6744,7.8276,7.8276,7.8276,7.8276,7.8276,7.8276,7.8276,7.8276,7.8276,7.8276,7.8276,7.8276,7.8276,7.8276,7.8276,7.8276,7.8276,7.8276,7.8221,7.8071,7.8071,7.8014,7.7731,7.7414,7.7113,7.6898,7.641,7.5946,7.5652,7.5482,7.5324,7.5014,7.4647,7.415,7.3991,7.3136,7.2582,7.2104,7.171,7.1325,7.0845,7.0234,6.9899,7.0199,6.9785,6.9153,6.9222,6.8428,6.8394,6.8394,6.7901,6.7143,6.647,6.6075,6.5886,6.5852,6.5868,6.6117,6.6255,6.6428,6.6566,6.6876,6.66,6.6669,6.6746,6.6677,6.6643,6.6773,6.6652,6.6333,6.6359,6.66,6.6876,6.6911,6.6911,6.6911,6.6807,6.6324,6.5918,6.5827,6.5441,6.5337,6.502,6.4571,6.4531,6.4703,6.4393,6.4772,6.5462,6.6048,6.6497,6.7014,6.7601,6.8118,6.8428,6.9015,6.9842,6.9913,7.0085,7.003,6.9587,6.8466,6.7415,6.7196,6.6933,6.7187,6.725,6.7018,6.6775,6.6965,6.6997,6.6775,6.6617,6.6786,6.6902,7.8276,7.8276,7.8276,7.8276,7.8276,7.8276,7.8276,7.8276,7.8276,7.8276,7.8276,7.8276,7.8276,7.8276,7.8276,7.8276,7.8276,7.8276,7.8221,7.8071,7.8127,7.8051,7.7636,7.7097,7.6655,7.6544,7.5868,7.5285,7.5212,7.4785,7.4507,7.3913,7.3649,7.3399,7.2894,7.2545,7.2498,7.2498,7.2104,7.1794,7.1594,7.0981,7.0554,7.0256,7.0153,6.9911,6.9911,6.9291,6.8842,6.9325,6.867,6.8083,6.7477,6.6701,6.6244,6.6279,6.6548,6.6876,6.7221,6.7463,6.7842,6.8187,6.7738,6.7566,6.7738,6.7722,6.7688,6.7782,6.7763,6.7729,6.8049,6.7876,6.7911,6.798,6.8014,6.8083,6.7876,6.6945,6.6497,6.6324,6.6263,6.609,6.5773,6.5462,6.56,6.5635,6.529,6.5255,6.5979,6.6635,6.7152,6.7359,6.792,6.8404,6.8749,7.0084,7.0774,7.0815,7.1199,7.109,7.1096,7.0489,6.9277,6.777,6.7413,6.7732,6.7715,6.7229,6.7186,6.7407,6.7399,6.7228,6.7028,6.6955,6.7367,7.8276,7.8276,7.8276,7.8276,7.8276,7.8276,7.8276,7.8276,7.8276,7.8276,7.8276,7.8276,7.8276,7.8276,7.8276,7.8276,7.8276,7.8276,7.8221,7.8071,7.8071,7.7957,7.7752,7.6781,7.6523,7.608,7.5169,7.4661,7.5139,7.4602,7.3861,7.3631,7.3147,7.276,7.2388,7.2128,7.2084,7.2567,7.2429,7.2257,7.2153,7.1705,7.1118,7.0705,7.0774,7.0808,7.0498,7.0222,7.0084,7.0118,6.952,6.9392,6.9253,6.8404,6.7866,6.7866,6.8108,6.8221,6.8187,6.9015,6.898,6.8601,6.8532,6.8463,6.8438,6.8552,6.8552,6.8266,6.8221,6.8187,6.8083,6.8187,6.8118,6.8118,6.8083,6.8083,6.8014,6.7773,6.7497,6.7428,6.7118,6.6807,6.66,6.6324,6.6186,6.6436,6.647,6.6539,6.7134,6.761,6.8059,6.8128,6.8093,6.8621,6.9115,7.0821,7.1981,7.1587,7.1781,7.1764,7.1848,7.2176,7.1266,6.9673,6.8723,6.8672,6.8388,6.7896,6.8012,6.8511,6.8179,6.7676,6.7996,6.8316,6.8425,7.8276,7.8276,7.8276,7.8276,7.8276,7.8276,7.8276,7.8276,7.8276,7.8276,7.8276,7.8276,7.8276,7.8276,7.8276,7.8276,7.8276,7.8276,7.8221,7.8071,7.8071,7.8014,7.7772,7.6618,7.6692,7.6228,7.4742,7.3817,7.4698,7.4111,7.313,7.2155,7.1973,7.1903,7.1551,7.1157,7.1601,7.2291,7.2326,7.2291,7.2636,7.2222,7.1877,7.1739,7.1498,7.1498,7.1498,7.0636,7.0601,7.0705,7.0269,7.0153,7.0129,6.982,6.9267,6.9325,6.9371,6.9405,6.9153,6.9773,6.9325,6.898,6.9428,6.9428,6.9129,6.9323,6.9426,6.9036,6.9084,6.8911,6.8221,6.8463,6.8497,6.8187,6.8083,6.8083,6.8083,6.8197,6.831,6.83,6.7955,6.7566,6.7419,6.7187,6.6842,6.7057,6.7437,6.786,6.825,6.8734,6.9184,6.9129,6.9129,6.9554,6.9969,7.1214,7.2513,7.2326,7.2291,7.2364,7.2536,7.274,7.2433,7.1445,7.0752,7.0338,6.9728,6.9446,6.96,6.9583,6.9198,6.8941,6.9382,6.9743,6.9825,7.8276,7.8276,7.8276,7.8276,7.8276,7.8276,7.8276,7.8276,7.8276,7.8276,7.8276,7.8276,7.8276,7.8276,7.8276,7.8276,7.8276,7.8276,7.8221,7.8127,7.8221,7.8165,7.7587,7.6622,7.6178,7.6749,7.4732,7.3413,7.4353,7.3707,7.2398,7.1734,7.1511,7.112,7.059,7.058,7.1317,7.1601,7.1877,7.1912,7.2498,7.2671,7.2671,7.2671,7.205,7.205,7.2291,7.1601,7.1325,7.1394,7.1084,7.0717,7.0811,7.0678,7.0732,7.0739,7.0096,7.0096,7.013,7.0429,7.0187,6.9601,7.0222,7.0084,6.9854,6.99,7.0198,6.99,6.9682,6.9739,6.8946,6.8842,6.8853,6.8611,6.8335,6.8231,6.8527,6.8639,6.8682,6.8605,6.8448,6.83,6.8083,6.7955,6.7653,6.799,6.8448,6.902,6.9367,6.9966,7.0347,7.028,7.0372,7.0717,7.111,7.1456,7.2424,7.268,7.2714,7.2887,7.3074,7.3344,7.2983,7.2961,7.3108,7.268,7.1852,7.1182,7.1129,7.0946,7.0381,7.0429,7.0945,7.1043,7.0961,7.8276,7.8276,7.8276,7.8276,7.8276,7.8276,7.8276,7.8276,7.8276,7.8276,7.8276,7.8276,7.8276,7.8276,7.8276,7.8276,7.8276,7.8276,7.8276,7.8221,7.8276,7.8239,7.7924,7.6384,7.6273,7.6625,7.4996,7.4976,7.5174,7.386,7.2715,7.2315,7.1668,7.1087,7.0531,7.0375,7.0488,7.0799,7.1256,7.1912,7.2533,7.2671,7.2671,7.2636,7.2567,7.2498,7.2636,7.2257,7.2326,7.2291,7.1828,7.1794,7.2153,7.1759,7.1847,7.1966,7.169,7.1036,7.0843,7.1222,7.1291,7.0601,7.0946,7.0877,7.0717,7.0545,7.0821,7.1228,7.0381,6.9808,6.967,6.9015,6.8853,6.8898,6.8942,6.909,6.935,6.9497,6.9393,6.954,6.9602,6.9124,6.8759,6.8552,6.8457,6.8898,6.9381,6.9956,7.0486,7.1006,7.1364,7.1261,7.127,7.1581,7.1836,7.2216,7.2533,7.2962,7.3148,7.3287,7.3647,7.3973,7.4473,7.4426,7.4756,7.4821,7.4168,7.3408,7.2831,7.2385,7.2026,7.2171,7.2612,7.2509,7.2233,7.8276,7.8276,7.8276,7.8276,7.8276,7.8276,7.8276,7.8276,7.8276,7.8276,7.8276,7.8276,7.8276,7.8276,7.8276,7.8276,7.8276,7.8276,7.8276,7.8276,7.8239,7.8053,7.7367,7.6403,7.6162,7.6347,7.5531,7.5236,7.5531,7.4948,7.3751,7.2814,7.2315,7.147,7.0791,7.0412,7.0697,7.1157,7.1739,7.2326,7.2602,7.2671,7.2671,7.2671,7.2671,7.2671,7.2671,7.2671,7.2671,7.2636,7.2276,7.231,7.2567,7.2345,7.2345,7.2567,7.2429,7.1966,7.1843,7.1981,7.1601,7.1498,7.1636,7.1981,7.1739,7.1636,7.1449,7.1419,7.1415,7.105,7.0636,7.0187,7.0061,6.9969,6.9748,6.9966,7.0262,7.0427,7.0539,7.0574,7.0644,7.0114,6.9807,6.9842,6.9817,6.9911,7.051,7.1041,7.1411,7.1849,7.2104,7.2208,7.2182,7.2306,7.2458,7.2749,7.2835,7.3171,7.3392,7.3717,7.4205,7.459,7.509,7.5802,7.6238,7.6261,7.604,7.5405,7.4537,7.4073,7.3668,7.3873,7.4007,7.3606,7.3266,7.8276,7.8276,7.8276,7.8276,7.8276,7.8276,7.8276,7.8276,7.8276,7.8276,7.8276,7.8276,7.8276,7.8276,7.8276,7.8276,7.8276,7.8276,7.8276,7.8276,7.8053,7.7793,7.7236,7.6458,7.605,7.705,7.5291,7.5476,7.6162,7.59,7.4831,7.3577,7.3505,7.2731,7.1694,7.1255,7.1336,7.1408,7.196,7.2375,7.2602,7.2671,7.2671,7.2671,7.2671,7.2671,7.2671,7.2671,7.2671,7.2671,7.2636,7.2636,7.2636,7.2636,7.2602,7.2671,7.2567,7.2567,7.236,7.2222,7.1877,7.1981,7.2188,7.2533,7.2567,7.2671,7.2567,7.1882,7.1863,7.1601,7.1256,7.1187,7.0937,7.0776,7.0718,7.0937,7.1052,7.1194,7.1237,7.1342,7.1403,7.1295,7.1134,7.1273,7.1238,7.1099,7.1527,7.2059,7.2359,7.2624,7.2741,7.2904,7.281,7.2749,7.2887,7.3088,7.3206,7.3412,7.3667,7.4017,7.4577,7.5253,7.586,7.6678,7.7521,7.7832,7.7824,7.6965,7.6292,7.6042,7.5822,7.5405,7.5206,7.4705,7.4034,7.8276,7.8276,7.8276,7.8276,7.8276,7.8276,7.8276,7.8276,7.8276,7.8276,7.8276,7.8276,7.8276,7.8276,7.8276,7.8276,7.8276,7.8276,7.8202,7.7942,7.7608,7.7459,7.7013,7.6216,7.5568,7.6624,7.5698,7.5847,7.6681,7.6959,7.6052,7.5322,7.4945,7.447,7.3572,7.2512,7.1938,7.1827,7.1891,7.2168,7.2582,7.2705,7.2705,7.2671,7.2671,7.2671,7.2671,7.2671,7.2671,7.2671,7.2671,7.2671,7.2671,7.2671,7.2671,7.2671,7.2671,7.2671,7.2567,7.2567,7.2567,7.2602,7.2636,7.2671,7.2671,7.2671,7.2602,7.2464,7.2222,7.2119,7.1808,7.1615,7.1421,7.1584,7.1746,7.1792,7.1917,7.1796,7.1909,7.204,7.2091,7.2059,7.2116,7.2151,7.2198,7.2024,7.2185,7.2718,7.3078,7.3311,7.3426,7.3426,7.3264,7.3252,7.324,7.3334,7.3472,7.3702,7.3957,7.4457,7.5018,7.573,7.6819,7.7451,7.8293,7.8904,7.936,7.8641,7.821,7.8231,7.7778,7.6555,7.5673,7.5038,7.4334,7.8276,7.8276,7.8276,7.8276,7.8276,7.8276,7.8276,7.8276,7.8276,7.8276,7.8276,7.8276,7.8276,7.8276,7.8276,7.8276,7.8202,7.7719,7.7608,7.7273,7.6865,7.6567,7.6216,7.6161,7.5976,7.6736,7.6421,7.6588,7.7719,7.7664,7.7589,7.7103,7.6433,7.519,7.4247,7.3405,7.2711,7.2476,7.2306,7.2582,7.2617,7.2858,7.2858,7.2671,7.2671,7.2671,7.2671,7.2671,7.2671,7.2671,7.2671,7.2671,7.2671,7.2671,7.2671,7.2671,7.2671,7.2671,7.2671,7.2671,7.2671,7.2671,7.2671,7.2671,7.2671,7.2671,7.2671,7.2533,7.2395,7.2395,7.236,7.232,7.2347,7.258,7.2707,7.2683,7.2624,7.2459,7.239,7.2554,7.2753,7.2835,7.2939,7.2962,7.2939,7.287,7.3112,7.3308,7.3597,7.3772,7.3772,7.3692,7.3577,7.3636,7.3624,7.3717,7.3737,7.4062,7.4431,7.5133,7.5871,7.71,7.8047,7.8609,7.9079,7.962,7.9958,8.0053,7.9828,7.9285,7.8201,7.6849,7.6004,7.5339,7.4602,7.8276,7.8276,7.8276,7.8276,7.8276,7.8276,7.8276,7.8276,7.8276,7.8276,7.8276,7.8276,7.8276,7.8276,7.8276,7.8053,7.7905,7.7608,7.7162,7.6679,7.6159,7.5824,7.5733,7.5679,7.5864,7.6773,7.7144,7.7478,7.8165,7.8276,7.8146,7.7905,7.7496,7.6405,7.5479,7.4046,7.335,7.3322,7.3233,7.3199,7.2942,7.3184,7.3115,7.2858,7.2755,7.2671,7.2671,7.2671,7.2671,7.2671,7.2671,7.2671,7.2671,7.2671,7.2671,7.2671,7.2671,7.2671,7.2671,7.2671,7.2671,7.2671,7.2671,7.2671,7.2671,7.2671,7.2671,7.2671,7.2636,7.2671,7.2671,7.2582,7.2762,7.2927,7.309,7.3102,7.3136,7.3078,7.2962,7.2951,7.3078,7.2984,7.3195,7.3229,7.3392,7.3322,7.3482,7.3641,7.3747,7.3852,7.3772,7.3772,7.3657,7.3832,7.4122,7.4307,7.4562,7.5053,7.5484,7.6116,7.6994,7.8188,7.9136,7.9662,8.0098,8.0359,8.0605,8.0716,8.0438,8.0054,7.8844,7.7658,7.6169,7.5472,7.4837,7.8239,7.8276,7.8239,7.8239,7.8128,7.8276,7.8276,7.8276,7.8276,7.8276,7.8276,7.8276,7.8276,7.8276,7.8276,7.7942,7.7459,7.7682,7.7199,7.601,7.549,7.5601,7.551,7.5345,7.579,7.6773,7.7255,7.7701,7.8276,7.8276,7.8276,7.8276,7.8035,7.7755,7.7599,7.6052,7.4939,7.437,7.4124,7.3878,7.3413,7.3643,7.3656,7.3144,7.2838,7.2755,7.2755,7.2671,7.2671,7.2671,7.2671,7.2671,7.2671,7.2671,7.2671,7.2671,7.2671,7.2671,7.2671,7.2671,7.2671,7.2671,7.2671,7.2671,7.2671,7.2671,7.2671,7.2671,7.2671,7.2671,7.2671,7.2755,7.3005,7.317,7.3334,7.3415,7.3415,7.3496,7.3311,7.3113,7.2901,7.2804,7.3148,7.3392,7.3702,7.3817,7.3931,7.401,7.3931,7.3931,7.3852,7.3957,7.3992,7.4307,7.4552,7.4913,7.5309,7.5871,7.6538,7.7205,7.7977,7.8995,7.9873,8.061,8.0907,8.1027,8.1253,8.1465,8.1207,8.0893,7.9937,7.8633,7.7039,7.5773,7.5203,7.7162,7.6679,7.7236,7.7162,7.6827,7.7868,7.8276,7.8276,7.8276,7.8276,7.8276,7.8276,7.8276,7.8276,7.8239,7.7868,7.7199,7.6419,7.5861,7.5118,7.4635,7.4635,7.4821,7.5416,7.5973,7.6976,7.757,7.7942,7.8276,7.8276,7.8276,7.8276,7.8276,7.7863,7.7279,7.6323,7.5613,7.478,7.4703,7.4682,7.3624,7.4031,7.4136,7.3252,7.3053,7.2922,7.2922,7.2838,7.2671,7.2671,7.2671,7.2671,7.2671,7.2671,7.2671,7.2671,7.2671,7.2671,7.2671,7.2671,7.2671,7.2671,7.2671,7.2671,7.2671,7.2671,7.2671,7.2671,7.2671,7.2671,7.2671,7.2838,7.3088,7.3252,7.3415,7.3415,7.3415,7.3496,7.3496,7.3135,7.2838,7.317,7.338,7.3727,7.3992,7.4141,7.4221,7.408,7.4045,7.401,7.3931,7.4141,7.4317,7.4747,7.5133,7.5906,7.6573,7.7205,7.7767,7.8328,7.9136,8.0014,8.0751,8.1593,8.1645,8.161,8.1872,8.2169,8.2172,8.1837,8.0755,7.9365,7.7607,7.6609,7.5997,7.5713,7.5081,7.5861,7.5899,7.5676,7.7162,7.8016,7.8239,7.8276,7.8276,7.8276,7.8276,7.8276,7.8276,7.8239,7.783,7.7087,7.6567,7.549,7.4673,7.4115,7.4301,7.4784,7.5469,7.6159,7.7087,7.783,7.8276,7.8276,7.8276,7.8276,7.8276,7.8276,7.8014,7.7436,7.6873,7.6323,7.5765,7.5925,7.5609,7.4886,7.4752,7.4651,7.3957,7.338,7.3005,7.3005,7.2922,7.2755,7.2755,7.2755,7.2671,7.2671,7.2671,7.2671,7.2671,7.2671,7.2671,7.2671,7.2671,7.2671,7.2671,7.2671,7.2671,7.2671,7.2671,7.2671,7.2671,7.2671,7.2671,7.2755,7.2922,7.3005,7.3252,7.3415,7.3415,7.3415,7.3496,7.3369,7.3005,7.304,7.3369,7.3727,7.4097,7.4396,7.4431,7.4466,7.4326,7.4185,7.4221,7.4326,7.4607,7.5168,7.58,7.6503,7.738,7.8012,7.8574,7.9066,7.9557,8.0294,8.1172,8.1874,8.2331,8.2085,8.2102,8.254,8.2787,8.2647,8.2276,8.1343,7.9917,7.8206,7.738,7.6801,7.4041,7.3484,7.419,7.4524,7.4784,7.6196,7.7385,7.8128,7.8202,7.8202,7.8202,7.8239,7.8276,7.8276,7.8276,7.7756,7.7013,7.6827,7.575,7.4896,7.4338,7.4487,7.4858,7.5527,7.6382,7.7125,7.783,7.8276,7.8276,7.8276,7.8276,7.8276,7.8276,7.8165,7.7863,7.7496,7.7034,7.6766,7.6802,7.6373,7.5765,7.5799,7.5472,7.4744,7.4068,7.3712,7.3552,7.3264,7.3135,7.297,7.2838,7.2755,7.2671,7.2671,7.2671,7.2671,7.2671,7.2671,7.2671,7.2671,7.2671,7.2671,7.2755,7.2671,7.2671,7.2671,7.2671,7.2671,7.2671,7.2671,7.2755,7.2838,7.2922,7.317,7.3334,7.3334,7.3334,7.3252,7.3088,7.304,7.3274,7.3555,7.3797,7.4212,7.4791,7.4466,7.4537,7.4747,7.4642,7.4677,7.4853,7.5309,7.5976,7.6994,7.7837,7.8574,7.9487,8.0014,8.04,8.0926,8.1664,8.219,8.2612,8.2787,8.2436,8.2436,8.2805,8.3016,8.3068,8.2537,8.1965,8.0914,7.9439,7.8418,7.7714,7.2383,7.174,7.2532,7.2889,7.3112,7.4635,7.575,7.653,7.7125,7.7459,7.7478,7.809,7.8276,7.8276,7.8276,7.7385,7.6679,7.5936,7.5007,7.445,7.4338,7.4524,7.5044,7.5899,7.6679,7.7273,7.783,7.8276,7.8276,7.8276,7.8276,7.8276,7.8276,7.8276,7.8221,7.7977,7.7651,7.7439,7.7559,7.7174,7.6664,7.6563,7.6161,7.5649,7.512,7.4828,7.4681,7.4033,7.3756,7.3677,7.3018,7.2755,7.2671,7.2671,7.2671,7.2671,7.2671,7.2671,7.2755,7.2838,7.2838,7.2838,7.2838,7.2838,7.2755,7.2671,7.2671,7.2671,7.2671,7.2671,7.2755,7.2838,7.3005,7.317,7.3334,7.3334,7.3334,7.317,7.3005,7.3192,7.3344,7.3891,7.4212,7.4782,7.5222,7.4721,7.4607,7.5063,7.5168,7.5239,7.5484,7.5941,7.6994,7.8047,7.8785,7.9522,8.0575,8.1453,8.1699,8.2085,8.2787,8.3244,8.3419,8.3314,8.2998,8.2928,8.2963,8.3138,8.3208,8.3208,8.2731,8.1702,8.0707,7.9556,7.8455,7.071,7.009,7.0859,7.1552,7.2332,7.3558,7.4413,7.5044,7.6419,7.707,7.7163,7.7942,7.8276,7.8276,7.8239,7.7793,7.6939,7.6121,7.5304,7.4933,7.419,7.4598,7.5267,7.6084,7.6865,7.7459,7.7942,7.8276,7.8276,7.8276,7.8276,7.8276,7.8276,7.8276,7.8276,7.8221,7.8071,7.7957,7.7879,7.7651,7.743,7.7097,7.6814,7.6574,7.6161,7.5959,7.5823,7.4866,7.4305,7.4111,7.3311,7.2838,7.2755,7.2671,7.2769,7.2769,7.2804,7.2922,7.3005,7.3088,7.3005,7.3005,7.3005,7.2873,7.2789,7.274,7.2705,7.2671,7.2671,7.2671,7.2755,7.2922,7.3088,7.3252,7.3334,7.3334,7.3252,7.3088,7.3157,7.3344,7.3729,7.4307,7.4862,7.5548,7.5935,7.574,7.5941,7.6468,7.6327,7.6011,7.6257,7.6678,7.7942,7.9171,7.9838,8.054,8.1523,8.2296,8.2471,8.2963,8.3805,8.4051,8.3981,8.3805,8.363,8.3419,8.3138,8.3138,8.3208,8.3208,8.312,8.2405,8.1387,8.0281,7.9195,6.9211,6.8654,6.9434,7.0772,7.2072,7.3038,7.3484,7.3632,7.5824,7.6847,7.6958,7.7793,7.809,7.8016,7.8128,7.7979,7.7125,7.6233,7.5416,7.5564,7.4375,7.445,7.5378,7.5973,7.7013,7.7868,7.8276,7.8276,7.8276,7.8276,7.8276,7.8276,7.8276,7.8276,7.8276,7.8276,7.8221,7.8221,7.8221,7.8071,7.8016,7.7719,7.7234,7.7145,7.672,7.6228,7.6027,7.5405,7.4531,7.434,7.3913,7.3392,7.313,7.2838,7.2936,7.2984,7.3018,7.3053,7.317,7.3334,7.3252,7.3252,7.317,7.3109,7.2977,7.2824,7.2705,7.2671,7.2671,7.2755,7.2838,7.3005,7.317,7.3334,7.3334,7.3334,7.3252,7.3274,7.3365,7.3704,7.4542,7.5037,7.5178,7.567,7.6303,7.6538,7.6854,7.7415,7.7661,7.71,7.738,7.7767,7.9101,8.033,8.0891,8.1629,8.2506,8.3068,8.3103,8.356,8.4227,8.4402,8.4437,8.4016,8.3524,8.3384,8.3173,8.3208,8.3208,8.3208,8.312,8.2816,8.1933,8.0897,7.9627,6.8691,6.8654,7.0029,7.092,7.1403,7.2778,7.3372,7.3484,7.4598,7.523,7.5473,7.6642,7.7402,7.7439,7.7979,7.7719,7.6493,7.627,7.5118,7.4784,7.4115,7.4858,7.5787,7.6456,7.731,7.7942,7.8276,7.8276,7.8276,7.8276,7.8276,7.8276,7.8276,7.8276,7.8276,7.8276,7.8276,7.8276,7.8276,7.8276,7.8239,7.8202,7.7997,7.7957,7.7592,7.757,7.7353,7.6783,7.6058,7.551,7.5227,7.4694,7.4024,7.3483,7.3252,7.3183,7.3311,7.3299,7.3461,7.3577,7.3496,7.3415,7.3369,7.3344,7.3248,7.2858,7.2705,7.2705,7.2755,7.2838,7.2922,7.3088,7.3287,7.3369,7.3485,7.3485,7.3403,7.3517,7.3594,7.4403,7.5309,7.5565,7.567,7.6046,7.6608,7.6994,7.717,7.7661,7.8504,7.8539,7.896,7.9487,8.0575,8.1593,8.198,8.2366,8.3068,8.3279,8.3244,8.3876,8.4648,8.4823,8.4823,8.3876,8.3279,8.3384,8.3384,8.3208,8.3208,8.3208,8.312,8.2906,8.2391,8.1401,8.0082,6.8543,6.8691,6.9843,7.04,7.0698,7.2146,7.2852,7.3001,7.3707,7.4078,7.4338,7.5676,7.6493,7.6642,7.7385,7.7199,7.6047,7.627,7.5713,7.5044,7.4821,7.5601,7.6307,7.6827,7.7496,7.809,7.8239,7.8276,7.8276,7.8276,7.8276,7.8276,7.8276,7.8276,7.8276,7.8276,7.8313,7.8276,7.8313,7.8313,7.8313,7.8313,7.8313,7.8276,7.8313,7.8388,7.8348,7.7828,7.7166,7.6445,7.6003,7.5149,7.4537,7.4077,7.3913,7.3822,7.3744,7.3622,7.394,7.401,7.3887,7.3842,7.3612,7.3589,7.3636,7.3322,7.3233,7.3233,7.2893,7.2893,7.304,7.317,7.3682,7.3985,7.4159,7.4264,7.4399,7.4599,7.4718,7.497,7.5814,7.6569,7.6735,7.7205,7.7731,7.7942,7.8047,7.8399,7.9171,7.9873,8.0365,8.0891,8.1734,8.205,8.205,8.2577,8.3314,8.3419,8.3384,8.4121,8.4823,8.5175,8.5175,8.4508,8.4016,8.384,8.377,8.3489,8.3244,8.3208,8.312,8.312,8.2447,8.1931,8.1042,6.8394,6.8617,6.9397,6.9732,6.9992,7.1478,7.2221,7.2332,7.2927,7.3298,7.3521,7.4747,7.5341,7.5936,7.6624,7.6344,7.627,7.6604,7.6307,7.5824,7.5639,7.6159,7.6604,7.7087,7.7645,7.8053,7.8276,7.8276,7.8276,7.8276,7.8276,7.8276,7.8276,7.8276,7.8276,7.8313,7.8351,7.8517,7.8555,7.8425,7.8351,7.8313,7.8313,7.8276,7.8351,7.8685,7.8664,7.8396,7.7733,7.7121,7.6415,7.5832,7.5369,7.4965,7.4686,7.4583,7.479,7.4819,7.4968,7.4912,7.4682,7.4378,7.4115,7.4115,7.4229,7.4132,7.4054,7.3913,7.3691,7.3303,7.3365,7.3669,7.4251,7.4706,7.4834,7.5101,7.5408,7.5638,7.567,7.5735,7.6432,7.7309,7.7731,7.8118,7.8504,7.875,7.9171,7.9592,8.0084,8.0786,8.1383,8.1734,8.2296,8.2401,8.2331,8.2752,8.3489,8.3595,8.3665,8.4367,8.5034,8.5561,8.5807,8.5596,8.5175,8.4508,8.4051,8.37,8.3489,8.3244,8.3208,8.3085,8.2909,8.2397,8.2007,6.7911,6.858,6.9397,6.9694,6.9955,7.1441,7.2184,7.2184,7.2332,7.2741,7.3187,7.2949,7.3469,7.4896,7.6473,7.6547,7.5899,7.6642,7.6493,7.5899,7.6121,7.653,7.6939,7.7347,7.7645,7.8016,7.8276,7.8276,7.8276,7.8276,7.8276,7.8276,7.8276,7.8276,7.8276,7.8351,7.8517,7.8666,7.8573,7.8462,7.8852,7.8703,7.8313,7.8276,7.8313,7.8388,7.8369,7.8239,7.782,7.7243,7.6737,7.6591,7.6461,7.6135,7.5711,7.5598,7.5796,7.5904,7.5941,7.6085,7.5933,7.5502,7.5427,7.5861,7.5822,7.5478,7.5529,7.5803,7.5344,7.4517,7.4482,7.483,7.531,7.5405,7.5592,7.6091,7.6466,7.6451,7.6381,7.6705,7.7132,7.7556,7.7744,7.8223,7.8715,7.903,7.9592,8.0084,8.0716,8.1523,8.2331,8.2647,8.2928,8.2998,8.2998,8.3033,8.3524,8.363,8.4086,8.4999,8.5701,8.6123,8.6263,8.6193,8.5561,8.4788,8.4367,8.3981,8.3595,8.3349,8.3244,8.3138,8.2963,8.2559,8.1996]},{"header":{"parameterUnit":"m.s-1","parameterCategory":1,"la1":31.0,"la2":29.5877,"lo1":-88.7671,"lo2":-86.6584,"dy":0.0162,"dx":0.0185,"nx":115,"ny":88,"refTime":"2023-08-27T06:00:00:Z","depth":0,"parameterNumber":3,"parameterNumberName":"V-component_of_WINDS"},"data":[0.0,0.0,0.0,0.0,0.0,0.0,0.0,0.0,0.0,0.0,0.0,0.0,0.0,0.0,0.0,0.0,0.0,0.0,0.0,0.0,0.0,0.0,0.0,0.0,0.0,0.0,0.0,0.0,0.0,0.0,0.0,0.0,0.0,0.0,0.0,0.0,0.0,0.0,0.0,0.0,0.0,0.0,0.0,0.0,0.0,0.0,0.0,0.0,0.0,0.0,0.0,0.0,0.0,0.0,0.0,0.0,0.0,0.0,0.0,0.0,0.0,0.0,0.0,0.0,0.0,0.0,0.0,0.0,0.0,0.0,0.0,0.0,0.0,0.0,0.0,0.0,0.0,0.0,0.0,0.0,0.0,0.0,0.0,0.0,0.0,0.0,0.0,0.0,0.0,0.0,0.0,0.0,0.0,0.0,0.0,0.0,0.0,0.0,0.0,0.0,0.0,0.0,0.0,0.0,0.0,0.0,0.0,0.0,0.0,0.0,0.0,0.0,0.0,0.0,0.0,0.0,0.0,0.0,0.0,0.0,0.0,0.0,0.0,0.0,0.0,0.0,0.0,0.0,0.0,0.0,0.0,0.0,0.0,0.0,0.0,0.0,0.0,0.0,0.0,0.0,0.0,0.0,0.0,0.0,0.0,0.0,0.0,0.0,0.0,0.0,0.0,0.0,0.0,0.0,0.0,0.0,0.0,0.0,0.0,0.0,0.0,0.0,0.0,0.0,0.0,0.0,0.0,0.0,0.0,0.0,0.0,0.0,0.0,0.0,0.0,0.0,0.0,0.0,0.0,0.0,0.0,0.0,0.0,0.0,0.0,0.0,0.0,0.0,0.0,0.0,0.0,0.0,0.0,0.0,0.0,0.0,0.0,0.0,0.0,0.0,0.0,0.0,0.0,0.0,0.0,0.0,0.0,0.0,0.0,0.0,0.0,0.0,0.0,0.0,0.0,0.0,0.0,0.0,0.0,0.0,0.0,0.0,0.0,0.0,0.0,0.0,0.0,0.0,0.0,0.0,0.0,0.0,0.0,0.0,0.0,0.0,0.0,0.0,0.0,0.0,0.0,0.0,0.0,0.0,0.0,0.0,0.0,0.0,0.0,0.0,0.0,0.0,0.0,0.0,0.0,0.0,0.0,0.0,0.0,0.0,0.0,0.0,0.0,0.0,0.0,0.0,0.0,0.0,0.0,0.0,0.0,0.0,0.0,0.0,0.0,0.0,0.0,0.0,0.0,0.0,0.0,0.0,0.0,0.0,0.0,0.0,0.0,0.0,0.0,0.0,0.0,0.0,0.0,0.0,0.0,0.0,0.0,0.0,0.0,0.0,0.0,0.0,0.0,0.0,0.0,0.0,0.0,0.0,0.0,0.0,0.0,0.0,0.0,0.0,0.0,0.0,0.0,0.0,0.0,0.0,0.0,0.0,0.0,0.0,0.0,0.0,0.0,0.0,0.0,0.0,0.0,0.0,0.0,0.0,0.0,0.0,0.0,0.0,0.0,0.0,0.0,0.0,0.0,0.0,0.0,0.0,0.0,0.0,0.0,0.0,0.0,0.0,0.0,0.0,0.0,0.0,0.0,0.0,0.0,0.0,0.0,0.0,0.0,0.0,0.0,0.0,0.0,0.0,0.0,0.0,0.0,0.0,0.0,0.0,0.0,0.0,0.0,0.0,0.0,0.0,0.0,0.0,0.0,0.0,0.0,0.0,0.0,0.0,0.0,0.0,0.0,0.0,0.0,0.0,0.0,0.0,0.0,0.0,0.0,0.0,0.0,0.0,0.0,0.0,0.0,0.0,0.0,0.0,0.0,0.0,0.0,0.0,0.0,0.0,0.0,0.0,0.0,0.0,0.0,0.0,0.0,0.0,0.0,0.0,0.0,0.0,0.0,0.0,0.0,0.0,0.0,0.0,0.0,0.0,0.0,0.0,0.0,0.0,0.0,0.0,0.0,0.0,0.0,0.0,0.0,0.0,0.0,0.0,0.0,0.0,0.0,0.0,0.0,0.0,0.0,0.0,0.0,0.0,0.0,0.0,0.0,0.0,0.0,0.0,0.0,0.0,0.0,0.0,0.0,0.0,0.0,0.0,0.0,0.0,0.0,0.0,0.0,0.0,0.0,0.0,0.0,0.0,0.0,0.0,0.0,0.0,0.0,0.0,0.0,0.0,0.0,0.0,0.0,0.0,0.0,0.0,0.0,0.0,0.0,0.0,0.0,0.0,0.0,0.0,0.0,0.0,0.0,0.0,0.0,0.0,0.0,0.0,0.0,0.0,0.0,0.0,0.0,0.0,0.0,0.0,0.0,0.0,0.0,0.0,0.0,0.0,0.0,0.0,0.0,0.0,0.0,0.0,0.0,0.0,0.0,0.0,0.0,0.0,0.0,0.0,0.0,0.0,0.0,0.0,0.0,0.0,0.0,0.0,0.0,0.0,0.0,0.0,0.0,0.0,0.0,0.0,0.0,0.0,0.0,0.0,0.0,0.0,0.0,0.0,0.0,0.0,0.0,0.0,0.0,0.0,0.0,0.0,0.0,0.0,0.0,0.0,0.0,0.0,0.0,0.0,0.0,0.0,0.0,0.0,0.0,0.0,0.0,0.0,0.0,0.0,0.0,0.0,0.0,0.0,0.0,0.0,0.0,0.0,0.0,0.0,0.0,0.0,0.0,0.0,0.0,0.0,0.0,0.0,0.0,0.0,0.0,0.0,0.0,0.0,0.0,0.0,0.0,0.0,0.0,0.0,0.0,0.0,0.0,0.0,0.0,0.0,0.0,0.0,0.0,0.0,0.0,0.0,0.0,0.0,0.0,0.0,0.0,0.0,0.0,0.0,0.0,0.0,0.0,0.0,0.0,0.0,0.0,0.0,0.0,0.0,0.0,0.0,0.0,0.0,0.0,0.0,0.0,0.0,0.0,0.0,0.0,0.0,0.0,0.0,0.0,0.0,0.0,0.0,0.0,0.0,0.0,0.0,0.0,0.0,0.0,0.0,0.0,0.0,0.0,0.0,0.0,0.0,0.0,0.0,0.0,0.0,0.0,0.0,0.0,0.0,0.0,0.0,0.0,0.0,0.0,0.0,0.0,0.0,0.0,0.0,0.0,0.0,0.0,0.0,0.0,0.0,0.0,0.0,0.0,0.0,0.0,0.0,0.0,0.0,0.0,0.0,0.0,0.0,0.0,0.0,0.0,0.0,0.0,0.0,0.0,0.0,0.0,0.0,0.0,0.0,0.0,0.0,0.0,0.0,0.0,0.0,0.0,0.0,0.0,0.0,0.0,0.0,0.0,0.0,0.0,0.0,0.0,0.0,0.0,0.0,0.0,0.0,0.0,0.0,0.0,0.0,0.0,0.0,0.0,0.0,0.0,0.0,0.0,0.0,0.0,0.0,0.0,0.0,0.0,0.0,0.0,0.0,0.0,0.0,0.0,0.0,0.0,0.0,0.0,0.0,0.0,0.0,0.0,0.0,0.0,0.0,0.0,0.0,0.0,0.0,0.0,0.0,0.0,0.0,0.0,0.0,0.0,0.0,0.0,0.0,0.0,0.0,0.0,0.0,0.0,0.0,0.0,0.0,0.0,0.0,0.0,0.0,0.0,0.0,0.0,0.0,0.0,0.0,0.0,0.0,0.0,0.0,0.0,0.0,0.0,0.0,0.0,0.0,0.0,0.0,0.0,0.0,0.0,0.0,0.0,0.0,0.0,0.0,0.0,0.0,0.0,0.0,0.0,0.0,0.0,0.0,0.0,0.0,0.0,0.0,0.0,0.0,0.0,0.0,0.0,0.0,0.0,0.0,0.0,0.0,0.0,0.0,0.0,0.0,0.0,0.0,0.0,0.0,0.0,0.0,0.0,0.0,0.0,0.0,0.0,0.0,0.0,0.0,0.0,0.0,0.0,0.0,0.0,0.0,0.0,0.0,0.0,0.0,0.0,0.0,0.0,0.0,0.0,0.0,0.0,0.0,0.0,0.0,0.0,0.0,0.0,0.0,0.0,0.0,0.0,0.0,0.0,0.0,0.0,0.0,0.0,0.0,0.0,0.0,0.0,0.0,0.0,0.0,0.0,0.0,0.0,0.0,0.0,0.0,0.0,0.0,0.0,0.0,0.0,0.0,0.0,0.0,0.0,0.0,0.0,0.0,0.0,0.0,0.0,0.0,0.0,0.0,0.0,0.0,0.0,0.0,0.0,0.0,0.0,0.0,0.0,0.0,0.0,0.0,0.0,0.0,0.0,0.0,0.0,0.0,0.0,0.0,0.0,0.0,0.0,0.0,1.1166,0.0,0.0,0.0,0.0,0.0,0.0,0.0,0.0,0.0,0.0,0.0,0.0,0.0,0.0,0.0,0.0,0.0,0.0,0.0,0.0,0.0,0.0,0.0,0.0,0.0,0.0,0.0,0.0,0.0,0.0,0.0,0.0,0.0,0.0,0.0,0.0,0.0,0.0,0.0,0.0,0.0,0.0,0.0,0.0,0.0,0.0,0.0,0.0,0.0,0.0,0.0,0.0,0.0,0.0,0.0,0.0,0.0,0.0,0.0,0.0,0.0,0.0,0.0,0.0,0.0,0.0,0.0,0.0,0.0,0.0,0.0,0.0,0.0,0.0,0.0,0.0,0.0,0.0,0.0,0.0,0.0,0.0,0.0,0.0,0.0,0.0,0.0,0.0,0.0,0.0,0.0,0.0,0.0,0.0,0.0,0.0,0.0,0.0,0.0,0.0,0.0,0.0,0.0,0.0,0.0,0.0,0.0,0.0,0.0,0.0,1.1866,1.1745,1.1479,1.1274,1.1129,0.0,0.0,0.0,0.0,0.0,0.0,0.0,0.0,0.0,0.0,0.0,0.0,0.0,0.0,0.0,0.0,0.0,0.0,0.0,0.0,0.0,0.0,0.0,0.0,0.0,0.0,0.0,0.0,0.0,0.0,0.0,0.0,0.0,0.0,0.0,0.0,0.0,0.0,0.0,0.0,0.0,0.0,0.0,0.0,0.0,0.0,0.0,0.0,0.0,0.0,0.0,0.0,0.0,0.0,0.0,0.0,0.0,0.0,0.0,0.0,0.0,0.0,0.0,0.0,0.0,0.0,0.0,0.0,0.0,0.0,0.0,0.0,0.0,0.0,0.0,0.0,0.0,0.0,0.0,0.0,0.0,0.0,0.0,0.0,0.0,0.0,0.0,0.0,0.0,0.0,0.0,0.0,0.0,0.0,0.0,0.0,0.0,0.0,0.0,0.0,0.0,0.0,0.0,0.0,0.0,0.0,0.0,0.0,0.0,0.0,0.0,0.0,1.1781,1.1636,1.1492,0.0,0.0,0.0,0.0,0.0,0.0,0.0,0.0,0.0,0.0,0.0,0.0,0.0,0.0,0.0,0.0,0.0,0.0,0.0,0.0,0.0,0.0,0.0,0.0,0.0,0.0,0.0,0.0,0.0,0.0,0.0,0.0,0.0,0.0,0.0,0.0,0.0,0.0,0.0,0.0,0.0,0.0,0.0,0.0,0.0,0.0,0.0,0.0,0.0,0.0,0.0,0.0,0.0,0.0,0.0,0.0,0.0,0.0,0.0,0.0,0.0,0.0,0.0,0.0,0.0,0.0,0.0,0.0,0.0,0.0,0.0,0.0,0.0,0.0,0.0,0.0,0.0,0.0,0.0,0.0,0.0,0.0,0.0,0.0,0.0,0.0,0.0,0.0,0.0,0.0,0.0,0.0,0.0,0.0,0.0,0.0,0.0,0.0,0.0,0.0,0.0,0.0,0.0,0.0,0.0,0.0,0.0,0.0,0.0,0.0,1.1846,1.1754,1.2038,0.0,1.253,0.0,0.0,0.0,0.0,0.0,0.0,0.0,0.0,0.0,0.0,0.0,0.0,0.0,0.0,0.0,0.0,0.0,0.0,0.0,0.0,0.0,0.0,0.0,0.0,0.0,0.0,0.0,0.0,0.0,0.0,0.0,0.0,0.0,0.0,0.0,0.0,0.0,0.0,0.0,0.0,0.0,0.0,0.0,0.0,0.0,0.0,0.0,0.0,0.0,0.0,0.0,0.0,0.0,0.0,0.0,0.0,0.0,0.0,0.0,0.0,0.0,0.0,0.0,0.0,0.0,0.0,0.0,0.0,0.0,0.0,0.0,0.0,0.0,0.0,0.0,0.0,0.0,0.0,0.0,0.0,0.0,0.0,0.0,0.0,0.0,0.0,0.0,0.0,0.0,0.0,0.0,0.0,0.0,0.0,0.0,0.0,0.0,0.0,0.0,0.0,0.0,0.0,0.0,0.0,0.0,0.0,0.0,0.0,0.0,0.0,1.231,1.2563,1.2286,1.2204,0.0,0.0,0.0,0.0,0.0,0.0,0.0,0.0,0.0,0.0,0.0,0.0,0.0,0.0,0.0,0.0,0.0,0.0,0.0,0.0,0.0,0.0,0.0,0.0,0.0,0.0,0.0,0.0,0.0,0.0,0.0,0.0,0.0,0.0,0.0,0.0,0.0,0.0,0.0,0.0,0.0,0.0,0.0,0.0,0.0,0.0,0.0,0.0,0.0,0.0,0.0,0.0,0.0,0.0,0.0,0.0,0.0,0.0,0.0,0.0,0.0,0.0,0.0,0.0,0.0,0.0,0.0,0.0,0.0,0.0,0.0,0.0,0.0,0.0,0.0,0.0,0.0,0.0,0.0,0.0,0.0,0.0,0.0,0.0,0.0,0.0,0.0,0.0,0.0,0.0,0.0,0.0,0.0,0.0,0.0,0.0,0.0,0.0,0.0,0.0,0.0,0.0,0.0,0.0,0.0,0.0,0.0,0.0,0.0,0.0,1.2481,1.2529,1.2954,1.2298,1.2083,1.2409,0.0,0.0,0.0,0.0,0.0,0.0,0.0,0.0,0.0,0.0,0.0,0.0,0.0,0.0,0.0,0.0,0.0,0.0,0.0,0.0,0.0,0.0,0.0,0.0,0.0,0.0,0.0,0.0,0.0,0.0,0.0,0.0,0.0,0.0,0.0,0.0,0.0,0.0,0.0,0.0,0.0,0.0,0.0,0.0,0.0,0.0,0.0,0.0,0.0,0.0,0.0,0.0,0.0,0.0,0.0,0.0,0.0,0.0,0.0,0.0,0.0,0.0,0.0,0.0,0.0,0.0,0.0,0.0,0.0,0.0,0.0,0.0,0.0,0.0,0.0,0.0,0.0,0.0,0.0,0.0,0.0,0.0,0.0,0.0,0.0,0.0,0.0,0.0,0.0,0.0,0.0,0.0,0.0,0.0,0.0,0.0,0.0,0.0,0.0,0.0,0.0,0.0,0.0,0.0,0.0,0.0,0.0,0.0,1.2674,1.2409,1.2445,1.2687,1.2192,1.2155,0.0,0.0,0.0,0.0,0.0,0.0,0.0,0.0,0.0,0.0,0.0,0.0,0.0,0.0,0.0,0.0,0.0,0.0,0.0,0.0,0.0,0.0,0.0,0.0,0.0,0.0,0.0,0.0,0.0,0.0,0.0,0.0,0.0,0.0,0.0,0.0,0.0,0.0,0.0,0.0,0.0,0.0,0.0,0.0,0.0,0.0,0.0,0.0,0.0,0.0,0.0,0.0,0.0,0.0,0.0,0.0,0.0,0.0,0.0,0.0,0.0,0.0,0.0,0.0,0.0,0.0,0.0,0.0,0.0,0.0,0.0,0.0,0.0,0.0,0.0,0.0,0.0,0.0,0.0,0.0,0.0,0.0,0.0,0.0,0.0,0.0,0.0,0.0,0.0,0.0,0.0,0.0,0.0,0.0,0.0,0.0,0.0,0.0,0.0,0.0,0.0,0.0,0.0,0.0,0.0,0.0,0.0,0.0,0.0,1.2699,1.2564,1.2599,1.2699,1.2361,1.2264,0.0,0.0,0.0,0.0,0.0,0.0,0.0,0.0,0.0,0.0,0.0,0.0,0.0,0.0,0.0,0.0,0.0,0.0,0.0,0.0,0.0,0.0,0.0,0.0,0.0,0.0,0.0,0.0,0.0,0.0,0.0,0.0,0.0,0.0,0.0,0.0,0.0,0.0,0.0,0.0,0.0,0.0,0.0,0.0,0.0,0.0,0.0,0.0,0.0,0.0,0.0,0.0,0.0,0.0,0.0,0.0,0.0,0.0,0.0,0.0,0.0,0.0,0.0,0.0,0.0,0.0,0.0,0.0,0.0,0.0,0.0,0.0,0.0,0.0,0.0,0.0,0.0,0.0,0.0,0.0,0.0,0.0,0.0,0.0,0.0,0.0,0.0,0.0,0.0,0.0,0.0,0.0,0.0,0.0,0.0,0.0,0.0,0.0,0.0,0.0,0.0,0.0,0.0,0.0,0.0,0.0,0.0,0.0,0.0,1.2597,0.0,1.2673,1.2578,1.2324,1.2192,0.0,0.0,0.0,0.0,0.0,0.0,0.0,0.0,0.0,0.0,0.0,0.0,0.0,0.0,0.0,0.0,0.0,0.0,0.0,0.0,0.0,0.0,0.0,0.0,0.0,0.0,0.0,0.0,0.0,0.0,0.0,0.0,0.0,0.0,0.0,0.0,0.0,0.0,0.0,0.0,0.0,0.0,0.0,0.0,0.0,0.0,0.0,0.0,0.0,0.0,0.0,0.0,0.0,0.0,0.0,0.0,0.0,0.0,0.0,0.0,0.0,0.0,0.0,0.0,0.0,0.0,0.0,0.0,0.0,0.0,0.0,0.0,0.0,0.0,0.0,0.0,0.0,0.0,0.0,0.0,0.0,0.0,0.0,0.0,0.0,0.0,0.0,0.0,0.0,0.0,0.0,0.0,0.0,0.0,0.0,0.0,0.0,0.0,0.0,0.0,0.0,0.0,0.0,0.0,0.0,0.0,0.0,0.0,1.2324,1.2312,1.2527,1.2575,1.2337,1.2095,1.1938,0.0,0.0,0.0,0.0,0.0,0.0,0.0,0.0,0.0,0.0,0.0,0.0,0.0,0.0,0.0,0.0,0.0,0.0,0.0,0.0,0.0,0.0,0.0,0.0,0.0,0.0,0.0,0.0,0.0,0.0,0.0,0.0,0.0,0.0,0.0,0.0,0.0,0.0,0.0,0.0,0.0,0.0,0.0,0.0,0.0,0.0,0.0,0.0,0.0,0.0,0.0,0.0,0.0,0.0,0.0,0.0,0.0,0.0,0.0,0.0,0.0,0.0,0.0,0.0,0.0,0.0,0.0,0.0,0.0,0.0,0.0,0.0,0.0,0.0,0.0,0.0,0.0,0.0,0.0,0.0,0.0,0.0,0.0,0.0,0.0,0.0,0.0,0.0,0.0,0.0,0.0,0.0,0.0,0.0,0.0,0.0,0.0,0.0,0.0,0.0,0.0,0.0,0.0,0.0,0.0,0.0,0.0,0.0,0.0,1.2324,1.2589,1.2949,1.3363,1.2445,1.218,0.0,0.0,0.0,0.0,0.0,0.0,0.0,0.0,0.0,0.0,0.0,0.0,0.0,0.0,0.0,0.0,0.0,0.0,0.0,0.0,0.0,0.0,0.0,0.0,0.0,0.0,0.0,0.0,0.0,0.0,0.0,0.0,0.0,0.0,0.0,0.0,0.0,0.0,0.0,0.0,0.0,0.0,0.0,0.0,0.0,0.0,0.0,0.0,0.0,0.0,0.0,0.0,0.0,0.0,0.0,0.0,0.0,0.0,0.0,0.0,0.0,0.0,0.0,0.0,0.0,0.0,0.0,0.0,0.0,0.0,0.0,0.0,0.0,0.0,0.0,0.0,0.0,0.0,0.0,0.0,0.0,0.0,0.0,0.0,0.0,0.0,0.0,0.0,0.0,0.0,0.0,0.0,0.0,0.0,0.0,0.0,0.0,0.0,0.0,0.0,0.0,0.0,0.0,0.0,0.0,0.0,0.0,0.0,0.0,1.3206,1.3254,1.3423,1.3761,1.2856,1.2506,1.2795,0.0,0.0,0.0,0.0,0.0,0.0,0.0,0.0,0.0,0.0,0.0,0.0,0.0,0.0,0.0,0.0,0.0,0.0,0.0,0.0,0.0,0.0,0.0,0.0,0.0,0.0,0.0,0.0,0.0,0.0,0.0,0.0,0.0,0.0,0.0,0.0,0.0,0.0,0.0,0.0,0.0,0.0,0.0,0.0,0.0,0.0,0.0,0.0,0.0,0.0,0.0,0.0,0.0,0.0,0.0,0.0,0.0,0.0,0.0,0.0,0.0,0.0,0.0,0.0,0.0,0.0,0.0,0.0,0.0,0.0,0.0,0.0,0.0,0.0,0.0,0.0,0.0,0.0,0.0,0.0,0.0,0.0,0.0,0.0,0.0,0.0,0.0,0.0,0.0,0.0,0.0,0.0,0.0,0.0,0.0,0.0,0.0,0.0,0.0,0.0,0.0,0.0,0.0,0.0,0.0,0.0,0.0,0.0,1.4775,1.4716,1.4364,1.3737,1.3375,1.2928,0.0,0.0,0.0,0.0,0.0,0.0,0.0,0.0,0.0,0.0,0.0,0.0,0.0,0.0,0.0,0.0,0.0,0.0,0.0,0.0,0.0,0.0,0.0,0.0,0.0,0.0,0.0,0.0,0.0,0.0,0.0,0.0,0.0,0.0,0.0,0.0,0.0,0.0,0.0,0.0,0.0,0.0,0.0,0.0,0.0,0.0,0.0,0.0,0.0,0.0,0.0,0.0,0.0,0.0,0.0,0.0,0.0,0.0,0.0,0.0,0.0,0.0,0.0,0.0,0.0,0.0,0.0,0.0,0.0,0.0,0.0,0.0,0.0,0.0,0.0,0.0,0.0,0.0,0.0,0.0,0.0,0.0,0.0,0.0,0.0,0.0,0.0,0.0,0.0,0.0,0.0,0.0,0.0,0.0,0.0,0.0,0.0,0.0,0.0,0.0,0.0,0.0,0.0,0.0,0.0,0.0,0.0,0.0,0.0,1.5547,1.7862,1.7996,1.5956,1.4461,1.3725,0.0,0.0,0.0,0.0,0.0,0.0,0.0,0.0,0.0,0.0,0.0,0.0,0.0,0.0,0.0,0.0,0.0,0.0,0.0,0.0,0.0,0.0,0.0,0.0,0.0,0.0,0.0,0.0,0.0,0.0,0.0,0.0,0.0,0.0,0.0,0.0,0.0,0.0,0.0,0.0,0.0,0.0,0.0,0.0,0.0,0.0,0.0,0.0,0.0,0.0,0.0,0.0,0.0,0.0,0.0,0.0,0.0,0.0,0.0,0.0,0.0,0.0,0.0,0.0,0.0,0.0,0.0,0.0,0.0,0.0,0.0,0.0,0.0,0.0,0.0,0.0,0.0,0.0,0.0,0.0,0.0,0.0,0.0,0.0,0.0,0.0,0.0,0.0,0.0,0.0,0.0,0.0,0.0,0.0,0.0,0.0,0.0,0.0,0.0,0.0,0.0,0.0,0.0,0.0,0.0,0.0,0.0,0.0,1.431,1.638,1.9243,1.9734,1.7708,1.6211,1.5052,0.0,0.0,0.0,0.0,0.0,0.0,0.0,0.0,0.0,0.0,0.0,0.0,0.0,0.0,0.0,0.0,0.0,0.0,0.0,0.0,0.0,0.0,0.0,0.0,0.0,0.0,0.0,0.0,0.0,0.0,0.0,0.0,0.0,0.0,0.0,0.0,0.0,0.0,0.0,0.0,0.0,0.0,0.0,0.0,0.0,0.0,0.0,0.0,0.0,0.0,0.0,0.0,0.0,0.0,0.0,0.0,0.0,0.0,0.0,0.0,0.0,0.0,0.0,0.0,0.0,0.0,0.0,0.0,0.0,0.0,0.0,0.0,0.0,0.0,0.0,0.0,0.0,0.0,0.0,0.0,0.0,0.0,0.0,0.0,0.0,0.0,0.0,0.0,0.0,0.0,0.0,0.0,0.0,0.0,0.0,0.0,0.0,0.0,0.0,0.0,0.0,0.0,0.0,0.0,0.0,0.0,0.0,0.0,1.5144,1.7153,1.9504,2.0221,1.9249,1.8022,1.6453,0.0,0.0,0.0,0.0,0.0,0.0,0.0,0.0,0.0,0.0,0.0,0.0,0.0,0.0,0.0,0.0,0.0,0.0,0.0,0.0,0.0,0.0,0.0,0.0,0.0,0.0,0.0,0.0,0.0,0.0,0.0,0.0,0.0,0.0,0.0,0.0,0.0,0.0,0.0,0.0,0.0,0.0,0.0,0.0,0.0,0.0,0.0,0.0,0.0,0.0,0.0,0.0,0.0,0.0,0.0,0.0,0.0,0.0,0.0,0.0,0.0,0.0,0.0,0.0,0.0,0.0,0.0,0.0,0.0,0.0,0.0,0.0,0.0,0.0,0.0,0.0,0.0,0.0,0.0,0.0,0.0,0.0,0.0,0.0,0.0,0.0,0.0,0.0,0.0,0.0,0.0,0.0,0.0,0.0,0.0,0.0,0.0,0.0,0.0,0.0,0.0,0.0,0.0,0.0,0.0,0.0,0.0,0.0,1.5032,1.7696,1.9732,2.0451,1.9712,1.7865,1.626,0.0,0.0,0.0,0.0,0.0,0.0,0.0,0.0,0.0,0.0,0.0,0.0,0.0,0.0,0.0,0.0,0.0,0.0,0.0,0.0,0.0,0.0,0.0,0.0,0.0,0.0,0.0,0.0,0.0,0.0,0.0,0.0,0.0,0.0,0.0,0.0,0.0,0.0,0.0,0.0,0.0,0.0,0.0,0.0,0.0,0.0,0.0,0.0,2.0275,0.0,0.0,0.0,0.0,0.0,0.0,0.0,0.0,0.0,0.0,0.0,0.0,0.0,0.0,0.0,0.0,0.0,0.0,0.0,0.0,0.0,0.0,0.0,0.0,0.0,0.0,0.0,0.0,0.0,0.0,0.0,0.0,0.0,0.0,0.0,0.0,0.0,0.0,0.0,0.0,0.0,0.0,0.0,0.0,0.0,0.0,0.0,0.0,0.0,0.0,0.0,0.0,0.0,0.0,0.0,0.0,0.0,0.0,0.0,1.5292,1.8105,1.9866,2.0453,1.9845,1.83,1.6827,0.0,0.0,0.0,0.0,0.0,0.0,0.0,0.0,0.0,0.0,0.0,0.0,0.0,0.0,0.0,0.0,0.0,0.0,0.0,0.0,0.0,0.0,0.0,0.0,0.0,0.0,0.0,0.0,0.0,0.0,0.0,0.0,0.0,0.0,0.0,0.0,0.0,0.0,0.0,0.0,0.0,0.0,0.0,0.0,0.0,0.0,0.0,0.0,0.0,0.0,0.0,0.0,0.0,0.0,0.0,0.0,0.0,0.0,0.0,0.0,0.0,0.0,0.0,0.0,0.0,0.0,0.0,0.0,0.0,0.0,0.0,0.0,0.0,0.0,0.0,0.0,0.0,0.0,0.0,0.0,0.0,0.0,0.0,0.0,0.0,0.0,0.0,0.0,0.0,0.0,0.0,0.0,0.0,0.0,0.0,0.0,0.0,0.0,0.0,0.0,0.0,0.0,0.0,0.0,0.0,0.0,0.0,1.4104,1.5865,1.8572,1.9941,2.0502,1.9941,1.8951,1.766,1.6091,0.0,0.0,0.0,0.0,0.0,0.0,0.0,0.0,0.0,0.0,0.0,0.0,0.0,0.0,0.0,0.0,0.0,0.0,0.0,0.0,0.0,0.0,0.0,0.0,0.0,0.0,0.0,0.0,0.0,0.0,0.0,0.0,0.0,0.0,0.0,0.0,0.0,0.0,1.6814,1.8202,0.0,0.0,0.0,0.0,0.0,0.0,0.0,0.0,2.0326,0.0,0.0,0.0,0.0,0.0,0.0,0.0,0.0,0.0,0.0,0.0,0.0,0.0,0.0,0.0,0.0,0.0,0.0,0.0,0.0,0.0,0.0,0.0,0.0,0.0,0.0,0.0,0.0,0.0,0.0,0.0,0.0,0.0,0.0,0.0,0.0,0.0,0.0,0.0,0.0,0.0,0.0,0.0,0.0,0.0,0.0,0.0,0.0,0.0,0.0,0.0,0.0,0.0,0.0,0.0,0.0,1.4115,1.5132,1.6759,1.8976,2.0062,2.0622,2.0207,1.9386,1.8203,1.6634,0.0,0.0,0.0,0.0,0.0,0.0,0.0,0.0,0.0,0.0,0.0,0.0,0.0,0.0,0.0,0.0,0.0,0.0,0.0,0.0,0.0,0.0,0.0,0.0,0.0,0.0,0.0,0.0,0.0,0.0,0.0,0.0,0.0,0.0,0.0,0.0,0.0,0.0,0.0,1.8145,1.8978,0.0,0.0,0.0,0.0,0.0,0.0,0.0,0.0,2.0394,0.0,0.0,0.0,0.0,0.0,0.0,0.0,0.0,0.0,0.0,0.0,0.0,0.0,0.0,0.0,0.0,0.0,0.0,0.0,0.0,0.0,0.0,0.0,0.0,0.0,0.0,0.0,0.0,0.0,0.0,0.0,0.0,0.0,0.0,0.0,0.0,0.0,0.0,0.0,0.0,0.0,0.0,0.0,0.0,0.0,0.0,0.0,0.0,0.0,0.0,0.0,0.0,0.0,0.0,0.0,1.3986,1.5456,1.7478,1.9875,2.0415,2.0472,2.0074,1.9169,1.8046,0.0,0.0,0.0,0.0,0.0,0.0,0.0,0.0,0.0,0.0,0.0,0.0,0.0,0.0,0.0,0.0,0.0,0.0,0.0,0.0,0.0,0.0,0.0,0.0,0.0,0.0,0.0,0.0,0.0,0.0,0.0,0.0,0.0,0.0,0.0,0.0,0.0,0.0,0.0,0.0,1.8206,1.9288,2.0201,0.0,0.0,0.0,0.0,0.0,0.0,2.0549,2.048,0.0,0.0,0.0,0.0,0.0,0.0,0.0,0.0,0.0,0.0,0.0,0.0,0.0,0.0,0.0,0.0,0.0,0.0,0.0,0.0,0.0,0.0,0.0,0.0,0.0,0.0,0.0,0.0,0.0,0.0,0.0,0.0,0.0,0.0,0.0,0.0,0.0,0.0,0.0,0.0,0.0,0.0,0.0,0.0,0.0,0.0,0.0,0.0,0.0,0.0,0.0,0.0,0.0,0.0,0.0,1.3614,1.561,1.8042,2.056,2.0698,2.0448,1.9965,1.8927,1.7877,0.0,0.0,0.0,0.0,0.0,0.0,0.0,0.0,0.0,0.0,0.0,0.0,0.0,0.0,0.0,0.0,0.0,0.0,0.0,0.0,0.0,0.0,0.0,0.0,0.0,0.0,0.0,0.0,0.0,0.0,0.0,0.0,0.0,0.0,0.0,0.0,0.0,0.0,0.0,0.0,0.0,2.0063,2.0388,2.1045,0.0,0.0,0.0,0.0,2.1062,2.1097,0.0,0.0,0.0,0.0,0.0,0.0,0.0,0.0,0.0,0.0,0.0,0.0,0.0,0.0,0.0,0.0,0.0,0.0,0.0,0.0,0.0,0.0,0.0,0.0,0.0,0.0,0.0,0.0,0.0,0.0,0.0,0.0,0.0,0.0,0.0,0.0,0.0,0.0,0.0,0.0,0.0,0.0,0.0,0.0,0.0,0.0,0.0,0.0,0.0,0.0,0.0,0.0,0.0,0.0,0.0,0.0,1.3624,1.5649,1.7948,2.056,2.0698,2.0533,2.0231,1.9193,1.8143,0.0,0.0,0.0,0.0,0.0,0.0,0.0,0.0,0.0,0.0,0.0,0.0,0.0,0.0,0.0,0.0,0.0,0.0,0.0,0.0,0.0,0.0,0.0,0.0,0.0,0.0,0.0,0.0,0.0,0.0,0.0,0.0,0.0,0.0,0.0,0.0,0.0,0.0,0.0,0.0,0.0,2.1514,2.0908,2.1456,2.1764,0.0,0.0,2.1816,2.1867,2.2946,0.0,0.0,0.0,0.0,0.0,0.0,0.0,0.0,0.0,0.0,0.0,0.0,0.0,0.0,0.0,0.0,0.0,0.0,0.0,0.0,0.0,0.0,0.0,0.0,0.0,0.0,0.0,0.0,0.0,0.0,0.0,0.0,0.0,0.0,0.0,0.0,0.0,0.0,0.0,0.0,0.0,0.0,0.0,0.0,0.0,0.0,0.0,0.0,0.0,0.0,0.0,0.0,0.0,0.0,0.0,1.4259,1.4425,1.587,1.7883,2.0179,2.0478,2.0391,1.9833,1.8782,1.7793,0.0,0.0,0.0,0.0,0.0,0.0,0.0,0.0,0.0,0.0,0.0,0.0,0.0,0.0,0.0,0.0,0.0,0.0,0.0,0.0,0.0,0.0,0.0,0.0,0.0,0.0,0.0,0.0,0.0,0.0,0.0,0.0,0.0,0.0,0.0,0.0,0.0,0.0,0.0,0.0,0.0,0.0,2.0934,2.1884,0.0,0.0,0.0,2.2518,2.3169,0.0,0.0,0.0,0.0,0.0,0.0,0.0,0.0,0.0,0.0,0.0,0.0,0.0,0.0,0.0,0.0,0.0,0.0,0.0,0.0,0.0,0.0,0.0,0.0,0.0,0.0,0.0,0.0,0.0,0.0,0.0,0.0,0.0,0.0,0.0,0.0,0.0,0.0,0.0,0.0,0.0,0.0,0.0,0.0,0.0,0.0,0.0,0.0,0.0,0.0,0.0,0.0,0.0,0.0,0.0,0.0,0.0,1.5076,1.646,1.803,1.9817,2.0405,2.0417,1.9579,1.8469,0.0,0.0,0.0,0.0,0.0,0.0,0.0,0.0,0.0,0.0,0.0,0.0,0.0,0.0,0.0,0.0,0.0,0.0,0.0,0.0,0.0,0.0,0.0,0.0,0.0,0.0,0.0,1.3133,0.0,0.0,0.0,0.0,0.0,0.0,0.0,0.0,0.0,0.0,0.0,0.0,0.0,0.0,2.1907,2.1258,2.2535,2.334,0.0,0.0,2.3511,2.4264,2.4316,2.4162,0.0,0.0,0.0,0.0,0.0,0.0,0.0,0.0,0.0,0.0,0.0,0.0,0.0,0.0,0.0,0.0,0.0,0.0,0.0,0.0,0.0,0.0,0.0,0.0,0.0,0.0,0.0,0.0,0.0,0.0,0.0,0.0,0.0,0.0,0.0,0.0,0.0,0.0,0.0,0.0,0.0,0.0,0.0,0.0,0.0,0.0,0.0,0.0,0.0,0.0,0.0,0.0,0.0,0.0,1.4791,1.5199,1.7316,1.8884,1.982,2.0376,2.0388,1.9857,1.8565,1.7503,0.0,0.0,0.0,0.0,0.0,0.0,0.0,0.0,0.0,0.0,0.0,0.0,0.0,0.0,0.0,0.0,0.0,0.0,0.0,0.0,0.0,0.0,0.0,0.0,0.0,0.0,0.0,0.0,0.0,0.0,0.0,0.0,0.0,0.0,0.0,0.0,0.0,0.0,0.0,0.0,0.0,2.3133,2.2073,2.3511,2.4693,0.0,2.4949,2.5104,2.483,2.6199,2.6371,2.3648,0.0,0.0,0.0,0.0,0.0,0.0,0.0,0.0,0.0,0.0,0.0,0.0,0.0,0.0,0.0,0.0,0.0,0.0,0.0,0.0,0.0,0.0,0.0,0.0,0.0,0.0,0.0,0.0,0.0,0.0,0.0,0.0,0.0,0.0,0.0,0.0,0.0,0.0,0.0,0.0,0.0,0.0,0.0,0.0,0.0,0.0,0.0,0.0,0.0,0.0,0.0,0.0,0.0,1.4988,1.5099,1.7205,1.8865,2.0345,2.001,1.9664,1.9627,1.8336,1.7334,0.0,0.0,0.0,0.0,0.0,0.0,0.0,0.0,0.0,0.0,0.0,0.0,0.0,0.0,0.0,0.0,0.0,0.0,0.0,0.0,0.0,0.0,0.0,0.0,0.0,0.0,0.0,0.0,1.3423,1.3471,1.3725,0.0,0.0,0.0,0.0,0.0,0.0,0.0,0.0,0.0,0.0,2.3785,2.3117,2.4453,0.0,0.0,2.548,2.584,2.6165,2.6422,2.6182,2.5035,2.4436,0.0,0.0,0.0,0.0,0.0,0.0,0.0,0.0,0.0,0.0,0.0,0.0,0.0,0.0,0.0,0.0,0.0,0.0,0.0,0.0,0.0,0.0,0.0,0.0,0.0,0.0,0.0,0.0,0.0,0.0,0.0,0.0,0.0,0.0,0.0,0.0,0.0,0.0,0.0,0.0,0.0,0.0,0.0,0.0,0.0,0.0,0.0,0.0,0.0,0.0,0.0,0.0,1.5082,1.5065,1.6863,1.8663,2.0183,1.9493,1.9205,1.9422,1.8179,1.7274,0.0,0.0,0.0,0.0,0.0,0.0,0.0,0.0,0.0,0.0,0.0,0.0,0.0,0.0,0.0,0.0,0.0,0.0,0.0,0.0,0.0,0.0,0.0,0.0,0.0,0.0,0.0,0.0,1.3749,1.3785,1.3894,0.0,0.0,0.0,0.0,0.0,0.0,0.0,0.0,0.0,0.0,2.4093,2.3734,2.4967,2.5874,2.572,2.584,2.6199,2.6953,2.6439,2.5823,2.548,0.0,0.0,0.0,0.0,0.0,0.0,0.0,0.0,0.0,0.0,0.0,0.0,0.0,0.0,0.0,0.0,0.0,0.0,0.0,0.0,0.0,0.0,0.0,0.0,0.0,0.0,0.0,0.7366,0.0,0.0,0.738,0.0,0.0,0.0,0.0,0.0,0.0,0.0,0.0,0.0,0.0,0.0,0.0,0.0,0.0,0.0,0.0,0.0,0.0,0.0,0.0,0.0,0.0,1.5164,1.5087,1.6703,1.7998,1.9164,1.9072,1.9205,1.941,1.8179,1.7358,1.7068,0.0,0.0,0.0,0.0,0.0,0.0,0.0,0.0,0.0,0.0,0.0,0.0,0.0,0.0,0.0,0.0,0.0,0.0,0.0,0.0,0.0,0.0,0.0,0.0,0.0,0.0,1.4268,1.428,1.4171,0.0,0.0,0.0,0.0,0.0,0.0,0.0,0.0,0.0,2.0006,2.2411,2.411,2.3751,2.4984,2.608,2.6405,2.6165,2.6217,2.6953,2.6439,2.5566,0.0,0.0,0.0,0.0,0.0,0.0,0.0,0.0,0.0,0.0,0.0,0.0,0.0,0.0,0.0,0.0,0.0,0.0,0.0,0.0,0.0,0.0,0.0,0.0,0.0,0.0,0.0,0.8722,0.8536,0.0,0.0,0.0,0.0,0.0,0.0,0.0,0.0,0.0,0.0,0.0,1.0952,1.1288,0.0,0.0,0.0,0.0,0.0,0.0,0.0,0.0,0.0,0.0,0.0,0.0,1.5247,1.5209,1.6902,1.7961,1.8518,1.8976,1.912,1.9193,1.868,1.8022,1.7129,0.0,0.0,0.0,0.0,0.0,0.0,0.0,0.0,0.0,0.0,0.0,0.0,0.0,0.0,0.0,0.0,0.0,0.0,0.0,0.0,0.0,0.0,0.0,0.0,0.0,1.4304,0.0,0.0,0.0,0.0,0.0,0.0,0.0,0.0,0.0,0.0,2.1277,2.1604,2.1677,2.3368,2.4573,2.4453,2.572,2.6645,0.0,0.0,0.0,0.0,0.0,0.0,0.0,0.0,0.0,0.0,0.0,0.0,0.0,0.0,2.9679,2.6768,2.605,2.5919,2.6199,0.0,0.0,0.0,0.0,0.0,0.0,0.0,0.0,0.0,0.0,0.0,0.0,0.0,0.0,1.0045,1.0009,0.8387,0.0,0.0,0.0,0.0,0.0,0.0,0.0,0.0,1.198,1.2657,1.2925,1.3707,1.4216,0.0,1.4753,1.4712,0.0,0.0,0.0,0.0,0.0,0.0,0.0,0.0,1.5683,1.5951,1.7158,1.8082,1.8506,1.8891,1.9115,1.906,1.8631,1.8206,1.776,1.7081,1.6445,0.0,0.0,0.0,0.0,0.0,0.0,0.0,0.0,0.0,0.0,0.0,0.0,0.0,0.0,0.0,0.0,0.0,0.0,0.0,0.0,0.0,0.0,0.0,1.4854,0.0,0.0,0.0,0.0,0.0,0.0,0.0,0.0,0.0,2.17,2.2021,2.2374,2.3014,2.411,2.4915,2.5172,0.0,0.0,0.0,0.0,0.0,0.0,0.0,2.644,2.685,2.673,2.728,2.9148,3.0736,3.174,3.1918,0.0,0.0,2.9302,2.8535,2.8416,2.8578,2.9636,3.071,3.1131,3.2706,3.4146,0.0,0.0,0.0,0.0,0.0,0.0,0.0,0.0,1.1144,1.157,0.0,0.9275,0.0,0.0,0.0,0.0,0.9706,1.0624,0.0,0.0,1.4792,1.5813,1.6174,1.5478,1.5726,1.6706,1.6294,1.6018,1.5837,1.4618,0.0,0.0,0.0,0.0,0.0,0.0,1.616,1.7478,1.7554,1.8046,1.9036,1.9247,1.9234,1.9188,1.8179,1.8058,1.8823,1.8822,1.8206,1.6953,1.674,0.0,0.0,0.0,0.0,0.0,0.0,0.0,0.0,0.0,0.0,0.0,0.0,0.0,0.0,0.0,0.0,0.0,0.0,0.0,0.0,1.5818,0.0,0.0,0.0,0.0,0.0,0.0,0.0,0.0,0.0,2.1163,2.2542,2.265,2.3014,2.4093,0.0,0.0,0.0,0.0,2.6251,2.6987,2.6799,2.6953,2.8015,2.7148,2.6671,2.748,0.0,0.0,2.985,3.0754,3.1796,3.2752,3.3779,3.4051,3.3637,3.2687,3.2135,3.2175,3.3534,3.4548,3.4419,3.6568,3.8492,1.2581,0.0,0.0,0.0,0.0,1.1791,1.2529,1.3689,1.3869,1.3858,1.372,1.3986,0.0,0.0,0.0,0.0,0.0,0.0,1.2991,1.4321,1.5188,1.602,1.6863,1.6875,1.6994,1.7249,1.7869,1.7603,1.6453,1.5885,1.5354,1.4883,0.0,0.0,0.0,0.0,1.6673,1.7774,1.8386,1.8994,1.9634,1.9927,2.0059,2.0153,1.9998,2.002,2.0444,1.9892,1.9245,1.8352,1.6545,0.0,0.0,0.0,0.0,0.0,0.0,0.0,0.0,0.0,0.0,0.0,0.0,0.0,0.0,0.0,0.0,0.0,0.0,0.0,1.5058,1.6606,1.7302,0.0,0.0,0.0,0.0,0.0,0.0,0.0,0.0,0.0,2.472,2.426,2.3973,0.0,0.0,2.5686,2.5908,2.6405,2.6919,2.7381,2.7826,0.0,2.8186,2.7849,2.7922,2.8656,3.0929,3.2993,3.3985,3.5062,3.5828,3.6521,3.6614,3.6639,3.6712,3.5707,3.4966,3.4924,3.6781,3.8473,3.8861,4.041,4.1856,1.5929,1.3583,1.3267,1.3317,1.385,1.3984,1.4681,1.5852,1.6012,1.6012,1.5898,1.6034,1.5085,1.3423,1.2499,0.0,0.0,0.0,1.4553,1.6,1.6412,1.7124,1.8034,1.8042,1.8285,1.842,1.9127,1.886,1.7636,1.7261,1.6839,1.6344,0.0,1.5475,1.6054,1.6525,1.7189,1.8155,1.8831,1.941,1.9917,2.033,2.0497,2.0513,2.0265,2.0372,2.0902,2.0798,2.0245,1.8977,1.7756,1.6637,0.0,0.0,0.0,0.0,0.0,0.0,0.0,0.0,0.0,0.0,0.0,1.552,1.4949,0.0,0.0,0.0,1.6553,1.6607,1.6701,1.8047,0.0,0.0,0.0,0.0,0.0,0.0,0.0,2.1729,2.3022,2.4429,2.6116,2.5752,2.5395,2.5463,2.5874,2.6268,2.6559,0.0,2.7518,2.8186,2.8682,2.9008,2.9076,2.9121,2.9611,3.131,3.2746,3.4448,3.5989,3.6797,3.7575,3.8202,3.8378,3.8285,3.85,3.8502,3.859,3.9078,4.0228,4.1369,4.2118,4.3481,4.4681,1.8877,1.8342,1.568,1.5266,1.6187,1.6209,1.6839,1.7708,1.7732,1.7962,1.8177,1.6253,1.5785,1.6462,1.4761,0.0,1.533,1.5352,1.6332,1.801,1.8287,1.8807,1.9495,1.9314,1.9444,1.9869,1.9955,1.9695,1.9072,1.8613,1.8384,1.8312,1.6875,1.626,1.6525,1.7225,1.7853,1.842,1.9285,1.9772,2.0119,2.0655,2.0902,2.0618,1.9756,1.9747,2.0648,2.1383,2.0963,1.9249,1.9546,1.838,1.5389,0.0,0.0,0.0,0.0,0.0,0.0,0.0,0.0,0.0,0.0,0.0,0.0,0.0,0.0,1.789,1.9283,0.0,1.9794,1.9908,0.0,0.0,0.0,1.9345,2.113,2.1345,2.1683,2.263,0.0,0.0,2.6911,2.7088,2.6987,2.6628,2.6593,2.6867,2.7552,2.7706,2.8134,2.9162,2.9402,2.9693,3.0258,3.0582,3.1625,3.4252,3.4176,3.4508,3.6386,3.7208,3.7763,3.8705,3.9309,3.9516,3.9226,4.0763,4.2848,4.3825,4.3841,4.3764,4.4523,4.5779,4.6839,2.1562,2.155,2.0533,1.9522,1.8628,1.8829,1.9161,1.9627,1.982,1.9531,1.8879,1.8333,1.8435,1.8919,1.7301,1.6926,1.7552,1.7741,1.8268,1.9084,1.9374,1.9615,1.9784,1.9711,1.9735,1.9881,2.034,2.0166,1.9374,1.9253,1.9084,1.8879,1.8505,1.8251,1.8131,1.8545,1.9136,1.9887,2.0547,2.1044,2.1358,2.2107,2.1885,2.0605,2.1515,2.2155,2.2368,2.158,2.0969,2.0617,1.8644,1.6876,1.5774,1.5634,0.0,0.0,0.0,0.0,0.0,0.0,0.0,0.0,0.0,1.6992,1.6346,0.0,1.9011,0.0,2.0736,2.0851,1.9245,2.0078,0.0,0.0,2.1154,2.1803,2.3235,2.3753,2.3744,2.3407,2.4741,2.6007,2.7011,2.7315,2.745,2.7347,2.7604,2.786,2.8049,2.8563,2.9093,2.9676,3.0206,3.0669,3.084,3.1791,3.323,3.5588,3.6074,3.6838,3.8438,3.8876,3.9199,3.9667,3.9972,4.0096,4.0417,4.1749,4.3524,4.5676,4.6048,4.6211,4.674,4.7454,4.8033,2.2874,2.2971,2.2561,2.1812,2.0883,2.081,2.0786,2.0822,2.0967,2.0629,1.9929,1.9591,1.9749,2.0165,1.8914,1.8529,1.8819,1.8963,1.9265,1.9652,1.982,2.0014,2.0231,2.0231,2.0231,2.0231,2.0527,2.0453,2.0014,2.0002,1.9929,1.9784,1.9784,1.9844,1.9817,1.9585,1.9825,2.0402,2.1217,2.1632,2.1885,2.3103,2.2841,2.0952,2.2405,2.2871,2.2085,2.2276,2.1826,2.0728,1.9439,1.7848,1.5988,1.5854,1.6047,0.0,0.0,0.0,0.0,0.0,0.0,0.0,0.0,0.0,0.0,0.0,2.0884,2.1131,2.1979,2.1777,2.0112,2.1394,2.2412,2.2732,2.3079,2.3661,2.4582,2.4932,2.4981,2.468,2.5494,2.6454,2.7004,2.7555,2.7792,2.7638,2.822,2.8631,2.8545,2.9093,2.971,3.0087,3.048,3.084,3.1167,3.2296,3.4325,3.6976,3.7628,3.7986,3.9219,3.9979,4.0327,4.0717,4.1067,4.127,4.1046,4.2526,4.4649,4.6763,4.7417,4.7413,4.7872,4.8194,4.8377,2.3368,2.3368,2.3261,2.2971,2.2669,2.2211,2.1848,2.1583,2.1583,2.1426,2.1266,2.0364,2.0221,2.0605,1.994,1.9652,1.9724,1.9652,1.9784,2.0086,2.0086,2.034,2.0762,2.0726,2.0714,2.0726,2.0714,2.0702,2.0665,2.0738,2.075,2.0726,2.0853,2.0979,2.1195,2.0478,2.0379,2.0793,2.1382,2.1872,2.1833,2.3911,2.3793,2.1545,2.2751,2.2883,2.1496,2.2926,2.2776,2.0641,2.0614,1.9341,1.6291,1.6542,1.7653,0.0,1.9209,0.0,0.0,0.0,0.0,0.0,0.0,0.0,0.0,2.108,2.196,2.2656,2.3032,2.277,2.1982,2.3302,2.4264,2.4384,2.4727,2.5104,2.5463,2.5549,2.569,2.605,2.6406,2.6696,2.7039,2.7723,2.8049,2.7843,2.8597,2.9128,2.8974,2.9487,3.0069,3.0395,3.048,3.0823,3.1495,3.2731,3.4845,3.8187,3.8586,3.8447,3.9584,4.0528,4.1316,4.1422,4.2344,4.2709,4.1391,4.3368,4.5816,4.7888,4.8048,4.7872,4.824,4.8354,4.8377,2.3728,2.371,2.3632,2.3418,2.2959,2.2862,2.2549,2.2114,2.2114,2.2129,2.1995,2.1242,2.0778,2.0733,2.0479,2.0678,2.1064,2.0641,2.0702,2.1185,2.1172,2.1233,2.1317,2.0922,2.0826,2.0991,2.1132,2.1023,2.0678,2.1112,2.1209,2.0991,2.1261,2.143,2.1622,0.0,0.0,0.0,2.1997,2.1932,2.2364,2.5203,2.5236,2.2362,2.378,0.0,2.3591,2.2429,2.1953,2.2103,1.9688,0.0,0.0,0.0,0.0,0.0,0.0,0.0,0.0,0.0,0.0,0.0,2.1317,2.1186,2.0953,2.2295,2.3321,2.3453,2.3508,2.3576,2.3668,2.3928,2.4487,2.5086,2.5497,2.5874,2.6234,2.6542,2.6816,2.6798,2.6953,2.6987,2.7124,2.7723,2.8152,2.8134,2.8785,2.9248,2.923,2.983,3.0326,3.0429,3.0635,3.0857,3.0972,3.3193,3.5635,3.7728,3.884,3.9507,4.0386,4.1025,4.1465,4.1763,4.2959,4.3556,4.284,4.4671,4.6653,4.8163,4.8321,4.8286,4.8377,4.8377,4.8377,2.3932,2.3853,2.3788,2.3611,0.0,2.3249,2.3019,2.2633,2.2367,2.2362,2.2298,2.1545,2.1424,2.1412,2.1132,2.1016,2.1257,2.0991,2.1003,2.1269,2.1281,2.1341,2.1474,2.1329,2.1257,2.1269,2.1424,2.1351,2.1088,2.1628,2.1677,2.1685,2.1815,2.2036,2.2473,2.2613,2.261,2.2323,2.1991,2.2321,2.343,2.5642,2.5942,2.4344,2.5633,0.0,0.0,0.0,0.0,0.0,0.0,0.0,0.0,2.1549,0.0,2.3117,2.3117,2.2703,2.1611,2.1506,2.1877,2.2765,2.2947,2.2831,2.2391,2.3233,2.3857,2.4225,2.4201,2.4316,2.4504,2.5018,2.5497,2.5891,2.6268,2.6576,2.6765,2.6953,2.7073,2.7073,2.7073,2.7263,2.7626,2.7968,2.8254,2.8477,2.8956,2.9384,2.959,2.9915,3.0172,3.0172,3.0833,3.102,3.088,3.3434,3.5996,3.7015,3.8523,3.9992,4.1011,4.1635,4.2418,4.2979,4.4096,4.4923,4.5062,4.6133,4.7258,4.8182,4.846,4.8377,4.8377,4.8377,4.8377,2.4124,2.375,2.3848,2.3731,2.3454,2.3454,2.3297,2.3019,2.2585,0.0,0.0,2.191,2.2091,2.2363,2.1628,2.1293,2.1329,2.1245,2.1233,2.1269,2.1269,2.139,2.1607,2.1728,2.1703,2.1547,2.1703,2.1679,2.1486,2.198,2.2137,2.21,2.2244,2.2663,2.334,2.3625,2.3245,2.2215,2.21,2.2873,2.4588,2.6299,2.6954,2.6391,2.7568,2.7326,2.5683,2.5595,2.5234,2.4506,2.4421,2.3874,2.2533,2.302,2.3527,2.3877,2.3894,2.3823,2.3768,2.3785,2.3819,2.3871,2.4213,2.423,2.3785,2.3871,2.4205,2.4792,2.4861,2.5018,2.5035,2.5891,2.6525,2.6593,2.6884,2.7073,2.7073,2.7073,2.7073,2.7073,2.7073,2.7314,2.7904,2.8054,2.8306,2.8631,2.9025,2.9402,2.9727,2.9847,2.9932,2.9932,3.0502,3.0831,3.0804,3.3192,3.5586,3.5996,3.8263,4.041,4.1177,4.2224,4.3316,4.393,4.5254,4.6242,4.6843,4.7279,4.7901,4.8326,4.846,4.8377,4.8377,4.8377,4.8377,2.421,2.3821,2.41,2.39,2.3454,2.3454,2.3297,2.3043,2.2959,2.2721,2.2307,2.2661,2.2955,2.2906,2.2445,2.2211,2.2392,2.1957,2.1873,2.209,2.209,2.2114,2.2138,2.1921,2.1824,2.1812,2.1824,2.1704,2.1547,2.208,2.2337,2.2422,2.2676,2.3143,2.3652,2.3768,2.3728,2.3492,2.3087,2.3501,2.4887,2.8643,2.9595,2.7599,2.8689,2.8627,2.6991,2.6592,2.6114,2.5281,2.5454,2.5368,2.5002,2.5605,2.5605,2.4703,2.4703,2.4473,2.4145,2.4162,2.4299,2.4641,2.5001,2.4787,2.3837,2.4616,2.5018,2.4872,2.5343,2.5788,2.5823,2.6217,2.6645,2.6936,2.7039,2.7073,2.7073,2.7073,2.7073,2.7073,2.7073,2.7107,2.7417,2.7809,2.8237,2.8391,2.8939,2.9333,2.9453,2.9693,2.9881,2.9898,3.0032,3.0015,3.0386,3.2819,3.5046,3.5139,3.797,4.0392,4.1284,4.2245,4.3195,4.4116,4.562,4.668,4.6936,4.772,4.8131,4.8441,4.8338,4.8377,4.8377,4.8377,4.8377,2.454,2.4208,2.413,2.3888,2.3659,2.3659,2.3599,2.3478,2.3478,2.3225,2.2826,2.2826,2.3157,2.3463,2.2603,2.2404,2.2633,2.2247,2.215,2.2259,2.2271,2.2271,2.2259,2.2138,2.209,2.2078,2.2078,2.2017,2.1945,2.2596,2.293,2.2965,2.3555,2.4009,2.4182,2.4329,2.4915,2.5749,2.4154,2.4442,2.6755,2.985,3.0889,2.9653,2.9901,2.9489,2.8517,2.7893,2.749,2.7343,2.6391,2.5901,2.6026,2.5829,2.5523,2.5308,2.5343,2.518,2.4977,2.5168,2.5471,2.5552,2.6031,2.5839,2.4974,2.5298,2.5863,2.6381,2.6174,2.5948,2.6485,2.6695,2.6867,2.7056,2.7073,2.7073,2.7073,2.7073,2.7073,2.7073,2.7073,2.7227,2.7638,2.798,2.8391,2.8717,2.9145,2.9299,2.9299,2.9453,2.9573,2.9705,3.0495,3.0978,3.106,3.403,3.607,3.6196,3.8812,4.0899,4.2027,4.2972,4.3871,4.4709,4.5851,4.6472,4.6866,4.7486,4.8039,4.8384,4.8407,4.8377,4.8377,4.8377,4.8377,2.4564,2.4311,2.4045,2.39,2.384,2.384,2.384,2.384,2.384,2.3636,2.323,2.3052,2.3255,2.3575,2.2821,2.2609,2.2693,2.2524,2.2404,2.2355,2.2343,2.2355,2.2355,2.2343,2.2343,2.2355,2.2404,2.2591,2.2729,2.3179,2.3629,2.3779,2.4539,2.4807,2.4717,2.4953,2.5664,2.6786,2.5726,2.6239,2.8712,3.075,3.1601,3.1524,3.0827,3.0185,2.9599,2.9067,2.881,2.8792,2.7229,2.6441,2.6558,2.5681,2.5423,2.586,2.6059,2.6113,2.5963,2.6229,2.6388,2.6388,2.6761,2.6725,2.6192,2.6045,2.6481,2.7633,2.6859,2.6525,2.6998,2.7193,2.7315,2.7315,2.7177,2.7194,2.7194,2.7194,2.7056,2.7056,2.7194,2.7452,2.8019,2.8277,2.8604,2.9111,2.9299,2.9299,2.9299,2.9316,2.9447,2.9813,3.0988,3.1894,3.1946,3.4772,3.6835,3.7094,3.9571,4.1437,4.2549,4.3487,4.4482,4.521,4.5783,4.6196,4.6469,4.7206,4.7734,4.8269,4.8453,4.8377,4.8377,4.8377,4.8377,2.4484,2.4022,2.4124,2.4057,2.3876,2.3852,2.3852,2.3852,2.384,2.3854,2.3744,2.3647,2.3524,2.3182,2.3248,2.3188,2.3007,2.2983,2.2838,2.2633,2.2621,2.2621,2.2609,2.2621,2.2609,2.2469,2.2826,2.323,2.3538,2.355,2.4035,2.4661,2.5272,2.5438,2.5451,2.5224,2.5241,2.5527,2.7595,2.9373,3.0632,3.1903,3.2356,3.1964,3.1506,3.0736,2.9709,2.9874,2.9544,2.8572,2.8235,2.7723,2.6749,2.6512,2.6417,2.6601,2.7176,2.7359,2.6839,2.6778,2.6911,2.6831,2.7267,2.7346,2.6941,2.695,2.7204,2.7849,2.7973,2.7842,2.7523,2.767,2.79,2.7779,2.7659,2.7521,2.7401,2.7297,2.7056,2.7091,2.728,2.7713,2.8184,2.855,2.8783,2.9213,2.9299,2.9299,2.9316,2.9613,2.9733,2.9993,3.0875,3.1797,3.26,3.4444,3.6638,3.7678,3.955,4.1483,4.2704,4.3759,4.4796,4.521,4.5783,4.5966,4.6032,4.6534,4.7689,4.8177,4.8384,4.8377,4.8377,4.8377,4.8377,2.4603,2.3868,2.4267,2.4407,2.4299,2.4142,2.4082,2.4069,2.3913,2.3792,2.3879,2.3804,2.3756,2.3428,2.3333,2.3225,2.3273,2.3116,2.2983,2.2887,2.2887,2.2874,2.2887,2.2887,2.2874,2.2838,2.3292,2.3828,2.4316,2.4444,2.4739,2.5198,2.5365,2.5598,2.5745,2.5665,2.6142,2.7352,2.7187,2.8753,3.2211,3.3139,3.3065,3.2698,3.2093,3.1433,3.0736,3.0607,3.0204,2.9525,2.9232,2.8966,2.8672,2.784,2.7311,2.7283,2.7596,2.7691,2.7422,2.7658,2.7803,2.7803,2.8147,2.8264,2.8145,2.817,2.8289,2.8537,2.8636,2.8553,2.8199,2.8051,2.802,2.802,2.79,2.7779,2.7762,2.7659,2.7521,2.7228,2.7574,2.8079,2.8535,2.8902,2.9153,2.9344,2.9447,2.9578,2.9464,2.9751,3.0091,3.0165,3.13,3.2643,3.3577,3.5639,3.7563,3.9422,4.1309,4.286,4.3579,4.4347,4.514,4.5347,4.576,4.5804,4.5522,4.6649,4.7734,4.8177,4.8384,4.8377,4.8377,4.8377,4.8377,2.4651,2.4327,2.4576,2.4625,2.4613,2.4432,2.4299,2.4214,2.4033,2.3913,2.384,2.384,2.3756,2.3733,2.3357,2.3345,2.3418,2.3321,2.3212,2.3164,2.3152,2.3152,2.3152,2.3307,2.3283,2.3259,2.3835,2.4532,2.5179,2.5308,2.5449,2.5745,2.5758,2.5865,2.6039,2.6012,2.6779,2.7871,2.6304,2.7951,3.2967,3.3872,3.3624,3.3193,3.2533,3.1983,3.1579,3.1176,3.0772,3.0369,2.9855,2.9878,3.0475,2.9241,2.8373,2.8119,2.798,2.7985,2.8095,2.8388,2.8553,2.8572,2.8828,2.9012,2.8929,2.8947,2.8947,2.8947,2.8984,2.8846,2.8654,2.8379,2.8295,2.8385,2.842,2.83,2.8318,2.83,2.8006,2.7521,2.7939,2.8641,2.9244,2.9506,2.9466,2.9657,2.9796,2.9848,2.9785,3.0195,3.0472,3.0459,3.1897,3.3354,3.4624,3.6616,3.8904,4.0891,4.277,4.3666,4.4412,4.5004,4.5347,4.5393,4.5737,4.5966,4.6007,4.6973,4.7712,4.8171,4.8377,4.8377,4.8377,4.8377,4.8377,2.5047,2.5167,2.4745,2.4649,2.4637,2.4601,2.4468,2.4263,2.4202,2.4069,2.3852,2.3852,2.384,2.3816,2.378,2.3671,2.3514,2.3695,2.3659,2.3454,2.3454,2.3442,2.3442,2.3889,2.3707,2.3514,2.4402,2.5187,2.5846,2.6162,2.6346,2.6333,2.6306,2.6333,2.6319,2.6262,2.6162,2.653,2.5691,2.7849,3.2981,3.3819,3.3611,3.3321,3.2808,3.2386,3.1983,3.1561,3.1157,3.0772,3.0039,3.0092,3.1073,3.0424,2.9559,2.9021,2.8542,2.8517,2.8828,2.8902,2.8938,2.8957,2.9012,2.9012,2.9048,2.9048,2.903,2.8993,2.8993,2.8993,2.8993,2.8856,2.9021,2.9331,2.9161,2.904,2.904,2.8796,2.8357,2.8144,2.8671,2.9349,3.014,3.0041,3.0107,3.0135,3.0268,3.0345,3.0247,3.0693,3.1077,3.1338,3.2045,3.3175,3.5732,3.7412,3.9516,4.1571,4.2705,4.3849,4.4369,4.48,4.521,4.5393,4.5553,4.5944,4.6586,4.7115,4.7574,4.7987,4.8308,4.8377,4.8377,4.8377,4.8377,2.5301,2.5289,2.5011,2.4987,2.5096,2.4782,2.4564,2.4456,2.4118,2.3937,2.3888,2.3836,2.3824,2.3852,2.3848,2.3776,2.3744,2.3973,2.3949,2.3768,2.4045,2.4195,2.4221,2.4504,2.4639,2.4794,2.5199,2.5753,2.607,2.6386,2.64,2.64,2.64,2.64,2.6517,2.7365,2.7424,2.6739,2.7968,3.0974,3.4758,3.4357,3.3884,3.3963,3.334,3.2808,3.2386,3.1763,3.1212,3.0809,3.0497,3.0222,2.9806,2.9591,2.9297,2.8984,2.8902,2.8828,2.8957,2.8975,2.9104,2.9324,2.936,2.9221,2.9046,2.9028,2.8955,2.9048,2.8993,2.8975,2.8975,2.8975,2.914,2.9489,2.9459,2.9495,2.9514,2.9556,2.931,2.904,2.9751,3.0534,3.0446,3.0681,3.0606,3.023,3.0417,3.053,3.0386,3.0937,3.17,3.1703,3.2467,3.3927,3.7179,3.7922,3.9187,4.1164,4.2613,4.4053,4.4891,4.5051,4.537,4.5507,4.5576,4.6012,4.6607,4.7505,4.7872,4.8079,4.8377,4.8377,4.8377,4.8377,4.8377,2.5433,2.5409,2.5252,2.5264,2.5385,2.5047,2.4842,2.4733,2.4383,2.4178,2.413,2.4028,2.3956,2.4009,2.398,2.3968,2.3985,2.4082,2.4057,2.4009,2.4511,2.4686,2.4827,2.5263,2.5375,2.5506,2.6013,2.6507,2.668,2.6667,2.668,2.668,2.6587,2.6838,2.7444,2.8446,2.8468,2.8424,3.015,3.2804,3.5595,3.51,3.4554,3.4532,3.3945,3.3413,3.2991,3.2221,3.1689,3.1377,3.1121,3.0375,2.9136,2.8993,2.9076,2.9379,2.9167,2.9122,2.9324,2.925,2.936,2.9727,2.9782,2.9623,2.9446,2.9179,2.9174,2.924,2.9389,2.937,2.936,2.9397,2.9489,2.9745,2.9892,2.9965,2.9984,3.0222,3.0116,2.9865,3.0512,3.1027,3.0918,3.1138,3.097,3.0389,3.0831,3.1015,3.0868,3.144,3.2364,3.2349,3.3017,3.4427,3.666,3.7906,4.0171,4.2232,4.2742,4.4142,4.5186,4.5301,4.5461,4.5599,4.5944,4.624,4.6859,4.7803,4.8171,4.8354,4.8377,4.8377,4.8377,4.8377,4.8377,2.5433,2.5433,2.5433,2.5421,2.5433,2.5349,2.524,2.5023,2.4963,2.4745,2.4516,2.4383,2.4299,2.4251,2.4311,2.4275,2.4214,2.4057,2.4069,2.4238,2.4662,2.5112,2.5223,2.6082,2.6044,2.5414,2.6522,2.7228,2.7188,2.7175,2.7188,2.7175,2.6934,2.7588,2.9152,2.9203,2.9837,3.0783,3.1507,3.3191,3.5742,3.6107,3.5702,3.5045,3.4587,3.4183,3.3817,3.301,3.2533,3.2441,3.1818,3.0735,2.9427,2.9386,2.9523,2.9976,2.955,2.9507,3.0057,2.9874,2.9892,3.0259,3.0277,3.0332,3.0189,2.9701,2.9592,3.0112,3.0371,3.0259,3.0254,3.0185,3.0185,3.0222,3.0461,3.0626,3.0699,3.0754,3.0772,3.0754,3.1135,3.1429,3.1377,3.1577,3.1516,3.1432,3.1648,3.1939,3.182,3.2364,3.2966,3.3534,3.3961,3.4692,3.6199,3.7822,4.0923,4.3398,4.3436,4.4045,4.5005,4.537,4.5599,4.5783,4.6334,4.663,4.7087,4.7941,4.824,4.8377,4.8377,4.8377,4.8377,4.8377,4.8377,2.5433,2.5433,2.5433,2.5433,2.5409,2.5252,2.512,2.5023,2.4854,2.4709,2.4649,2.4567,2.4507,2.4576,2.4519,2.4507,2.4504,2.442,2.4432,2.4564,2.5367,2.5545,2.5537,2.616,2.6287,2.6272,2.6928,2.7268,2.7281,2.7281,2.7268,2.7241,2.7175,2.797,2.9354,3.0521,3.1402,3.1485,3.3583,3.5228,3.6072,3.6146,3.5943,3.543,3.5045,3.477,3.4605,3.3615,3.3065,3.3028,3.2514,3.1756,3.1078,3.167,3.1903,3.1102,3.0864,3.0699,3.0937,3.0901,3.0956,3.1322,3.1433,3.1451,3.1451,3.0956,3.0956,3.154,3.172,3.1626,3.0843,3.0864,3.0882,3.0626,3.0717,3.0809,3.0827,3.0809,3.0901,3.1139,3.134,3.1543,3.1874,3.2056,3.2107,3.1889,3.2205,3.2391,3.2343,3.2927,3.3516,3.3837,3.4357,3.5097,3.6474,3.7851,4.0079,4.2638,4.3476,4.409,4.4937,4.5415,4.5645,4.615,4.6678,4.7183,4.7643,4.7964,4.8263,4.8377,4.8377,4.8377,4.8377,4.8377,4.8377,2.5433,2.5433,2.5433,2.5433,2.5421,2.5252,2.5192,2.5168,2.5011,2.4927,2.4963,2.4831,2.4783,2.4842,2.4795,2.4771,2.4806,2.4878,2.4927,2.4939,2.5625,2.5793,2.5607,2.6427,2.6787,2.6978,2.7437,2.7589,2.7589,2.7589,2.7589,2.7754,2.8126,2.9029,3.0499,3.2379,3.3337,3.3751,3.522,3.6249,3.6237,3.6165,3.6036,3.5797,3.5449,3.5265,3.5174,3.4367,3.3817,3.3615,3.3311,3.279,3.2436,3.3218,3.3402,3.245,3.1801,3.1469,3.1744,3.1671,3.1781,3.2129,3.2221,3.2372,3.2372,3.2111,3.2077,3.2394,3.2523,3.2206,3.1469,3.1433,3.1469,3.1267,3.1102,3.1029,3.1029,3.1157,3.1176,3.1413,3.1411,3.1629,3.2129,3.2781,3.2777,3.2458,3.2611,3.2863,3.2695,3.3278,3.3762,3.4248,3.4682,3.5643,3.6853,3.802,3.9229,4.132,4.3171,4.409,4.5074,4.5393,4.5553,4.6472,4.7138,4.7666,4.8102,4.8194,4.8377,4.8377,4.8377,4.8377,4.8377,4.8377,4.8377,2.5433,2.5433,2.5433,2.5433,2.5433,2.5421,2.5409,2.5421,2.5409,2.5385,2.5361,2.5373,2.5276,2.5083,2.5288,2.5276,2.5108,2.5264,2.5349,2.5301,2.5579,2.5855,2.6174,2.6707,2.7227,2.7409,2.7915,2.8096,2.8043,2.8043,2.815,2.8211,2.9462,3.0956,3.2141,3.3992,3.5639,3.6586,3.6527,3.6321,3.6237,3.6182,3.6182,3.6164,3.5834,3.565,3.5577,3.5174,3.477,3.4367,3.3863,3.3642,3.3697,3.3744,3.3727,3.3582,3.2298,3.2129,3.2423,3.2404,3.2349,3.268,3.2735,3.2814,3.3021,3.2855,3.2781,3.2947,3.2749,3.2413,3.2169,3.2038,3.2019,3.1983,3.1708,3.1524,3.1506,3.1948,3.1964,3.1588,3.1504,3.1738,3.2418,3.3163,3.3211,3.3048,3.3128,3.3273,3.34,3.3721,3.4153,3.466,3.5064,3.5631,3.6717,3.7885,3.9122,4.0187,4.2223,4.3675,4.5096,4.5462,4.5898,4.6816,4.7528,4.8056,4.8354,4.8377,4.8377,4.8377,4.8377,4.8377,4.8377,4.8377,4.8377,2.5433,2.5433,2.5433,2.5433,2.5433,2.5433,2.5433,2.5433,2.5433,2.5433,2.5421,2.5373,2.5325,2.5337,2.5337,2.5349,2.5349,2.5397,2.5433,2.5433,2.5373,2.5859,2.6431,2.6783,2.7135,2.7474,2.7981,2.815,2.815,2.815,2.815,2.8305,2.9869,3.1302,3.2809,3.4735,3.6148,3.7159,3.7251,3.6728,3.6311,3.6201,3.6201,3.6182,3.6091,3.6036,3.6017,3.5669,3.5119,3.4458,3.4043,3.3806,3.3817,3.3816,3.3879,3.3661,3.3532,3.3211,3.3376,3.3376,3.3376,3.3468,3.3468,3.3486,3.3505,3.3569,3.355,3.3431,3.3028,3.2753,3.2826,3.2643,3.2496,3.2441,3.2423,3.2313,3.2239,3.2368,3.2441,3.229,3.2229,3.26,3.3182,3.3539,3.3742,3.3459,3.3586,3.3678,3.3751,3.4134,3.4623,3.5027,3.543,3.5834,3.6571,3.7747,3.8739,3.9267,4.0946,4.27,4.4425,4.592,4.6609,4.739,4.7803,4.8308,4.8377,4.8377,4.8377,4.8377,4.8377,4.8377,4.8377,4.8377,4.8377,2.5433,2.5433,2.5433,2.5433,2.5433,2.5433,2.5433,2.5433,2.5433,2.5433,2.5433,2.5433,2.5433,2.5433,2.5433,2.5433,2.5433,2.5433,2.5433,2.5433,2.5433,2.5775,2.6116,2.6443,2.6965,2.7304,2.7981,2.815,2.815,2.815,2.815,2.8628,3.0622,3.2242,3.292,3.5629,3.7166,3.7356,3.7319,3.7081,3.6326,3.6125,3.6201,3.6201,3.6201,3.6201,3.6164,3.5981,3.5485,3.4664,3.4139,3.3762,3.3879,3.3872,3.3817,3.3817,3.3817,3.3853,3.4037,3.4073,3.4147,3.4238,3.4202,3.4183,3.422,3.4025,3.3897,3.4257,3.3787,3.3743,3.367,3.3486,3.3468,3.3651,3.3615,3.334,3.2716,3.2753,3.2691,3.2728,3.2856,3.3193,3.3798,3.3816,3.3771,3.3743,3.378,3.3817,3.3872,3.444,3.4917,3.5229,3.5559,3.5889,3.6237,3.7201,3.8047,3.872,4.0711,4.2401,4.4013,4.5912,4.7046,4.7643,4.8102,4.8377,4.8377,4.8377,4.8377,4.8377,4.8377,4.8377,4.8377,4.8377,4.8377,2.5433,2.5433,2.5433,2.5433,2.5433,2.5433,2.5433,2.5433,2.5433,2.5433,2.5433,2.5433,2.5433,2.5433,2.5433,2.5433,2.5433,2.5433,2.5433,2.5433,2.5604,2.5604,2.5775,2.6443,2.6965,2.7122,2.7786,2.807,2.8043,2.807,2.8083,2.8895,3.1542,3.2928,3.3742,3.6515,3.8043,3.7668,3.7712,3.7148,3.6503,3.6362,3.6402,3.6308,3.6366,3.6292,3.6237,3.6127,3.5852,3.5192,3.4394,3.4052,3.3943,3.3775,3.4,3.4018,3.4073,3.4183,3.4385,3.4477,3.4605,3.4807,3.4623,3.4623,3.4788,3.4445,3.4248,3.4844,3.5,3.4722,3.4312,3.4348,3.4495,3.4678,3.488,3.4257,3.3358,3.3175,3.3239,3.2874,3.3393,3.3659,3.3853,3.3835,3.3817,3.3798,3.389,3.4018,3.4183,3.4623,3.499,3.521,3.554,3.5889,3.6219,3.6662,3.7333,3.815,4.0868,4.271,4.3681,4.5345,4.6962,4.7872,4.8217,4.8377,4.8377,4.8377,4.84,4.8377,4.8377,4.8377,4.8377,4.8377,4.8377,2.5433,2.5433,2.5433,2.5433,2.5433,2.5433,2.5433,2.5433,2.5433,2.5433,2.5433,2.5433,2.5433,2.5433,2.5433,2.5433,2.5433,2.5433,2.5604,2.5933,2.5933,2.5933,2.6103,2.6601,2.7109,2.7564,2.7729,2.7802,2.7802,2.7789,2.7789,2.8468,3.1437,3.3349,3.3937,3.6727,3.8614,3.8365,3.8291,3.7495,3.6543,3.6728,3.6824,3.6837,3.6655,3.6512,3.6256,3.6201,3.6109,3.5907,3.5741,3.5011,3.4216,3.443,3.4697,3.4697,3.4715,3.477,3.488,3.4899,3.4935,3.5045,3.5009,3.4935,3.499,3.481,3.4774,3.5152,3.5556,3.5444,3.4747,3.4752,3.4972,3.51,3.51,3.4954,3.4605,3.4532,3.4175,3.3801,3.3675,3.3762,3.3884,3.3824,3.3908,3.3872,3.4018,3.4238,3.4532,3.4862,3.5119,3.5357,3.5705,3.6054,3.6274,3.6622,3.7089,3.8084,4.0425,4.2174,4.3299,4.4976,4.6413,4.7599,4.8308,4.84,4.8324,4.84,4.84,4.84,4.84,4.8377,4.8377,4.8377,4.8492,2.5433,2.5433,2.5433,2.5433,2.5433,2.5433,2.5433,2.5433,2.5433,2.5433,2.5433,2.5433,2.5433,2.5433,2.5433,2.5433,2.5433,2.5433,2.5604,2.5933,2.5933,2.6103,2.6575,2.6656,2.6929,2.742,2.7622,2.7642,2.7535,2.766,2.7975,2.8795,3.1686,3.3597,3.4503,3.7064,3.839,3.854,3.8531,3.7924,3.7076,3.7148,3.7362,3.7129,3.691,3.6769,3.6806,3.6384,3.6366,3.6366,3.6294,3.5889,3.5157,3.5318,3.5587,3.5569,3.5207,3.5155,3.5229,3.532,3.5394,3.5559,3.5412,3.5449,3.5303,3.5267,3.5248,3.5504,3.5813,3.5829,3.5284,3.5412,3.5559,3.5577,3.5577,3.5577,3.5522,3.5265,3.4865,3.445,3.443,3.4375,3.439,3.4153,3.4312,3.4403,3.4238,3.444,3.4807,3.5119,3.5357,3.5632,3.5944,3.6219,3.6384,3.6696,3.7136,3.8157,3.9855,4.1045,4.2019,4.4039,4.6117,4.7051,4.7963,4.8145,4.8191,4.8246,4.8515,4.8653,4.8676,4.8515,4.84,4.8301,4.8607,2.5433,2.5433,2.5433,2.5433,2.5433,2.5433,2.5433,2.5433,2.5433,2.5433,2.5433,2.5433,2.5433,2.5433,2.5433,2.5433,2.5433,2.5433,2.5604,2.5933,2.5763,2.6116,2.6732,2.6735,2.6581,2.6543,2.7053,2.7402,2.7375,2.7405,2.8042,2.9676,3.1833,3.3643,3.5356,3.7363,3.8548,3.8548,3.854,3.8375,3.7667,3.7741,3.7712,3.7356,3.7301,3.7173,3.7173,3.6842,3.6604,3.6861,3.6512,3.6201,3.6257,3.6216,3.6155,3.6174,3.5758,3.5559,3.5742,3.587,3.6072,3.6256,3.6017,3.5925,3.6017,3.563,3.5612,3.5851,3.622,3.6202,3.6182,3.6091,3.6109,3.6146,3.6164,3.6201,3.6091,3.5595,3.5357,3.5265,3.5047,3.4956,3.4972,3.4807,3.488,3.4899,3.4715,3.4697,3.5082,3.543,3.5705,3.5815,3.5924,3.618,3.6362,3.7264,3.7631,3.805,3.9466,4.0221,4.0841,4.1728,4.371,4.6359,4.7422,4.7647,4.8078,4.8621,4.8814,4.8974,4.852,4.7953,4.8032,4.82,4.8497,2.5433,2.5433,2.5433,2.5433,2.5433,2.5433,2.5433,2.5433,2.5433,2.5433,2.5433,2.5433,2.5433,2.5433,2.5433,2.5433,2.5433,2.5433,2.5604,2.5933,2.5933,2.6273,2.6393,2.6813,2.6723,2.6568,2.6803,2.7175,2.7348,2.7337,2.7983,2.9749,3.1616,3.335,3.5502,3.7149,3.8328,3.8585,3.8511,3.842,3.8365,3.8126,3.7814,3.7594,3.7631,3.7649,3.7484,3.7338,3.7264,3.7283,3.6576,3.6316,3.6243,3.618,3.6275,3.6275,3.6404,3.6274,3.6256,3.6696,3.6677,3.6476,3.6439,3.6402,3.6198,3.6067,3.6067,3.6107,3.6274,3.6256,3.6201,3.6256,3.6219,3.6219,3.6201,3.6201,3.6164,3.6036,3.5889,3.5852,3.5687,3.5522,3.5412,3.5265,3.5192,3.5139,3.5157,3.5194,3.5321,3.576,3.5997,3.6034,3.6015,3.6103,3.6171,3.7458,3.8273,3.8264,3.8974,3.9575,3.9826,3.9393,4.0938,4.3961,4.6136,4.6977,4.7664,4.843,4.8737,4.8643,4.7962,4.7387,4.7611,4.7835,4.8358,2.5433,2.5433,2.5433,2.5433,2.5433,2.5433,2.5433,2.5433,2.5433,2.5433,2.5433,2.5433,2.5433,2.5433,2.5433,2.5433,2.5433,2.5433,2.5604,2.5933,2.5933,2.6103,2.6211,2.6569,2.6594,2.662,2.6835,2.6867,2.7188,2.6974,2.8255,3.0257,3.1669,3.3529,3.5869,3.7239,3.8071,3.8438,3.8456,3.8438,3.8621,3.8401,3.8218,3.8144,3.8016,3.8016,3.8016,3.7558,3.7539,3.7594,3.7166,3.6714,3.6507,3.6929,3.7218,3.6861,3.6691,3.6709,3.6769,3.7099,3.6861,3.6677,3.6916,3.6916,3.6563,3.6279,3.6334,3.6321,3.6732,3.6641,3.6274,3.6402,3.6421,3.6256,3.6201,3.6201,3.6201,3.607,3.594,3.6125,3.5942,3.5925,3.6036,3.5724,3.554,3.5468,3.5668,3.5703,3.5718,3.5972,3.6207,3.6563,3.6563,3.6594,3.6813,3.7467,3.8353,3.8456,3.8438,3.8882,3.8975,3.8676,3.9738,4.1875,4.3783,4.546,4.6811,4.7506,4.7835,4.8271,4.8004,4.7826,4.7462,4.7487,4.799,2.5433,2.5433,2.5433,2.5433,2.5433,2.5433,2.5433,2.5433,2.5433,2.5433,2.5433,2.5433,2.5433,2.5433,2.5433,2.5433,2.5433,2.5433,2.5604,2.5763,2.5604,2.5775,2.6149,2.6196,2.6045,2.6427,2.6281,2.672,2.6879,2.6827,2.8518,3.0449,3.1652,3.3542,3.6551,3.6741,3.7522,3.8071,3.8218,3.8236,3.8548,3.864,3.864,3.864,3.831,3.831,3.8438,3.8071,3.7924,3.7961,3.7796,3.7403,3.7058,3.7976,3.8205,3.7613,3.7075,3.7075,3.7093,3.7448,3.7319,3.7007,3.7338,3.7264,3.6947,3.6776,3.6543,3.6776,3.6856,3.7081,3.6659,3.6604,3.6417,3.6289,3.6143,3.6088,3.5863,3.5731,3.5564,3.5713,3.6012,3.6125,3.6201,3.5942,3.5594,3.5961,3.6012,3.593,3.611,3.6228,3.6426,3.6976,3.7221,3.7403,3.7413,3.7595,3.8104,3.8036,3.8054,3.8145,3.804,3.7775,3.9215,4.0235,4.1573,4.324,4.4898,4.6669,4.7527,4.8079,4.8146,4.7729,4.6958,4.7022,4.7639,2.5433,2.5433,2.5433,2.5433,2.5433,2.5433,2.5433,2.5433,2.5433,2.5433,2.5433,2.5433,2.5433,2.5433,2.5433,2.5433,2.5433,2.5433,2.5433,2.5604,2.5433,2.5421,2.5507,2.5558,2.5521,2.5824,2.5275,2.5816,2.6436,2.6518,2.846,3.0882,3.0606,3.1836,3.6326,3.5858,3.5722,3.7249,3.7888,3.8236,3.8566,3.864,3.864,3.8621,3.8585,3.8548,3.8621,3.842,3.8456,3.8438,3.8393,3.8375,3.8365,3.8356,3.8605,3.8467,3.8319,3.7969,3.7668,3.7869,3.7906,3.7539,3.7723,3.7686,3.7403,3.7312,3.7458,3.8272,3.762,3.7118,3.7044,3.6696,3.6417,3.6249,3.608,3.5966,3.5718,3.5602,3.5548,3.5432,3.5655,3.5984,3.6176,3.6067,3.5827,3.6249,3.6503,3.6417,3.6498,3.6767,3.6755,3.7294,3.7696,3.786,3.7795,3.7995,3.7557,3.7578,3.7472,3.7543,3.7525,3.7488,3.7537,3.8744,3.9958,4.1474,4.3254,4.5205,4.7072,4.7684,4.7447,4.6869,4.6037,4.6416,4.7133,2.5433,2.5433,2.5433,2.5433,2.5433,2.5433,2.5433,2.5433,2.5433,2.5433,2.5433,2.5433,2.5433,2.5433,2.5433,2.5433,2.5433,2.5433,2.5433,2.5433,2.5421,2.5361,2.5325,2.5379,2.5483,2.5175,2.4906,2.5174,2.6007,2.6725,2.7942,2.9789,2.9769,3.1261,3.5295,3.4915,3.5828,3.7239,3.8144,3.8456,3.8603,3.864,3.864,3.864,3.864,3.864,3.864,3.864,3.864,3.8621,3.8632,3.8651,3.8585,3.8669,3.8669,3.8585,3.8511,3.8467,3.8199,3.8273,3.8071,3.8016,3.8089,3.8273,3.8144,3.8089,3.819,3.8576,3.8172,3.7778,3.7558,3.7319,3.7056,3.6813,3.6309,3.6228,3.5994,3.5498,3.5362,3.5379,3.5414,3.6111,3.6533,3.6551,3.6345,3.6587,3.6705,3.6785,3.7174,3.7602,3.7535,3.7589,3.7977,3.8244,3.8122,3.8073,3.7312,3.7082,3.6992,3.6955,3.72,3.7392,3.7439,3.7587,3.8636,4.0123,4.1933,4.3535,4.523,4.6061,4.6706,4.6161,4.5797,4.6218,4.6901,2.5433,2.5433,2.5433,2.5433,2.5433,2.5433,2.5433,2.5433,2.5433,2.5433,2.5433,2.5433,2.5433,2.5433,2.5433,2.5433,2.5433,2.5433,2.5433,2.5433,2.5361,2.5277,2.5096,2.5212,2.5078,2.5035,2.5009,2.5071,2.5483,2.6134,2.7051,2.8613,2.8584,3.0499,3.2862,3.3987,3.4986,3.7769,3.8061,3.828,3.8603,3.864,3.864,3.864,3.864,3.864,3.864,3.864,3.864,3.864,3.8621,3.8621,3.8621,3.8621,3.8603,3.864,3.8585,3.8585,3.8475,3.8401,3.8218,3.8273,3.8383,3.8566,3.8585,3.864,3.8585,3.8624,3.8411,3.8071,3.7888,3.7851,3.7322,3.704,3.6814,3.6731,3.6594,3.5885,3.5712,3.5764,3.599,3.6719,3.703,3.7102,3.7084,3.7012,3.7036,3.7113,3.7467,3.7806,3.7665,3.7347,3.7701,3.8073,3.8145,3.7845,3.7099,3.6602,3.6529,3.6702,3.698,3.7111,3.7204,3.7398,3.7809,3.8594,4.0082,4.1789,4.3164,4.3682,4.4218,4.5532,4.5861,4.6229,4.6712,2.5433,2.5433,2.5433,2.5433,2.5433,2.5433,2.5433,2.5433,2.5433,2.5433,2.5433,2.5433,2.5433,2.5433,2.5433,2.5433,2.5433,2.5433,2.5409,2.5325,2.5216,2.5168,2.5023,2.4948,2.4918,2.5082,2.5145,2.5194,2.5285,2.5564,2.7118,2.8537,2.7649,2.9334,3.1419,3.3046,3.5087,3.7391,3.8024,3.8171,3.839,3.8658,3.8658,3.864,3.864,3.864,3.864,3.864,3.864,3.864,3.864,3.864,3.864,3.864,3.864,3.864,3.864,3.864,3.8585,3.8585,3.8585,3.8603,3.8621,3.864,3.864,3.864,3.8603,3.853,3.8401,3.8346,3.8181,3.7878,3.7576,3.7264,3.6952,3.6777,3.6446,3.5992,3.5853,3.6114,3.6534,3.7113,3.7342,3.736,3.7184,3.7095,3.678,3.6852,3.6834,3.7152,3.701,3.701,3.733,3.7525,3.7721,3.7365,3.6832,3.6546,3.6471,3.6516,3.6792,3.6936,3.7467,3.7775,3.8186,3.8271,3.8493,4.0286,4.1367,4.116,4.201,4.4199,4.5694,4.6209,4.6675,2.5433,2.5433,2.5433,2.5433,2.5433,2.5433,2.5433,2.5433,2.5433,2.5433,2.5433,2.5433,2.5433,2.5433,2.5433,2.5433,2.5409,2.5252,2.5216,2.5108,2.4975,2.4878,2.4948,2.5114,2.5053,2.5118,2.52,2.544,2.5252,2.5422,2.5773,2.6361,2.6505,2.8112,2.9998,3.2682,3.5463,3.7327,3.8244,3.839,3.8408,3.8536,3.8536,3.864,3.864,3.864,3.864,3.864,3.864,3.864,3.864,3.864,3.864,3.864,3.864,3.864,3.864,3.864,3.864,3.864,3.864,3.864,3.864,3.864,3.864,3.864,3.864,3.8566,3.8493,3.8493,3.8475,3.8049,3.7661,3.7381,3.7046,3.6835,3.6606,3.6325,3.6289,3.657,3.687,3.7312,3.7365,3.7578,3.7365,3.7329,3.6852,3.655,3.6494,3.6581,3.6581,3.6742,3.6885,3.7115,3.7311,3.6955,3.6563,3.6523,3.6303,3.6645,3.7005,3.7604,3.8066,3.834,3.8356,3.8404,3.8782,3.9478,4.0018,4.0398,4.18,4.3923,4.5217,4.6168,4.6616,2.5433,2.5433,2.5433,2.5433,2.5433,2.5433,2.5433,2.5433,2.5433,2.5433,2.5433,2.5433,2.5433,2.5433,2.5433,2.5361,2.5313,2.5216,2.5071,2.4914,2.4745,2.4637,2.479,2.4955,2.5016,2.513,2.5252,2.5361,2.5397,2.5433,2.558,2.5689,2.593,2.7057,2.8785,3.2389,3.5578,3.6957,3.8326,3.8308,3.8377,3.8504,3.8468,3.8536,3.8481,3.864,3.864,3.864,3.864,3.864,3.864,3.864,3.864,3.864,3.864,3.864,3.864,3.864,3.864,3.864,3.864,3.864,3.864,3.864,3.864,3.864,3.864,3.864,3.8621,3.864,3.864,3.839,3.7878,3.756,3.7241,3.7046,3.7064,3.6834,3.6976,3.717,3.7436,3.7791,3.7295,3.7312,3.6992,3.6957,3.6637,3.6316,3.6368,3.642,3.6581,3.6581,3.6724,3.6811,3.6754,3.6644,3.6568,3.6809,3.6816,3.7124,3.7553,3.8135,3.8597,3.8854,3.8851,3.8761,3.8879,3.9368,3.9668,3.9914,4.1922,4.4161,4.5091,4.6023,4.6311,2.5421,2.5433,2.5421,2.5421,2.5385,2.5433,2.5433,2.5433,2.5433,2.5433,2.5433,2.5433,2.5433,2.5433,2.5433,2.5325,2.5168,2.524,2.5083,2.4697,2.4528,2.4564,2.4717,2.4845,2.4992,2.513,2.5288,2.5434,2.5433,2.5433,2.5433,2.5433,2.5543,2.6016,2.6719,3.0534,3.3365,3.5075,3.7362,3.7846,3.781,3.8132,3.7935,3.8076,3.8322,3.8481,3.8481,3.864,3.864,3.864,3.864,3.864,3.864,3.864,3.864,3.864,3.864,3.864,3.864,3.864,3.864,3.864,3.864,3.864,3.864,3.864,3.864,3.864,3.864,3.864,3.864,3.8481,3.8004,3.7685,3.7365,3.7205,3.7205,3.7045,3.7152,3.7454,3.795,3.8304,3.7472,3.6992,3.6546,3.6402,3.6258,3.6097,3.6258,3.6258,3.642,3.6471,3.6489,3.6644,3.6765,3.674,3.6731,3.7005,3.733,3.7655,3.8032,3.8529,3.8957,3.9316,3.9243,3.9083,3.8974,3.9075,3.9607,4.0332,4.228,4.4262,4.5154,4.598,4.6537,2.5071,2.4914,2.5096,2.5071,2.4963,2.5301,2.5433,2.5433,2.5433,2.5433,2.5433,2.5433,2.5433,2.5433,2.5421,2.5301,2.5083,2.483,2.4649,2.4407,2.4251,2.4251,2.4311,2.4504,2.4685,2.5011,2.5204,2.5325,2.5433,2.5433,2.5433,2.5433,2.5433,2.6431,2.7746,3.0064,3.1707,3.4474,3.6637,3.7643,3.7311,3.7112,3.7165,3.7525,3.7827,3.8163,3.8163,3.8322,3.864,3.864,3.864,3.864,3.864,3.864,3.864,3.864,3.864,3.864,3.864,3.864,3.864,3.864,3.864,3.864,3.864,3.864,3.864,3.864,3.864,3.864,3.864,3.8322,3.7845,3.7525,3.7205,3.7205,3.7205,3.7045,3.7045,3.7667,3.8322,3.7685,3.7188,3.6759,3.6489,3.6362,3.62,3.6131,3.6114,3.6097,3.6258,3.6362,3.6448,3.6457,3.6645,3.7022,3.7347,3.7655,3.7929,3.8203,3.8597,3.9025,3.9385,3.9796,3.9601,3.9584,3.949,3.9413,3.9856,4.0803,4.2487,4.3993,4.5033,4.6031,4.7258,2.4601,2.4395,2.4649,2.4661,2.4589,2.5071,2.5349,2.5421,2.5433,2.5433,2.5433,2.5433,2.5433,2.5433,2.5421,2.5289,2.5047,2.4878,2.4528,2.4263,2.4082,2.4142,2.4299,2.4339,2.4745,2.5047,2.5289,2.5433,2.5433,2.5433,2.5433,2.5433,2.5433,2.6103,2.7422,2.8742,3.0064,3.2747,3.4601,3.647,3.5719,3.5455,3.6208,3.6471,3.7188,3.8004,3.8004,3.8163,3.8481,3.8481,3.8481,3.864,3.864,3.864,3.864,3.864,3.864,3.864,3.864,3.864,3.864,3.864,3.864,3.864,3.864,3.864,3.864,3.864,3.864,3.864,3.8481,3.8163,3.8004,3.7525,3.7205,3.7205,3.7205,3.7045,3.7383,3.8004,3.8022,3.7383,3.6759,3.6541,3.6285,3.6303,3.632,3.6251,3.6183,3.62,3.6251,3.6388,3.6662,3.697,3.7313,3.7741,3.8049,3.8323,3.8563,3.8803,3.9162,3.959,3.9933,4.0155,4.0036,3.9822,3.9813,3.9932,4.031,4.0797,4.2119,4.3392,4.4698,4.6036,4.7294,2.4057,2.3876,2.4106,2.4214,2.4299,2.4758,2.5144,2.5385,2.5409,2.5409,2.5409,2.5421,2.5433,2.5433,2.5433,2.5264,2.5023,2.4963,2.4613,2.4335,2.4154,2.4202,2.4323,2.454,2.4818,2.5059,2.5289,2.5433,2.5433,2.5433,2.5433,2.5433,2.5433,2.5775,2.6431,2.7253,2.8419,3.0432,3.2206,3.3406,3.2747,3.3352,3.38,3.4458,3.5527,3.6351,3.6672,3.733,3.7667,3.7986,3.8322,3.8481,3.864,3.864,3.864,3.864,3.864,3.864,3.864,3.864,3.864,3.864,3.8481,3.864,3.864,3.864,3.864,3.864,3.864,3.864,3.8481,3.8322,3.8163,3.7685,3.7365,3.7365,3.7365,3.7525,3.7845,3.8022,3.7739,3.7276,3.6794,3.6396,3.6276,3.632,3.6354,3.6457,3.6405,3.6422,3.6508,3.6731,3.7056,3.7553,3.7964,3.8323,3.8768,3.9025,3.9214,3.947,3.983,4.0087,4.0292,4.0378,4.0207,4.0207,4.0163,4.0265,4.0515,4.1151,4.1763,4.3023,4.4261,4.5503,4.6695,2.3344,2.2792,2.3392,2.3683,2.3756,2.4251,2.4613,2.4866,2.5059,2.5168,2.5361,2.5373,2.5433,2.5433,2.5433,2.5144,2.4914,2.4673,2.4371,2.419,2.4154,2.4214,2.4383,2.4661,2.4914,2.5108,2.5289,2.5433,2.5433,2.5433,2.5433,2.5433,2.5433,2.5433,2.5604,2.6091,2.6927,2.7994,2.9578,2.9818,2.9621,2.9774,3.0578,3.1722,3.3053,3.3708,3.4034,3.5511,3.6172,3.6333,3.7809,3.8481,3.864,3.864,3.864,3.864,3.864,3.864,3.8481,3.8322,3.8322,3.8322,3.8322,3.8322,3.8481,3.864,3.864,3.864,3.864,3.864,3.8481,3.8322,3.8004,3.7685,3.7365,3.7365,3.7365,3.7685,3.8004,3.7899,3.7775,3.7042,3.6396,3.6474,3.6283,3.6242,3.6388,3.6611,3.6662,3.6696,3.6816,3.7039,3.7553,3.8066,3.8426,3.8785,3.9299,3.9727,3.9847,4.0036,4.0378,4.0601,4.0686,4.0635,4.0481,4.0446,4.0464,4.0549,4.0583,4.0583,4.1023,4.2531,4.382,4.501,4.6444,2.2805,2.2436,2.2853,2.3249,2.3502,2.39,2.4178,2.4383,2.483,2.5227,2.5445,2.5325,2.5433,2.5433,2.5421,2.5277,2.4999,2.4733,2.4468,2.4347,2.4106,2.4238,2.4456,2.4721,2.4975,2.5168,2.5325,2.5433,2.5433,2.5433,2.5433,2.5433,2.5433,2.5433,2.5433,2.5604,2.5933,2.6273,2.6626,2.6927,2.685,2.6735,2.7769,2.9202,3.0578,3.1076,3.1407,3.3528,3.4847,3.5349,3.7152,3.8322,3.8481,3.864,3.8286,3.8286,3.8304,3.8163,3.8004,3.7845,3.8004,3.8004,3.8004,3.834,3.8499,3.8676,3.8658,3.864,3.864,3.864,3.8481,3.8163,3.7845,3.7525,3.7365,3.7365,3.7525,3.7845,3.7881,3.7775,3.7364,3.6644,3.6311,3.6237,3.6423,3.6737,3.7039,3.7296,3.7227,3.7073,3.7193,3.7398,3.8015,3.8614,3.894,3.9282,3.9762,4.0138,4.0224,4.0464,4.0875,4.0994,4.096,4.0875,4.0789,4.0686,4.0549,4.0549,4.0583,4.0583,4.0765,4.1761,4.3047,4.4272,4.5954,2.2488,2.2307,2.2561,2.2995,2.3418,2.3731,2.3876,2.3925,2.4637,2.5155,2.5191,2.5277,2.5373,2.5349,2.5385,2.5337,2.5059,2.477,2.4504,2.4552,2.4166,2.419,2.4492,2.4685,2.5023,2.5301,2.5433,2.5433,2.5433,2.5433,2.5433,2.5433,2.5433,2.5433,2.5433,2.5433,2.5604,2.5604,2.5604,2.5933,2.5726,2.5628,2.6217,2.7888,2.9258,3.0412,3.091,3.2397,3.4359,3.4863,3.585,3.6992,3.8272,3.8322,3.7968,3.7791,3.7809,3.7827,3.7685,3.7365,3.7525,3.7525,3.7685,3.8058,3.8395,3.8518,3.8658,3.864,3.864,3.8481,3.8322,3.8004,3.7685,3.7365,3.7365,3.7365,3.7525,3.7739,3.7988,3.7757,3.6962,3.6396,3.6464,3.6703,3.7009,3.733,3.7484,3.7758,3.7878,3.7604,3.7741,3.7929,3.858,3.9179,3.9453,3.9813,4.0241,4.0515,4.0532,4.0755,4.108,4.1166,4.1183,4.0977,4.0738,4.0669,4.0566,4.0583,4.0583,4.0583,4.0765,4.1291,4.2425,4.3468,4.528,2.2319,2.2307,2.2754,2.3043,2.32,2.3647,2.384,2.3876,2.4238,2.4444,2.4705,2.4902,2.4963,2.4975,2.5337,2.5252,2.4854,2.4782,2.4407,2.4299,2.4082,2.4323,2.4625,2.4842,2.512,2.5325,2.5433,2.5433,2.5433,2.5433,2.5433,2.5433,2.5433,2.5433,2.5433,2.5433,2.5433,2.5433,2.5433,2.5433,2.5421,2.5409,2.5908,2.6273,2.7096,2.7279,2.7772,2.9091,3.0729,3.2052,3.271,3.5029,3.833,3.7846,3.7525,3.749,3.7152,3.7348,3.7028,3.6885,3.7045,3.7205,3.7383,3.7775,3.813,3.8536,3.8658,3.8658,3.8481,3.8322,3.8163,3.7845,3.7543,3.7383,3.7241,3.7241,3.7401,3.7864,3.8311,3.7502,3.6731,3.6651,3.6703,3.709,3.7364,3.7553,3.7638,3.7878,3.8289,3.8306,3.8512,3.8768,3.9299,3.9796,3.9984,4.0173,4.0515,4.0618,4.0601,4.0909,4.1286,4.1371,4.1371,4.0909,4.0618,4.0669,4.0669,4.0583,4.0583,4.0583,4.0765,4.111,4.1529,4.2601,4.439,2.2271,2.2319,2.2693,2.2874,2.2971,2.3442,2.3671,2.3719,2.3949,2.4069,2.4154,2.4589,2.4854,2.4902,2.5144,2.5083,2.4709,2.4782,2.4601,2.4383,2.4311,2.4564,2.4794,2.4963,2.518,2.5373,2.5421,2.5433,2.5433,2.5433,2.5433,2.5433,2.5433,2.5433,2.5433,2.5433,2.5446,2.5433,2.5446,2.5446,2.5446,2.5446,2.5446,2.5433,2.5446,2.547,2.6215,2.7369,2.8851,3.0499,3.1482,3.3852,3.6354,3.6933,3.585,3.5409,3.557,3.6707,3.6063,3.6097,3.6437,3.6615,3.6902,3.7294,3.7115,3.7561,3.8326,3.8326,3.8554,3.8554,3.8022,3.7685,3.7543,3.7291,3.7379,3.7432,3.8113,3.8834,3.8689,3.8199,3.7387,3.6727,3.7013,3.7655,3.7912,3.8015,3.8066,3.8238,3.8614,3.8957,3.9196,3.9453,3.9864,4.0018,4.0018,4.0275,4.0635,4.0686,4.0669,4.1029,4.1371,4.1542,4.1542,4.1217,4.0977,4.0892,4.0857,4.072,4.0601,4.0583,4.0765,4.0765,4.1331,4.1746,4.2864,2.2223,2.2295,2.2549,2.2657,2.2742,2.3225,2.3466,2.3502,2.3695,2.3816,2.3888,2.4287,2.448,2.4673,2.5082,2.4806,2.4782,2.489,2.4794,2.4637,2.4576,2.4745,2.489,2.5047,2.5228,2.5361,2.5433,2.5433,2.5433,2.5433,2.5433,2.5433,2.5433,2.5433,2.5433,2.5446,2.5458,2.5323,2.5335,2.5482,2.5458,2.5446,2.5446,2.5433,2.5458,2.5566,2.613,2.6803,2.8101,2.9411,3.068,3.1994,3.336,3.4164,3.3644,3.3012,3.3887,3.4294,3.3968,3.4932,3.5422,3.5876,3.6148,3.6148,3.6004,3.6558,3.7326,3.7864,3.7953,3.8362,3.7988,3.7739,3.7629,3.7247,3.7515,3.7854,3.863,3.9375,3.8973,3.8589,3.79,3.7082,3.7284,3.8101,3.8289,3.8409,3.8614,3.882,3.9059,3.9402,3.9693,3.9864,4.0138,4.019,4.0155,4.0361,4.072,4.0772,4.0806,4.1149,4.1474,4.1731,4.1851,4.1748,4.1542,4.1217,4.0994,4.0823,4.072,4.0601,4.0583,4.0748,4.0662,4.1081,4.1335,2.2066,2.2283,2.2549,2.2645,2.273,2.3212,2.3454,2.3454,2.3502,2.3635,2.378,2.3879,2.4049,2.4335,2.4663,2.4687,2.4661,2.4902,2.4854,2.4661,2.4733,2.4866,2.4999,2.5132,2.5228,2.5349,2.5433,2.5433,2.5433,2.5433,2.5433,2.5433,2.5433,2.5433,2.5433,2.5458,2.5323,2.5371,2.553,2.5494,2.5431,2.5383,2.5446,2.5433,2.5446,2.547,2.5653,2.5799,2.6796,2.8305,2.9649,2.9592,2.9926,3.0954,3.1167,3.0928,3.1978,3.2024,3.2235,3.3478,3.4205,3.4209,3.4374,3.4173,3.4355,3.5196,3.5823,3.6156,3.6748,3.7968,3.7951,3.8128,3.7959,3.7596,3.7483,3.8145,3.8962,3.9164,3.9128,3.8663,3.8247,3.7827,3.7708,3.8152,3.8392,3.8546,3.882,3.9059,3.9368,3.9762,4.0155,4.031,4.0446,4.0481,4.0481,4.0498,4.0738,4.0789,4.1012,4.1457,4.1799,4.2005,4.2073,4.2039,4.1731,4.1354,4.1149,4.096,4.0772,4.0652,4.0601,4.0549,4.0464,4.049,4.0659]}]]